<?xml version="1.0" encoding="utf-8"?>
<gpx xmlns:xsi="http://www.w3.org/2001/XMLSchema-instance" xmlns:xsd="http://www.w3.org/2001/XMLSchema" version="1.1" creator="Shapelink.com" xmlns="http://www.topografix.com/GPX/1/1" xmlns:gpxtpx="http://www.garmin.com/xmlschemas/TrackPointExtension/v1">
  <metadata>
    <name>Löpning 4.26 km, 2019-10-20</name>
    <desc></desc>
    <author><name>Patrik Nyqvist</name></author> 
    <time>1970-01-01T01:00:00Z</time>
  </metadata>
  <trk>
    <name>Löpning 4.26 km, 2019-10-20</name>
    <trkseg>
      <trkpt lat="41.90365" lon="12.50276833">
        <ele>127.103</ele>
        <time>1970-01-01T01:00:00Z</time>
      </trkpt>
      <trkpt lat="41.90365167" lon="12.50274667">
        <ele>127.103</ele>
        <time>1970-01-01T01:00:00Z</time>
      </trkpt>
      <trkpt lat="41.903655" lon="12.502725">
        <ele>127.103</ele>
        <time>1970-01-01T01:00:00Z</time>
      </trkpt>
      <trkpt lat="41.90366" lon="12.5027">
        <ele>127.103</ele>
        <time>1970-01-01T01:00:00Z</time>
      </trkpt>
      <trkpt lat="41.90366833" lon="12.50267667">
        <ele>127.103</ele>
        <time>1970-01-01T01:00:00Z</time>
      </trkpt>
      <trkpt lat="41.90367667" lon="12.502655">
        <ele>127.103</ele>
        <time>1970-01-01T01:00:00Z</time>
      </trkpt>
      <trkpt lat="41.903685" lon="12.50263">
        <ele>126.036</ele>
        <time>1970-01-01T01:00:00Z</time>
      </trkpt>
      <trkpt lat="41.90369333" lon="12.5026">
        <ele>126.036</ele>
        <time>1970-01-01T01:00:00Z</time>
      </trkpt>
      <trkpt lat="41.90370667" lon="12.502575">
        <ele>126.036</ele>
        <time>1970-01-01T01:00:00Z</time>
      </trkpt>
      <trkpt lat="41.90372" lon="12.50254833">
        <ele>126.036</ele>
        <time>1970-01-01T01:00:00Z</time>
      </trkpt>
      <trkpt lat="41.903735" lon="12.50252333">
        <ele>126.036</ele>
        <time>1970-01-01T01:00:00Z</time>
      </trkpt>
      <trkpt lat="41.90375" lon="12.502495">
        <ele>126.036</ele>
        <time>1970-01-01T01:00:00Z</time>
      </trkpt>
      <trkpt lat="41.90376333" lon="12.50246667">
        <ele>126.036</ele>
        <time>1970-01-01T01:00:00Z</time>
      </trkpt>
      <trkpt lat="41.90377833" lon="12.50243833">
        <ele>126.036</ele>
        <time>1970-01-01T01:00:00Z</time>
      </trkpt>
      <trkpt lat="41.903795" lon="12.50241333">
        <ele>124.055</ele>
        <time>1970-01-01T01:00:00Z</time>
      </trkpt>
      <trkpt lat="41.90381167" lon="12.50239">
        <ele>124.055</ele>
        <time>1970-01-01T01:00:00Z</time>
      </trkpt>
      <trkpt lat="41.90382667" lon="12.50236333">
        <ele>124.055</ele>
        <time>1970-01-01T01:00:00Z</time>
      </trkpt>
      <trkpt lat="41.90384167" lon="12.50233667">
        <ele>124.055</ele>
        <time>1970-01-01T01:00:00Z</time>
      </trkpt>
      <trkpt lat="41.90385667" lon="12.50231167">
        <ele>124.055</ele>
        <time>1970-01-01T01:00:00Z</time>
      </trkpt>
      <trkpt lat="41.90387333" lon="12.50229">
        <ele>124.055</ele>
        <time>1970-01-01T01:00:00Z</time>
      </trkpt>
      <trkpt lat="41.90389167" lon="12.50226667">
        <ele>121.159</ele>
        <time>1970-01-01T01:00:00Z</time>
      </trkpt>
      <trkpt lat="41.90391167" lon="12.50224667">
        <ele>121.159</ele>
        <time>1970-01-01T01:00:00Z</time>
      </trkpt>
      <trkpt lat="41.90393333" lon="12.50223">
        <ele>120.093</ele>
        <time>1970-01-01T01:00:00Z</time>
      </trkpt>
      <trkpt lat="41.90395333" lon="12.502215">
        <ele>120.093</ele>
        <time>1970-01-01T01:00:00Z</time>
      </trkpt>
      <trkpt lat="41.903975" lon="12.502205">
        <ele>120.093</ele>
        <time>1970-01-01T01:00:00Z</time>
      </trkpt>
      <trkpt lat="41.90399667" lon="12.50219333">
        <ele>120.093</ele>
        <time>1970-01-01T01:00:00Z</time>
      </trkpt>
      <trkpt lat="41.90401833" lon="12.50218333">
        <ele>119.026</ele>
        <time>1970-01-01T01:00:00Z</time>
      </trkpt>
      <trkpt lat="41.90403833" lon="12.50217667">
        <ele>119.026</ele>
        <time>1970-01-01T01:00:00Z</time>
      </trkpt>
      <trkpt lat="41.904055" lon="12.50217333">
        <ele>119.026</ele>
        <time>1970-01-01T01:00:00Z</time>
      </trkpt>
      <trkpt lat="41.904075" lon="12.50217333">
        <ele>119.026</ele>
        <time>1970-01-01T01:00:00Z</time>
      </trkpt>
      <trkpt lat="41.90409167" lon="12.502175">
        <ele>119.026</ele>
        <time>1970-01-01T01:00:00Z</time>
      </trkpt>
      <trkpt lat="41.9041" lon="12.50217167">
        <ele>119.026</ele>
        <time>1970-01-01T01:00:00Z</time>
      </trkpt>
      <trkpt lat="41.90410833" lon="12.502165">
        <ele>119.026</ele>
        <time>1970-01-01T01:00:00Z</time>
      </trkpt>
      <trkpt lat="41.90411333" lon="12.50215667">
        <ele>119.026</ele>
        <time>1970-01-01T01:00:00Z</time>
      </trkpt>
      <trkpt lat="41.90411667" lon="12.50214">
        <ele>119.026</ele>
        <time>1970-01-01T01:00:00Z</time>
      </trkpt>
      <trkpt lat="41.90411833" lon="12.50211667">
        <ele>119.026</ele>
        <time>1970-01-01T01:00:00Z</time>
      </trkpt>
      <trkpt lat="41.90411667" lon="12.50208667">
        <ele>119.026</ele>
        <time>1970-01-01T01:00:00Z</time>
      </trkpt>
      <trkpt lat="41.90411333" lon="12.50205333">
        <ele>119.026</ele>
        <time>1970-01-01T01:00:00Z</time>
      </trkpt>
      <trkpt lat="41.904105" lon="12.502015">
        <ele>119.026</ele>
        <time>1970-01-01T01:00:00Z</time>
      </trkpt>
      <trkpt lat="41.90409333" lon="12.50197667">
        <ele>119.026</ele>
        <time>1970-01-01T01:00:00Z</time>
      </trkpt>
      <trkpt lat="41.90408167" lon="12.50193667">
        <ele>119.026</ele>
        <time>1970-01-01T01:00:00Z</time>
      </trkpt>
      <trkpt lat="41.904065" lon="12.50189167">
        <ele>119.026</ele>
        <time>1970-01-01T01:00:00Z</time>
      </trkpt>
      <trkpt lat="41.90404833" lon="12.50184833">
        <ele>119.026</ele>
        <time>1970-01-01T01:00:00Z</time>
      </trkpt>
      <trkpt lat="41.90403" lon="12.501805">
        <ele>119.026</ele>
        <time>1970-01-01T01:00:00Z</time>
      </trkpt>
      <trkpt lat="41.90401333" lon="12.501765">
        <ele>119.026</ele>
        <time>1970-01-01T01:00:00Z</time>
      </trkpt>
      <trkpt lat="41.903995" lon="12.501725">
        <ele>119.026</ele>
        <time>1970-01-01T01:00:00Z</time>
      </trkpt>
      <trkpt lat="41.903975" lon="12.50168833">
        <ele>118.111</ele>
        <time>1970-01-01T01:00:00Z</time>
      </trkpt>
      <trkpt lat="41.903955" lon="12.50165333">
        <ele>118.111</ele>
        <time>1970-01-01T01:00:00Z</time>
      </trkpt>
      <trkpt lat="41.90393667" lon="12.50161833">
        <ele>118.111</ele>
        <time>1970-01-01T01:00:00Z</time>
      </trkpt>
      <trkpt lat="41.903915" lon="12.50158833">
        <ele>118.111</ele>
        <time>1970-01-01T01:00:00Z</time>
      </trkpt>
      <trkpt lat="41.903895" lon="12.50156">
        <ele>118.111</ele>
        <time>1970-01-01T01:00:00Z</time>
      </trkpt>
      <trkpt lat="41.903875" lon="12.50153167">
        <ele>118.111</ele>
        <time>1970-01-01T01:00:00Z</time>
      </trkpt>
      <trkpt lat="41.903855" lon="12.50150167">
        <ele>118.111</ele>
        <time>1970-01-01T01:00:00Z</time>
      </trkpt>
      <trkpt lat="41.903835" lon="12.50147833">
        <ele>118.111</ele>
        <time>1970-01-01T01:00:00Z</time>
      </trkpt>
      <trkpt lat="41.903815" lon="12.50145167">
        <ele>118.111</ele>
        <time>1970-01-01T01:00:00Z</time>
      </trkpt>
      <trkpt lat="41.903795" lon="12.50142667">
        <ele>118.111</ele>
        <time>1970-01-01T01:00:00Z</time>
      </trkpt>
      <trkpt lat="41.90377667" lon="12.50140167">
        <ele>118.111</ele>
        <time>1970-01-01T01:00:00Z</time>
      </trkpt>
      <trkpt lat="41.90375833" lon="12.501375">
        <ele>118.111</ele>
        <time>1970-01-01T01:00:00Z</time>
      </trkpt>
      <trkpt lat="41.90373833" lon="12.50135">
        <ele>118.111</ele>
        <time>1970-01-01T01:00:00Z</time>
      </trkpt>
      <trkpt lat="41.90371667" lon="12.50132667">
        <ele>118.111</ele>
        <time>1970-01-01T01:00:00Z</time>
      </trkpt>
      <trkpt lat="41.903695" lon="12.50130667">
        <ele>117.045</ele>
        <time>1970-01-01T01:00:00Z</time>
      </trkpt>
      <trkpt lat="41.90367167" lon="12.501285">
        <ele>117.045</ele>
        <time>1970-01-01T01:00:00Z</time>
      </trkpt>
      <trkpt lat="41.90364667" lon="12.501265">
        <ele>117.045</ele>
        <time>1970-01-01T01:00:00Z</time>
      </trkpt>
      <trkpt lat="41.90362167" lon="12.50124833">
        <ele>117.045</ele>
        <time>1970-01-01T01:00:00Z</time>
      </trkpt>
      <trkpt lat="41.903595" lon="12.50123">
        <ele>117.045</ele>
        <time>1970-01-01T01:00:00Z</time>
      </trkpt>
      <trkpt lat="41.90356833" lon="12.50121333">
        <ele>117.045</ele>
        <time>1970-01-01T01:00:00Z</time>
      </trkpt>
      <trkpt lat="41.90354333" lon="12.50119833">
        <ele>117.045</ele>
        <time>1970-01-01T01:00:00Z</time>
      </trkpt>
      <trkpt lat="41.90352" lon="12.50118333">
        <ele>117.045</ele>
        <time>1970-01-01T01:00:00Z</time>
      </trkpt>
      <trkpt lat="41.9035" lon="12.50117167">
        <ele>117.045</ele>
        <time>1970-01-01T01:00:00Z</time>
      </trkpt>
      <trkpt lat="41.90348" lon="12.50115833">
        <ele>117.045</ele>
        <time>1970-01-01T01:00:00Z</time>
      </trkpt>
      <trkpt lat="41.903465" lon="12.50114667">
        <ele>117.045</ele>
        <time>1970-01-01T01:00:00Z</time>
      </trkpt>
      <trkpt lat="41.903455" lon="12.50114">
        <ele>117.045</ele>
        <time>1970-01-01T01:00:00Z</time>
      </trkpt>
      <trkpt lat="41.90344833" lon="12.50113833">
        <ele>117.045</ele>
        <time>1970-01-01T01:00:00Z</time>
      </trkpt>
      <trkpt lat="41.90344167" lon="12.50113333">
        <ele>117.045</ele>
        <time>1970-01-01T01:00:00Z</time>
      </trkpt>
      <trkpt lat="41.90343333" lon="12.501125">
        <ele>117.045</ele>
        <time>1970-01-01T01:00:00Z</time>
      </trkpt>
      <trkpt lat="41.90342833" lon="12.50111333">
        <ele>117.045</ele>
        <time>1970-01-01T01:00:00Z</time>
      </trkpt>
      <trkpt lat="41.90343833" lon="12.50108667">
        <ele>117.045</ele>
        <time>1970-01-01T01:00:00Z</time>
      </trkpt>
      <trkpt lat="41.90345667" lon="12.50105667">
        <ele>117.045</ele>
        <time>1970-01-01T01:00:00Z</time>
      </trkpt>
      <trkpt lat="41.90347667" lon="12.50102167">
        <ele>117.045</ele>
        <time>1970-01-01T01:00:00Z</time>
      </trkpt>
      <trkpt lat="41.903495" lon="12.50099333">
        <ele>117.045</ele>
        <time>1970-01-01T01:00:00Z</time>
      </trkpt>
      <trkpt lat="41.903515" lon="12.50096667">
        <ele>116.13</ele>
        <time>1970-01-01T01:00:00Z</time>
      </trkpt>
      <trkpt lat="41.90353" lon="12.50094167">
        <ele>116.13</ele>
        <time>1970-01-01T01:00:00Z</time>
      </trkpt>
      <trkpt lat="41.90354167" lon="12.50091333">
        <ele>116.13</ele>
        <time>1970-01-01T01:00:00Z</time>
      </trkpt>
      <trkpt lat="41.903545" lon="12.500885">
        <ele>116.13</ele>
        <time>1970-01-01T01:00:00Z</time>
      </trkpt>
      <trkpt lat="41.90354667" lon="12.500855">
        <ele>116.13</ele>
        <time>1970-01-01T01:00:00Z</time>
      </trkpt>
      <trkpt lat="41.90354333" lon="12.50083167">
        <ele>116.13</ele>
        <time>1970-01-01T01:00:00Z</time>
      </trkpt>
      <trkpt lat="41.90353667" lon="12.50081167">
        <ele>116.13</ele>
        <time>1970-01-01T01:00:00Z</time>
      </trkpt>
      <trkpt lat="41.903525" lon="12.50079167">
        <ele>116.13</ele>
        <time>1970-01-01T01:00:00Z</time>
      </trkpt>
      <trkpt lat="41.90351" lon="12.50077333">
        <ele>116.13</ele>
        <time>1970-01-01T01:00:00Z</time>
      </trkpt>
      <trkpt lat="41.90349333" lon="12.50075167">
        <ele>116.13</ele>
        <time>1970-01-01T01:00:00Z</time>
      </trkpt>
      <trkpt lat="41.903475" lon="12.50073333">
        <ele>116.13</ele>
        <time>1970-01-01T01:00:00Z</time>
      </trkpt>
      <trkpt lat="41.90346" lon="12.50071167">
        <ele>116.13</ele>
        <time>1970-01-01T01:00:00Z</time>
      </trkpt>
      <trkpt lat="41.90344333" lon="12.50069167">
        <ele>115.063</ele>
        <time>1970-01-01T01:00:00Z</time>
      </trkpt>
      <trkpt lat="41.90343" lon="12.50067167">
        <ele>115.063</ele>
        <time>1970-01-01T01:00:00Z</time>
      </trkpt>
      <trkpt lat="41.90341667" lon="12.50065167">
        <ele>115.063</ele>
        <time>1970-01-01T01:00:00Z</time>
      </trkpt>
      <trkpt lat="41.90340333" lon="12.50062833">
        <ele>115.063</ele>
        <time>1970-01-01T01:00:00Z</time>
      </trkpt>
      <trkpt lat="41.90339" lon="12.500605">
        <ele>115.063</ele>
        <time>1970-01-01T01:00:00Z</time>
      </trkpt>
      <trkpt lat="41.90337667" lon="12.50058">
        <ele>115.063</ele>
        <time>1970-01-01T01:00:00Z</time>
      </trkpt>
      <trkpt lat="41.903365" lon="12.50055667">
        <ele>114.149</ele>
        <time>1970-01-01T01:00:00Z</time>
      </trkpt>
      <trkpt lat="41.90335167" lon="12.50053167">
        <ele>114.149</ele>
        <time>1970-01-01T01:00:00Z</time>
      </trkpt>
      <trkpt lat="41.90333667" lon="12.50050167">
        <ele>114.149</ele>
        <time>1970-01-01T01:00:00Z</time>
      </trkpt>
      <trkpt lat="41.90332333" lon="12.500475">
        <ele>114.149</ele>
        <time>1970-01-01T01:00:00Z</time>
      </trkpt>
      <trkpt lat="41.90330833" lon="12.50044833">
        <ele>114.149</ele>
        <time>1970-01-01T01:00:00Z</time>
      </trkpt>
      <trkpt lat="41.903295" lon="12.50042">
        <ele>114.149</ele>
        <time>1970-01-01T01:00:00Z</time>
      </trkpt>
      <trkpt lat="41.90328333" lon="12.500395">
        <ele>114.149</ele>
        <time>1970-01-01T01:00:00Z</time>
      </trkpt>
      <trkpt lat="41.90327167" lon="12.50036667">
        <ele>114.149</ele>
        <time>1970-01-01T01:00:00Z</time>
      </trkpt>
      <trkpt lat="41.90326167" lon="12.50034">
        <ele>112.015</ele>
        <time>1970-01-01T01:00:00Z</time>
      </trkpt>
      <trkpt lat="41.90325167" lon="12.50030833">
        <ele>112.015</ele>
        <time>1970-01-01T01:00:00Z</time>
      </trkpt>
      <trkpt lat="41.90324" lon="12.50028333">
        <ele>112.015</ele>
        <time>1970-01-01T01:00:00Z</time>
      </trkpt>
      <trkpt lat="41.90322833" lon="12.50025333">
        <ele>112.015</ele>
        <time>1970-01-01T01:00:00Z</time>
      </trkpt>
      <trkpt lat="41.90321667" lon="12.50022667">
        <ele>111.101</ele>
        <time>1970-01-01T01:00:00Z</time>
      </trkpt>
      <trkpt lat="41.90320167" lon="12.50019667">
        <ele>111.101</ele>
        <time>1970-01-01T01:00:00Z</time>
      </trkpt>
      <trkpt lat="41.90318667" lon="12.50017">
        <ele>110.034</ele>
        <time>1970-01-01T01:00:00Z</time>
      </trkpt>
      <trkpt lat="41.90317167" lon="12.500145">
        <ele>110.034</ele>
        <time>1970-01-01T01:00:00Z</time>
      </trkpt>
      <trkpt lat="41.90316" lon="12.50011833">
        <ele>110.034</ele>
        <time>1970-01-01T01:00:00Z</time>
      </trkpt>
      <trkpt lat="41.90314833" lon="12.50009167">
        <ele>110.034</ele>
        <time>1970-01-01T01:00:00Z</time>
      </trkpt>
      <trkpt lat="41.90313833" lon="12.50006667">
        <ele>110.034</ele>
        <time>1970-01-01T01:00:00Z</time>
      </trkpt>
      <trkpt lat="41.903125" lon="12.50004167">
        <ele>110.034</ele>
        <time>1970-01-01T01:00:00Z</time>
      </trkpt>
      <trkpt lat="41.90311333" lon="12.500015">
        <ele>110.034</ele>
        <time>1970-01-01T01:00:00Z</time>
      </trkpt>
      <trkpt lat="41.9031" lon="12.49998833">
        <ele>110.034</ele>
        <time>1970-01-01T01:00:00Z</time>
      </trkpt>
      <trkpt lat="41.903085" lon="12.49996">
        <ele>110.034</ele>
        <time>1970-01-01T01:00:00Z</time>
      </trkpt>
      <trkpt lat="41.90307" lon="12.49993167">
        <ele>110.034</ele>
        <time>1970-01-01T01:00:00Z</time>
      </trkpt>
      <trkpt lat="41.903055" lon="12.4999">
        <ele>110.034</ele>
        <time>1970-01-01T01:00:00Z</time>
      </trkpt>
      <trkpt lat="41.90303833" lon="12.49987167">
        <ele>110.034</ele>
        <time>1970-01-01T01:00:00Z</time>
      </trkpt>
      <trkpt lat="41.903025" lon="12.499845">
        <ele>109.12</ele>
        <time>1970-01-01T01:00:00Z</time>
      </trkpt>
      <trkpt lat="41.90301" lon="12.49982">
        <ele>109.12</ele>
        <time>1970-01-01T01:00:00Z</time>
      </trkpt>
      <trkpt lat="41.90299667" lon="12.49979167">
        <ele>108.053</ele>
        <time>1970-01-01T01:00:00Z</time>
      </trkpt>
      <trkpt lat="41.90298167" lon="12.49977">
        <ele>108.053</ele>
        <time>1970-01-01T01:00:00Z</time>
      </trkpt>
      <trkpt lat="41.90296833" lon="12.49975">
        <ele>108.053</ele>
        <time>1970-01-01T01:00:00Z</time>
      </trkpt>
      <trkpt lat="41.90295333" lon="12.49972833">
        <ele>108.053</ele>
        <time>1970-01-01T01:00:00Z</time>
      </trkpt>
      <trkpt lat="41.90294" lon="12.499705">
        <ele>108.053</ele>
        <time>1970-01-01T01:00:00Z</time>
      </trkpt>
      <trkpt lat="41.90292667" lon="12.49968333">
        <ele>108.053</ele>
        <time>1970-01-01T01:00:00Z</time>
      </trkpt>
      <trkpt lat="41.90291333" lon="12.49966">
        <ele>108.053</ele>
        <time>1970-01-01T01:00:00Z</time>
      </trkpt>
      <trkpt lat="41.9029" lon="12.49963667">
        <ele>108.053</ele>
        <time>1970-01-01T01:00:00Z</time>
      </trkpt>
      <trkpt lat="41.902885" lon="12.499615">
        <ele>108.053</ele>
        <time>1970-01-01T01:00:00Z</time>
      </trkpt>
      <trkpt lat="41.90287167" lon="12.49959167">
        <ele>108.053</ele>
        <time>1970-01-01T01:00:00Z</time>
      </trkpt>
      <trkpt lat="41.90285833" lon="12.49957167">
        <ele>108.053</ele>
        <time>1970-01-01T01:00:00Z</time>
      </trkpt>
      <trkpt lat="41.90284333" lon="12.49955">
        <ele>108.053</ele>
        <time>1970-01-01T01:00:00Z</time>
      </trkpt>
      <trkpt lat="41.90283" lon="12.49952833">
        <ele>106.072</ele>
        <time>1970-01-01T01:00:00Z</time>
      </trkpt>
      <trkpt lat="41.902815" lon="12.49950333">
        <ele>106.072</ele>
        <time>1970-01-01T01:00:00Z</time>
      </trkpt>
      <trkpt lat="41.90279833" lon="12.49948">
        <ele>105.157</ele>
        <time>1970-01-01T01:00:00Z</time>
      </trkpt>
      <trkpt lat="41.90278167" lon="12.49945333">
        <ele>105.157</ele>
        <time>1970-01-01T01:00:00Z</time>
      </trkpt>
      <trkpt lat="41.90276667" lon="12.499425">
        <ele>105.157</ele>
        <time>1970-01-01T01:00:00Z</time>
      </trkpt>
      <trkpt lat="41.90275167" lon="12.49939667">
        <ele>105.157</ele>
        <time>1970-01-01T01:00:00Z</time>
      </trkpt>
      <trkpt lat="41.902735" lon="12.49937333">
        <ele>105.157</ele>
        <time>1970-01-01T01:00:00Z</time>
      </trkpt>
      <trkpt lat="41.90271833" lon="12.49935167">
        <ele>105.157</ele>
        <time>1970-01-01T01:00:00Z</time>
      </trkpt>
      <trkpt lat="41.90270333" lon="12.49933167">
        <ele>105.157</ele>
        <time>1970-01-01T01:00:00Z</time>
      </trkpt>
      <trkpt lat="41.90268833" lon="12.499315">
        <ele>105.157</ele>
        <time>1970-01-01T01:00:00Z</time>
      </trkpt>
      <trkpt lat="41.902675" lon="12.49929">
        <ele>105.157</ele>
        <time>1970-01-01T01:00:00Z</time>
      </trkpt>
      <trkpt lat="41.90265833" lon="12.49926833">
        <ele>105.157</ele>
        <time>1970-01-01T01:00:00Z</time>
      </trkpt>
      <trkpt lat="41.90264167" lon="12.49925">
        <ele>104.09</ele>
        <time>1970-01-01T01:00:00Z</time>
      </trkpt>
      <trkpt lat="41.90262667" lon="12.49923">
        <ele>104.09</ele>
        <time>1970-01-01T01:00:00Z</time>
      </trkpt>
      <trkpt lat="41.90261" lon="12.49920667">
        <ele>104.09</ele>
        <time>1970-01-01T01:00:00Z</time>
      </trkpt>
      <trkpt lat="41.90259333" lon="12.499185">
        <ele>104.09</ele>
        <time>1970-01-01T01:00:00Z</time>
      </trkpt>
      <trkpt lat="41.90257667" lon="12.49915833">
        <ele>104.09</ele>
        <time>1970-01-01T01:00:00Z</time>
      </trkpt>
      <trkpt lat="41.90256" lon="12.49913167">
        <ele>104.09</ele>
        <time>1970-01-01T01:00:00Z</time>
      </trkpt>
      <trkpt lat="41.902545" lon="12.49910833">
        <ele>103.024</ele>
        <time>1970-01-01T01:00:00Z</time>
      </trkpt>
      <trkpt lat="41.90253167" lon="12.49908833">
        <ele>103.024</ele>
        <time>1970-01-01T01:00:00Z</time>
      </trkpt>
      <trkpt lat="41.902525" lon="12.49908">
        <ele>103.024</ele>
        <time>1970-01-01T01:00:00Z</time>
      </trkpt>
      <trkpt lat="41.90252333" lon="12.49907667">
        <ele>103.024</ele>
        <time>1970-01-01T01:00:00Z</time>
      </trkpt>
      <trkpt lat="41.90252333" lon="12.499075">
        <ele>103.024</ele>
        <time>1970-01-01T01:00:00Z</time>
      </trkpt>
      <trkpt lat="41.90252167" lon="12.499075">
        <ele>103.024</ele>
        <time>1970-01-01T01:00:00Z</time>
      </trkpt>
      <trkpt lat="41.90252" lon="12.49907333">
        <ele>103.024</ele>
        <time>1970-01-01T01:00:00Z</time>
      </trkpt>
      <trkpt lat="41.90251333" lon="12.49907833">
        <ele>103.024</ele>
        <time>1970-01-01T01:00:00Z</time>
      </trkpt>
      <trkpt lat="41.90250833" lon="12.499075">
        <ele>102.109</ele>
        <time>1970-01-01T01:00:00Z</time>
      </trkpt>
      <trkpt lat="41.902505" lon="12.49906167">
        <ele>102.109</ele>
        <time>1970-01-01T01:00:00Z</time>
      </trkpt>
      <trkpt lat="41.90250333" lon="12.49905">
        <ele>102.109</ele>
        <time>1970-01-01T01:00:00Z</time>
      </trkpt>
      <trkpt lat="41.90250167" lon="12.49903667">
        <ele>102.109</ele>
        <time>1970-01-01T01:00:00Z</time>
      </trkpt>
      <trkpt lat="41.9025" lon="12.49902333">
        <ele>102.109</ele>
        <time>1970-01-01T01:00:00Z</time>
      </trkpt>
      <trkpt lat="41.90249833" lon="12.49900667">
        <ele>102.109</ele>
        <time>1970-01-01T01:00:00Z</time>
      </trkpt>
      <trkpt lat="41.902495" lon="12.49899">
        <ele>102.109</ele>
        <time>1970-01-01T01:00:00Z</time>
      </trkpt>
      <trkpt lat="41.90248833" lon="12.49897">
        <ele>102.109</ele>
        <time>1970-01-01T01:00:00Z</time>
      </trkpt>
      <trkpt lat="41.90247833" lon="12.49895167">
        <ele>102.109</ele>
        <time>1970-01-01T01:00:00Z</time>
      </trkpt>
      <trkpt lat="41.902465" lon="12.49893333">
        <ele>102.109</ele>
        <time>1970-01-01T01:00:00Z</time>
      </trkpt>
      <trkpt lat="41.90245167" lon="12.498915">
        <ele>102.109</ele>
        <time>1970-01-01T01:00:00Z</time>
      </trkpt>
      <trkpt lat="41.90243667" lon="12.49889833">
        <ele>102.109</ele>
        <time>1970-01-01T01:00:00Z</time>
      </trkpt>
      <trkpt lat="41.90242167" lon="12.49887833">
        <ele>102.109</ele>
        <time>1970-01-01T01:00:00Z</time>
      </trkpt>
      <trkpt lat="41.90241" lon="12.49886167">
        <ele>102.109</ele>
        <time>1970-01-01T01:00:00Z</time>
      </trkpt>
      <trkpt lat="41.90239667" lon="12.498845">
        <ele>102.109</ele>
        <time>1970-01-01T01:00:00Z</time>
      </trkpt>
      <trkpt lat="41.90237833" lon="12.49882333">
        <ele>102.109</ele>
        <time>1970-01-01T01:00:00Z</time>
      </trkpt>
      <trkpt lat="41.90236167" lon="12.49880167">
        <ele>102.109</ele>
        <time>1970-01-01T01:00:00Z</time>
      </trkpt>
      <trkpt lat="41.90234833" lon="12.498775">
        <ele>102.109</ele>
        <time>1970-01-01T01:00:00Z</time>
      </trkpt>
      <trkpt lat="41.90233333" lon="12.49874667">
        <ele>102.109</ele>
        <time>1970-01-01T01:00:00Z</time>
      </trkpt>
      <trkpt lat="41.90232167" lon="12.49871833">
        <ele>102.109</ele>
        <time>1970-01-01T01:00:00Z</time>
      </trkpt>
      <trkpt lat="41.90231" lon="12.49869">
        <ele>102.109</ele>
        <time>1970-01-01T01:00:00Z</time>
      </trkpt>
      <trkpt lat="41.9023" lon="12.49865667">
        <ele>102.109</ele>
        <time>1970-01-01T01:00:00Z</time>
      </trkpt>
      <trkpt lat="41.90229167" lon="12.498625">
        <ele>102.109</ele>
        <time>1970-01-01T01:00:00Z</time>
      </trkpt>
      <trkpt lat="41.902285" lon="12.49859167">
        <ele>102.109</ele>
        <time>1970-01-01T01:00:00Z</time>
      </trkpt>
      <trkpt lat="41.90227833" lon="12.49855667">
        <ele>102.109</ele>
        <time>1970-01-01T01:00:00Z</time>
      </trkpt>
      <trkpt lat="41.902275" lon="12.49852">
        <ele>102.109</ele>
        <time>1970-01-01T01:00:00Z</time>
      </trkpt>
      <trkpt lat="41.90227833" lon="12.49848667">
        <ele>102.109</ele>
        <time>1970-01-01T01:00:00Z</time>
      </trkpt>
      <trkpt lat="41.902285" lon="12.49845333">
        <ele>102.109</ele>
        <time>1970-01-01T01:00:00Z</time>
      </trkpt>
      <trkpt lat="41.90229167" lon="12.49842167">
        <ele>102.109</ele>
        <time>1970-01-01T01:00:00Z</time>
      </trkpt>
      <trkpt lat="41.90229667" lon="12.49839167">
        <ele>102.109</ele>
        <time>1970-01-01T01:00:00Z</time>
      </trkpt>
      <trkpt lat="41.90230333" lon="12.498365">
        <ele>99.061</ele>
        <time>1970-01-01T01:00:00Z</time>
      </trkpt>
      <trkpt lat="41.90230833" lon="12.49833667">
        <ele>99.061</ele>
        <time>1970-01-01T01:00:00Z</time>
      </trkpt>
      <trkpt lat="41.90231833" lon="12.49830333">
        <ele>99.061</ele>
        <time>1970-01-01T01:00:00Z</time>
      </trkpt>
      <trkpt lat="41.902325" lon="12.49827">
        <ele>99.061</ele>
        <time>1970-01-01T01:00:00Z</time>
      </trkpt>
      <trkpt lat="41.90233333" lon="12.49823333">
        <ele>99.061</ele>
        <time>1970-01-01T01:00:00Z</time>
      </trkpt>
      <trkpt lat="41.90234333" lon="12.49819833">
        <ele>99.061</ele>
        <time>1970-01-01T01:00:00Z</time>
      </trkpt>
      <trkpt lat="41.90235333" lon="12.49816167">
        <ele>99.061</ele>
        <time>1970-01-01T01:00:00Z</time>
      </trkpt>
      <trkpt lat="41.90236333" lon="12.498125">
        <ele>99.061</ele>
        <time>1970-01-01T01:00:00Z</time>
      </trkpt>
      <trkpt lat="41.90237167" lon="12.49809333">
        <ele>98.147</ele>
        <time>1970-01-01T01:00:00Z</time>
      </trkpt>
      <trkpt lat="41.90238" lon="12.49806">
        <ele>98.147</ele>
        <time>1970-01-01T01:00:00Z</time>
      </trkpt>
      <trkpt lat="41.90238833" lon="12.49802667">
        <ele>98.147</ele>
        <time>1970-01-01T01:00:00Z</time>
      </trkpt>
      <trkpt lat="41.90239833" lon="12.49799333">
        <ele>98.147</ele>
        <time>1970-01-01T01:00:00Z</time>
      </trkpt>
      <trkpt lat="41.902405" lon="12.49796333">
        <ele>97.08</ele>
        <time>1970-01-01T01:00:00Z</time>
      </trkpt>
      <trkpt lat="41.90241333" lon="12.49793167">
        <ele>97.08</ele>
        <time>1970-01-01T01:00:00Z</time>
      </trkpt>
      <trkpt lat="41.90242" lon="12.497905">
        <ele>97.08</ele>
        <time>1970-01-01T01:00:00Z</time>
      </trkpt>
      <trkpt lat="41.90242833" lon="12.49787833">
        <ele>97.08</ele>
        <time>1970-01-01T01:00:00Z</time>
      </trkpt>
      <trkpt lat="41.90243667" lon="12.49784833">
        <ele>96.166</ele>
        <time>1970-01-01T01:00:00Z</time>
      </trkpt>
      <trkpt lat="41.90244167" lon="12.49782167">
        <ele>96.166</ele>
        <time>1970-01-01T01:00:00Z</time>
      </trkpt>
      <trkpt lat="41.90244833" lon="12.497795">
        <ele>96.166</ele>
        <time>1970-01-01T01:00:00Z</time>
      </trkpt>
      <trkpt lat="41.90245333" lon="12.497765">
        <ele>96.166</ele>
        <time>1970-01-01T01:00:00Z</time>
      </trkpt>
      <trkpt lat="41.90245833" lon="12.497735">
        <ele>96.166</ele>
        <time>1970-01-01T01:00:00Z</time>
      </trkpt>
      <trkpt lat="41.90246667" lon="12.49770667">
        <ele>96.166</ele>
        <time>1970-01-01T01:00:00Z</time>
      </trkpt>
      <trkpt lat="41.90247833" lon="12.49768">
        <ele>95.099</ele>
        <time>1970-01-01T01:00:00Z</time>
      </trkpt>
      <trkpt lat="41.90249" lon="12.49765333">
        <ele>95.099</ele>
        <time>1970-01-01T01:00:00Z</time>
      </trkpt>
      <trkpt lat="41.9025" lon="12.49762333">
        <ele>95.099</ele>
        <time>1970-01-01T01:00:00Z</time>
      </trkpt>
      <trkpt lat="41.90251" lon="12.49759">
        <ele>95.099</ele>
        <time>1970-01-01T01:00:00Z</time>
      </trkpt>
      <trkpt lat="41.90252" lon="12.49755833">
        <ele>95.099</ele>
        <time>1970-01-01T01:00:00Z</time>
      </trkpt>
      <trkpt lat="41.90252667" lon="12.49753">
        <ele>95.099</ele>
        <time>1970-01-01T01:00:00Z</time>
      </trkpt>
      <trkpt lat="41.90253333" lon="12.49750167">
        <ele>94.032</ele>
        <time>1970-01-01T01:00:00Z</time>
      </trkpt>
      <trkpt lat="41.90254167" lon="12.49747333">
        <ele>94.032</ele>
        <time>1970-01-01T01:00:00Z</time>
      </trkpt>
      <trkpt lat="41.90255167" lon="12.49744667">
        <ele>94.032</ele>
        <time>1970-01-01T01:00:00Z</time>
      </trkpt>
      <trkpt lat="41.90256" lon="12.49742">
        <ele>94.032</ele>
        <time>1970-01-01T01:00:00Z</time>
      </trkpt>
      <trkpt lat="41.90257" lon="12.49739833">
        <ele>93.118</ele>
        <time>1970-01-01T01:00:00Z</time>
      </trkpt>
      <trkpt lat="41.90257833" lon="12.49737167">
        <ele>93.118</ele>
        <time>1970-01-01T01:00:00Z</time>
      </trkpt>
      <trkpt lat="41.90258667" lon="12.49734333">
        <ele>93.118</ele>
        <time>1970-01-01T01:00:00Z</time>
      </trkpt>
      <trkpt lat="41.90259667" lon="12.49731167">
        <ele>93.118</ele>
        <time>1970-01-01T01:00:00Z</time>
      </trkpt>
      <trkpt lat="41.90260667" lon="12.49728">
        <ele>92.051</ele>
        <time>1970-01-01T01:00:00Z</time>
      </trkpt>
      <trkpt lat="41.90261667" lon="12.49724667">
        <ele>92.051</ele>
        <time>1970-01-01T01:00:00Z</time>
      </trkpt>
      <trkpt lat="41.90262333" lon="12.497215">
        <ele>92.051</ele>
        <time>1970-01-01T01:00:00Z</time>
      </trkpt>
      <trkpt lat="41.90263167" lon="12.49718">
        <ele>92.051</ele>
        <time>1970-01-01T01:00:00Z</time>
      </trkpt>
      <trkpt lat="41.90263833" lon="12.497145">
        <ele>92.051</ele>
        <time>1970-01-01T01:00:00Z</time>
      </trkpt>
      <trkpt lat="41.90264833" lon="12.49711167">
        <ele>92.051</ele>
        <time>1970-01-01T01:00:00Z</time>
      </trkpt>
      <trkpt lat="41.90266" lon="12.49708333">
        <ele>92.051</ele>
        <time>1970-01-01T01:00:00Z</time>
      </trkpt>
      <trkpt lat="41.90267667" lon="12.49705667">
        <ele>92.051</ele>
        <time>1970-01-01T01:00:00Z</time>
      </trkpt>
      <trkpt lat="41.90269167" lon="12.49703167">
        <ele>92.051</ele>
        <time>1970-01-01T01:00:00Z</time>
      </trkpt>
      <trkpt lat="41.90271" lon="12.497005">
        <ele>92.051</ele>
        <time>1970-01-01T01:00:00Z</time>
      </trkpt>
      <trkpt lat="41.90272667" lon="12.49698167">
        <ele>91.136</ele>
        <time>1970-01-01T01:00:00Z</time>
      </trkpt>
      <trkpt lat="41.902745" lon="12.49695667">
        <ele>91.136</ele>
        <time>1970-01-01T01:00:00Z</time>
      </trkpt>
      <trkpt lat="41.90276167" lon="12.496935">
        <ele>91.136</ele>
        <time>1970-01-01T01:00:00Z</time>
      </trkpt>
      <trkpt lat="41.902775" lon="12.49691">
        <ele>91.136</ele>
        <time>1970-01-01T01:00:00Z</time>
      </trkpt>
      <trkpt lat="41.90279167" lon="12.49688667">
        <ele>90.069</ele>
        <time>1970-01-01T01:00:00Z</time>
      </trkpt>
      <trkpt lat="41.90281" lon="12.49686667">
        <ele>90.069</ele>
        <time>1970-01-01T01:00:00Z</time>
      </trkpt>
      <trkpt lat="41.90283" lon="12.496845">
        <ele>90.069</ele>
        <time>1970-01-01T01:00:00Z</time>
      </trkpt>
      <trkpt lat="41.90284667" lon="12.496825">
        <ele>90.069</ele>
        <time>1970-01-01T01:00:00Z</time>
      </trkpt>
      <trkpt lat="41.90286667" lon="12.496805">
        <ele>90.069</ele>
        <time>1970-01-01T01:00:00Z</time>
      </trkpt>
      <trkpt lat="41.902885" lon="12.49678333">
        <ele>90.069</ele>
        <time>1970-01-01T01:00:00Z</time>
      </trkpt>
      <trkpt lat="41.902905" lon="12.49676167">
        <ele>90.069</ele>
        <time>1970-01-01T01:00:00Z</time>
      </trkpt>
      <trkpt lat="41.90292333" lon="12.49674">
        <ele>90.069</ele>
        <time>1970-01-01T01:00:00Z</time>
      </trkpt>
      <trkpt lat="41.90294167" lon="12.49671667">
        <ele>89.155</ele>
        <time>1970-01-01T01:00:00Z</time>
      </trkpt>
      <trkpt lat="41.90296" lon="12.496695">
        <ele>89.155</ele>
        <time>1970-01-01T01:00:00Z</time>
      </trkpt>
      <trkpt lat="41.90298167" lon="12.49667167">
        <ele>89.155</ele>
        <time>1970-01-01T01:00:00Z</time>
      </trkpt>
      <trkpt lat="41.903" lon="12.49665333">
        <ele>89.155</ele>
        <time>1970-01-01T01:00:00Z</time>
      </trkpt>
      <trkpt lat="41.90301667" lon="12.49663333">
        <ele>89.155</ele>
        <time>1970-01-01T01:00:00Z</time>
      </trkpt>
      <trkpt lat="41.90303333" lon="12.49661167">
        <ele>89.155</ele>
        <time>1970-01-01T01:00:00Z</time>
      </trkpt>
      <trkpt lat="41.90305333" lon="12.49659167">
        <ele>89.155</ele>
        <time>1970-01-01T01:00:00Z</time>
      </trkpt>
      <trkpt lat="41.90307333" lon="12.49657333">
        <ele>89.155</ele>
        <time>1970-01-01T01:00:00Z</time>
      </trkpt>
      <trkpt lat="41.90309167" lon="12.496555">
        <ele>89.155</ele>
        <time>1970-01-01T01:00:00Z</time>
      </trkpt>
      <trkpt lat="41.90311" lon="12.496535">
        <ele>89.155</ele>
        <time>1970-01-01T01:00:00Z</time>
      </trkpt>
      <trkpt lat="41.90313" lon="12.496515">
        <ele>89.155</ele>
        <time>1970-01-01T01:00:00Z</time>
      </trkpt>
      <trkpt lat="41.90314833" lon="12.496495">
        <ele>89.155</ele>
        <time>1970-01-01T01:00:00Z</time>
      </trkpt>
      <trkpt lat="41.903165" lon="12.49647833">
        <ele>89.155</ele>
        <time>1970-01-01T01:00:00Z</time>
      </trkpt>
      <trkpt lat="41.90318167" lon="12.49645833">
        <ele>89.155</ele>
        <time>1970-01-01T01:00:00Z</time>
      </trkpt>
      <trkpt lat="41.90319833" lon="12.49644167">
        <ele>89.155</ele>
        <time>1970-01-01T01:00:00Z</time>
      </trkpt>
      <trkpt lat="41.90321" lon="12.49642833">
        <ele>89.155</ele>
        <time>1970-01-01T01:00:00Z</time>
      </trkpt>
      <trkpt lat="41.903225" lon="12.496415">
        <ele>89.155</ele>
        <time>1970-01-01T01:00:00Z</time>
      </trkpt>
      <trkpt lat="41.90324167" lon="12.49640167">
        <ele>89.155</ele>
        <time>1970-01-01T01:00:00Z</time>
      </trkpt>
      <trkpt lat="41.90326" lon="12.49638667">
        <ele>89.155</ele>
        <time>1970-01-01T01:00:00Z</time>
      </trkpt>
      <trkpt lat="41.903275" lon="12.49637333">
        <ele>89.155</ele>
        <time>1970-01-01T01:00:00Z</time>
      </trkpt>
      <trkpt lat="41.90329" lon="12.49636">
        <ele>89.155</ele>
        <time>1970-01-01T01:00:00Z</time>
      </trkpt>
      <trkpt lat="41.90330167" lon="12.496345">
        <ele>89.155</ele>
        <time>1970-01-01T01:00:00Z</time>
      </trkpt>
      <trkpt lat="41.90331167" lon="12.49633167">
        <ele>89.155</ele>
        <time>1970-01-01T01:00:00Z</time>
      </trkpt>
      <trkpt lat="41.90331833" lon="12.49631667">
        <ele>89.155</ele>
        <time>1970-01-01T01:00:00Z</time>
      </trkpt>
      <trkpt lat="41.90332167" lon="12.496305">
        <ele>88.088</ele>
        <time>1970-01-01T01:00:00Z</time>
      </trkpt>
      <trkpt lat="41.90332" lon="12.496295">
        <ele>88.088</ele>
        <time>1970-01-01T01:00:00Z</time>
      </trkpt>
      <trkpt lat="41.90332" lon="12.496285">
        <ele>88.088</ele>
        <time>1970-01-01T01:00:00Z</time>
      </trkpt>
      <trkpt lat="41.90331833" lon="12.49627333">
        <ele>88.088</ele>
        <time>1970-01-01T01:00:00Z</time>
      </trkpt>
      <trkpt lat="41.903315" lon="12.49626">
        <ele>88.088</ele>
        <time>1970-01-01T01:00:00Z</time>
      </trkpt>
      <trkpt lat="41.90330667" lon="12.49623833">
        <ele>88.088</ele>
        <time>1970-01-01T01:00:00Z</time>
      </trkpt>
      <trkpt lat="41.9033" lon="12.49621">
        <ele>88.088</ele>
        <time>1970-01-01T01:00:00Z</time>
      </trkpt>
      <trkpt lat="41.90329667" lon="12.49617667">
        <ele>88.088</ele>
        <time>1970-01-01T01:00:00Z</time>
      </trkpt>
      <trkpt lat="41.90329167" lon="12.496145">
        <ele>88.088</ele>
        <time>1970-01-01T01:00:00Z</time>
      </trkpt>
      <trkpt lat="41.903285" lon="12.49611167">
        <ele>88.088</ele>
        <time>1970-01-01T01:00:00Z</time>
      </trkpt>
      <trkpt lat="41.90327333" lon="12.49608">
        <ele>88.088</ele>
        <time>1970-01-01T01:00:00Z</time>
      </trkpt>
      <trkpt lat="41.90326333" lon="12.49605">
        <ele>88.088</ele>
        <time>1970-01-01T01:00:00Z</time>
      </trkpt>
      <trkpt lat="41.90325333" lon="12.496015">
        <ele>88.088</ele>
        <time>1970-01-01T01:00:00Z</time>
      </trkpt>
      <trkpt lat="41.90324167" lon="12.495985">
        <ele>88.088</ele>
        <time>1970-01-01T01:00:00Z</time>
      </trkpt>
      <trkpt lat="41.90323167" lon="12.49595333">
        <ele>87.021</ele>
        <time>1970-01-01T01:00:00Z</time>
      </trkpt>
      <trkpt lat="41.90322167" lon="12.49592167">
        <ele>87.021</ele>
        <time>1970-01-01T01:00:00Z</time>
      </trkpt>
      <trkpt lat="41.90321" lon="12.49589167">
        <ele>87.021</ele>
        <time>1970-01-01T01:00:00Z</time>
      </trkpt>
      <trkpt lat="41.90319667" lon="12.495865">
        <ele>87.021</ele>
        <time>1970-01-01T01:00:00Z</time>
      </trkpt>
      <trkpt lat="41.90318667" lon="12.495835">
        <ele>87.021</ele>
        <time>1970-01-01T01:00:00Z</time>
      </trkpt>
      <trkpt lat="41.90318" lon="12.49580167">
        <ele>87.021</ele>
        <time>1970-01-01T01:00:00Z</time>
      </trkpt>
      <trkpt lat="41.903175" lon="12.495765">
        <ele>87.021</ele>
        <time>1970-01-01T01:00:00Z</time>
      </trkpt>
      <trkpt lat="41.90317" lon="12.49572833">
        <ele>87.021</ele>
        <time>1970-01-01T01:00:00Z</time>
      </trkpt>
      <trkpt lat="41.90316833" lon="12.49569333">
        <ele>87.021</ele>
        <time>1970-01-01T01:00:00Z</time>
      </trkpt>
      <trkpt lat="41.90317" lon="12.49566">
        <ele>87.021</ele>
        <time>1970-01-01T01:00:00Z</time>
      </trkpt>
      <trkpt lat="41.90317667" lon="12.49563167">
        <ele>86.107</ele>
        <time>1970-01-01T01:00:00Z</time>
      </trkpt>
      <trkpt lat="41.903185" lon="12.49560667">
        <ele>86.107</ele>
        <time>1970-01-01T01:00:00Z</time>
      </trkpt>
      <trkpt lat="41.90319667" lon="12.49558667">
        <ele>86.107</ele>
        <time>1970-01-01T01:00:00Z</time>
      </trkpt>
      <trkpt lat="41.90320667" lon="12.49556833">
        <ele>86.107</ele>
        <time>1970-01-01T01:00:00Z</time>
      </trkpt>
      <trkpt lat="41.90321667" lon="12.49554833">
        <ele>85.04</ele>
        <time>1970-01-01T01:00:00Z</time>
      </trkpt>
      <trkpt lat="41.903225" lon="12.49552833">
        <ele>85.04</ele>
        <time>1970-01-01T01:00:00Z</time>
      </trkpt>
      <trkpt lat="41.90323667" lon="12.49550667">
        <ele>85.04</ele>
        <time>1970-01-01T01:00:00Z</time>
      </trkpt>
      <trkpt lat="41.90325" lon="12.49548667">
        <ele>85.04</ele>
        <time>1970-01-01T01:00:00Z</time>
      </trkpt>
      <trkpt lat="41.903265" lon="12.495465">
        <ele>85.04</ele>
        <time>1970-01-01T01:00:00Z</time>
      </trkpt>
      <trkpt lat="41.90328167" lon="12.49544167">
        <ele>85.04</ele>
        <time>1970-01-01T01:00:00Z</time>
      </trkpt>
      <trkpt lat="41.90330167" lon="12.495415">
        <ele>85.04</ele>
        <time>1970-01-01T01:00:00Z</time>
      </trkpt>
      <trkpt lat="41.90332167" lon="12.49539167">
        <ele>85.04</ele>
        <time>1970-01-01T01:00:00Z</time>
      </trkpt>
      <trkpt lat="41.90334333" lon="12.49537">
        <ele>85.04</ele>
        <time>1970-01-01T01:00:00Z</time>
      </trkpt>
      <trkpt lat="41.90336667" lon="12.49534833">
        <ele>85.04</ele>
        <time>1970-01-01T01:00:00Z</time>
      </trkpt>
      <trkpt lat="41.90338833" lon="12.49532833">
        <ele>84.126</ele>
        <time>1970-01-01T01:00:00Z</time>
      </trkpt>
      <trkpt lat="41.90341333" lon="12.49531167">
        <ele>84.126</ele>
        <time>1970-01-01T01:00:00Z</time>
      </trkpt>
      <trkpt lat="41.90344" lon="12.495295">
        <ele>84.126</ele>
        <time>1970-01-01T01:00:00Z</time>
      </trkpt>
      <trkpt lat="41.90346667" lon="12.49528333">
        <ele>84.126</ele>
        <time>1970-01-01T01:00:00Z</time>
      </trkpt>
      <trkpt lat="41.90349" lon="12.49527">
        <ele>84.126</ele>
        <time>1970-01-01T01:00:00Z</time>
      </trkpt>
      <trkpt lat="41.90351167" lon="12.49525667">
        <ele>84.126</ele>
        <time>1970-01-01T01:00:00Z</time>
      </trkpt>
      <trkpt lat="41.90353333" lon="12.49524">
        <ele>84.126</ele>
        <time>1970-01-01T01:00:00Z</time>
      </trkpt>
      <trkpt lat="41.90355667" lon="12.49522333">
        <ele>84.126</ele>
        <time>1970-01-01T01:00:00Z</time>
      </trkpt>
      <trkpt lat="41.90358333" lon="12.495205">
        <ele>84.126</ele>
        <time>1970-01-01T01:00:00Z</time>
      </trkpt>
      <trkpt lat="41.90360833" lon="12.49518667">
        <ele>84.126</ele>
        <time>1970-01-01T01:00:00Z</time>
      </trkpt>
      <trkpt lat="41.90363167" lon="12.495165">
        <ele>84.126</ele>
        <time>1970-01-01T01:00:00Z</time>
      </trkpt>
      <trkpt lat="41.90365167" lon="12.49514333">
        <ele>84.126</ele>
        <time>1970-01-01T01:00:00Z</time>
      </trkpt>
      <trkpt lat="41.90367167" lon="12.495125">
        <ele>84.126</ele>
        <time>1970-01-01T01:00:00Z</time>
      </trkpt>
      <trkpt lat="41.90369333" lon="12.49511">
        <ele>84.126</ele>
        <time>1970-01-01T01:00:00Z</time>
      </trkpt>
      <trkpt lat="41.90371667" lon="12.49509333">
        <ele>84.126</ele>
        <time>1970-01-01T01:00:00Z</time>
      </trkpt>
      <trkpt lat="41.90374" lon="12.495075">
        <ele>84.126</ele>
        <time>1970-01-01T01:00:00Z</time>
      </trkpt>
      <trkpt lat="41.90376167" lon="12.49505833">
        <ele>84.126</ele>
        <time>1970-01-01T01:00:00Z</time>
      </trkpt>
      <trkpt lat="41.90378333" lon="12.49504">
        <ele>84.126</ele>
        <time>1970-01-01T01:00:00Z</time>
      </trkpt>
      <trkpt lat="41.90380167" lon="12.49502167">
        <ele>84.126</ele>
        <time>1970-01-01T01:00:00Z</time>
      </trkpt>
      <trkpt lat="41.90381833" lon="12.495005">
        <ele>84.126</ele>
        <time>1970-01-01T01:00:00Z</time>
      </trkpt>
      <trkpt lat="41.903835" lon="12.49499">
        <ele>84.126</ele>
        <time>1970-01-01T01:00:00Z</time>
      </trkpt>
      <trkpt lat="41.903855" lon="12.49497833">
        <ele>84.126</ele>
        <time>1970-01-01T01:00:00Z</time>
      </trkpt>
      <trkpt lat="41.90387167" lon="12.49496833">
        <ele>84.126</ele>
        <time>1970-01-01T01:00:00Z</time>
      </trkpt>
      <trkpt lat="41.90388667" lon="12.494955">
        <ele>84.126</ele>
        <time>1970-01-01T01:00:00Z</time>
      </trkpt>
      <trkpt lat="41.90390167" lon="12.49493833">
        <ele>85.04</ele>
        <time>1970-01-01T01:00:00Z</time>
      </trkpt>
      <trkpt lat="41.903915" lon="12.494925">
        <ele>85.04</ele>
        <time>1970-01-01T01:00:00Z</time>
      </trkpt>
      <trkpt lat="41.90392667" lon="12.49491667">
        <ele>85.04</ele>
        <time>1970-01-01T01:00:00Z</time>
      </trkpt>
      <trkpt lat="41.90393667" lon="12.49490833">
        <ele>85.04</ele>
        <time>1970-01-01T01:00:00Z</time>
      </trkpt>
      <trkpt lat="41.90394667" lon="12.49490333">
        <ele>85.04</ele>
        <time>1970-01-01T01:00:00Z</time>
      </trkpt>
      <trkpt lat="41.90395667" lon="12.49489667">
        <ele>85.04</ele>
        <time>1970-01-01T01:00:00Z</time>
      </trkpt>
      <trkpt lat="41.90396833" lon="12.49489167">
        <ele>85.04</ele>
        <time>1970-01-01T01:00:00Z</time>
      </trkpt>
      <trkpt lat="41.90398167" lon="12.49488333">
        <ele>85.04</ele>
        <time>1970-01-01T01:00:00Z</time>
      </trkpt>
      <trkpt lat="41.90399667" lon="12.49487">
        <ele>85.04</ele>
        <time>1970-01-01T01:00:00Z</time>
      </trkpt>
      <trkpt lat="41.90401333" lon="12.49485667">
        <ele>85.04</ele>
        <time>1970-01-01T01:00:00Z</time>
      </trkpt>
      <trkpt lat="41.90402833" lon="12.49484167">
        <ele>85.04</ele>
        <time>1970-01-01T01:00:00Z</time>
      </trkpt>
      <trkpt lat="41.904045" lon="12.49482667">
        <ele>85.04</ele>
        <time>1970-01-01T01:00:00Z</time>
      </trkpt>
      <trkpt lat="41.90406" lon="12.49481">
        <ele>85.04</ele>
        <time>1970-01-01T01:00:00Z</time>
      </trkpt>
      <trkpt lat="41.904075" lon="12.49479">
        <ele>85.04</ele>
        <time>1970-01-01T01:00:00Z</time>
      </trkpt>
      <trkpt lat="41.90409333" lon="12.494765">
        <ele>84.126</ele>
        <time>1970-01-01T01:00:00Z</time>
      </trkpt>
      <trkpt lat="41.90411167" lon="12.49473667">
        <ele>84.126</ele>
        <time>1970-01-01T01:00:00Z</time>
      </trkpt>
      <trkpt lat="41.90412833" lon="12.494705">
        <ele>84.126</ele>
        <time>1970-01-01T01:00:00Z</time>
      </trkpt>
      <trkpt lat="41.904145" lon="12.49467167">
        <ele>84.126</ele>
        <time>1970-01-01T01:00:00Z</time>
      </trkpt>
      <trkpt lat="41.90416" lon="12.49464167">
        <ele>84.126</ele>
        <time>1970-01-01T01:00:00Z</time>
      </trkpt>
      <trkpt lat="41.90417667" lon="12.49461333">
        <ele>84.126</ele>
        <time>1970-01-01T01:00:00Z</time>
      </trkpt>
      <trkpt lat="41.90419833" lon="12.49459">
        <ele>85.04</ele>
        <time>1970-01-01T01:00:00Z</time>
      </trkpt>
      <trkpt lat="41.90422667" lon="12.49456333">
        <ele>85.04</ele>
        <time>1970-01-01T01:00:00Z</time>
      </trkpt>
      <trkpt lat="41.904255" lon="12.49453833">
        <ele>85.04</ele>
        <time>1970-01-01T01:00:00Z</time>
      </trkpt>
      <trkpt lat="41.90428" lon="12.49451167">
        <ele>85.04</ele>
        <time>1970-01-01T01:00:00Z</time>
      </trkpt>
      <trkpt lat="41.90429333" lon="12.49448333">
        <ele>85.04</ele>
        <time>1970-01-01T01:00:00Z</time>
      </trkpt>
      <trkpt lat="41.90429667" lon="12.49444833">
        <ele>85.04</ele>
        <time>1970-01-01T01:00:00Z</time>
      </trkpt>
      <trkpt lat="41.90429833" lon="12.49441833">
        <ele>85.04</ele>
        <time>1970-01-01T01:00:00Z</time>
      </trkpt>
      <trkpt lat="41.90430167" lon="12.49439">
        <ele>85.04</ele>
        <time>1970-01-01T01:00:00Z</time>
      </trkpt>
      <trkpt lat="41.90430667" lon="12.49436">
        <ele>85.04</ele>
        <time>1970-01-01T01:00:00Z</time>
      </trkpt>
      <trkpt lat="41.90431167" lon="12.49433333">
        <ele>85.04</ele>
        <time>1970-01-01T01:00:00Z</time>
      </trkpt>
      <trkpt lat="41.90431833" lon="12.49430667">
        <ele>85.04</ele>
        <time>1970-01-01T01:00:00Z</time>
      </trkpt>
      <trkpt lat="41.90432667" lon="12.49428">
        <ele>85.04</ele>
        <time>1970-01-01T01:00:00Z</time>
      </trkpt>
      <trkpt lat="41.904335" lon="12.49425333">
        <ele>85.04</ele>
        <time>1970-01-01T01:00:00Z</time>
      </trkpt>
      <trkpt lat="41.90434333" lon="12.49422667">
        <ele>85.04</ele>
        <time>1970-01-01T01:00:00Z</time>
      </trkpt>
      <trkpt lat="41.90435167" lon="12.49419833">
        <ele>85.04</ele>
        <time>1970-01-01T01:00:00Z</time>
      </trkpt>
      <trkpt lat="41.90436" lon="12.49417">
        <ele>85.04</ele>
        <time>1970-01-01T01:00:00Z</time>
      </trkpt>
      <trkpt lat="41.90436833" lon="12.49414167">
        <ele>85.04</ele>
        <time>1970-01-01T01:00:00Z</time>
      </trkpt>
      <trkpt lat="41.904375" lon="12.49411">
        <ele>85.04</ele>
        <time>1970-01-01T01:00:00Z</time>
      </trkpt>
      <trkpt lat="41.90438167" lon="12.49407667">
        <ele>84.126</ele>
        <time>1970-01-01T01:00:00Z</time>
      </trkpt>
      <trkpt lat="41.90439" lon="12.49404833">
        <ele>84.126</ele>
        <time>1970-01-01T01:00:00Z</time>
      </trkpt>
      <trkpt lat="41.9044" lon="12.49402167">
        <ele>84.126</ele>
        <time>1970-01-01T01:00:00Z</time>
      </trkpt>
      <trkpt lat="41.90441167" lon="12.49399167">
        <ele>84.126</ele>
        <time>1970-01-01T01:00:00Z</time>
      </trkpt>
      <trkpt lat="41.90442333" lon="12.493965">
        <ele>84.126</ele>
        <time>1970-01-01T01:00:00Z</time>
      </trkpt>
      <trkpt lat="41.90443667" lon="12.49394167">
        <ele>84.126</ele>
        <time>1970-01-01T01:00:00Z</time>
      </trkpt>
      <trkpt lat="41.90445" lon="12.49392167">
        <ele>84.126</ele>
        <time>1970-01-01T01:00:00Z</time>
      </trkpt>
      <trkpt lat="41.90446667" lon="12.4939">
        <ele>84.126</ele>
        <time>1970-01-01T01:00:00Z</time>
      </trkpt>
      <trkpt lat="41.904485" lon="12.49388">
        <ele>83.059</ele>
        <time>1970-01-01T01:00:00Z</time>
      </trkpt>
      <trkpt lat="41.904505" lon="12.49386">
        <ele>83.059</ele>
        <time>1970-01-01T01:00:00Z</time>
      </trkpt>
      <trkpt lat="41.904525" lon="12.49384">
        <ele>83.059</ele>
        <time>1970-01-01T01:00:00Z</time>
      </trkpt>
      <trkpt lat="41.90454333" lon="12.49382">
        <ele>83.059</ele>
        <time>1970-01-01T01:00:00Z</time>
      </trkpt>
      <trkpt lat="41.90456333" lon="12.49380167">
        <ele>83.059</ele>
        <time>1970-01-01T01:00:00Z</time>
      </trkpt>
      <trkpt lat="41.90458333" lon="12.49378">
        <ele>83.059</ele>
        <time>1970-01-01T01:00:00Z</time>
      </trkpt>
      <trkpt lat="41.90460167" lon="12.49375667">
        <ele>83.059</ele>
        <time>1970-01-01T01:00:00Z</time>
      </trkpt>
      <trkpt lat="41.90462" lon="12.49373">
        <ele>83.059</ele>
        <time>1970-01-01T01:00:00Z</time>
      </trkpt>
      <trkpt lat="41.904635" lon="12.49370667">
        <ele>82.145</ele>
        <time>1970-01-01T01:00:00Z</time>
      </trkpt>
      <trkpt lat="41.90464833" lon="12.49368">
        <ele>82.145</ele>
        <time>1970-01-01T01:00:00Z</time>
      </trkpt>
      <trkpt lat="41.90466" lon="12.493655">
        <ele>82.145</ele>
        <time>1970-01-01T01:00:00Z</time>
      </trkpt>
      <trkpt lat="41.90467" lon="12.49363">
        <ele>82.145</ele>
        <time>1970-01-01T01:00:00Z</time>
      </trkpt>
      <trkpt lat="41.904675" lon="12.49360667">
        <ele>81.078</ele>
        <time>1970-01-01T01:00:00Z</time>
      </trkpt>
      <trkpt lat="41.90468" lon="12.49358167">
        <ele>81.078</ele>
        <time>1970-01-01T01:00:00Z</time>
      </trkpt>
      <trkpt lat="41.90468667" lon="12.49355167">
        <ele>81.078</ele>
        <time>1970-01-01T01:00:00Z</time>
      </trkpt>
      <trkpt lat="41.90469333" lon="12.49352667">
        <ele>81.078</ele>
        <time>1970-01-01T01:00:00Z</time>
      </trkpt>
      <trkpt lat="41.90470167" lon="12.4935">
        <ele>80.163</ele>
        <time>1970-01-01T01:00:00Z</time>
      </trkpt>
      <trkpt lat="41.90470833" lon="12.493475">
        <ele>80.163</ele>
        <time>1970-01-01T01:00:00Z</time>
      </trkpt>
      <trkpt lat="41.904715" lon="12.49344833">
        <ele>80.163</ele>
        <time>1970-01-01T01:00:00Z</time>
      </trkpt>
      <trkpt lat="41.90471833" lon="12.49342333">
        <ele>80.163</ele>
        <time>1970-01-01T01:00:00Z</time>
      </trkpt>
      <trkpt lat="41.90472167" lon="12.49340333">
        <ele>79.097</ele>
        <time>1970-01-01T01:00:00Z</time>
      </trkpt>
      <trkpt lat="41.904725" lon="12.49338167">
        <ele>79.097</ele>
        <time>1970-01-01T01:00:00Z</time>
      </trkpt>
      <trkpt lat="41.90472833" lon="12.49335667">
        <ele>79.097</ele>
        <time>1970-01-01T01:00:00Z</time>
      </trkpt>
      <trkpt lat="41.90473" lon="12.49333333">
        <ele>79.097</ele>
        <time>1970-01-01T01:00:00Z</time>
      </trkpt>
      <trkpt lat="41.90473333" lon="12.49331333">
        <ele>79.097</ele>
        <time>1970-01-01T01:00:00Z</time>
      </trkpt>
      <trkpt lat="41.904735" lon="12.49329333">
        <ele>79.097</ele>
        <time>1970-01-01T01:00:00Z</time>
      </trkpt>
      <trkpt lat="41.904735" lon="12.49327333">
        <ele>79.097</ele>
        <time>1970-01-01T01:00:00Z</time>
      </trkpt>
      <trkpt lat="41.90473833" lon="12.49325333">
        <ele>79.097</ele>
        <time>1970-01-01T01:00:00Z</time>
      </trkpt>
      <trkpt lat="41.90474167" lon="12.49323333">
        <ele>79.097</ele>
        <time>1970-01-01T01:00:00Z</time>
      </trkpt>
      <trkpt lat="41.904745" lon="12.49321167">
        <ele>79.097</ele>
        <time>1970-01-01T01:00:00Z</time>
      </trkpt>
      <trkpt lat="41.90474667" lon="12.49319">
        <ele>79.097</ele>
        <time>1970-01-01T01:00:00Z</time>
      </trkpt>
      <trkpt lat="41.90475" lon="12.49316833">
        <ele>79.097</ele>
        <time>1970-01-01T01:00:00Z</time>
      </trkpt>
      <trkpt lat="41.904755" lon="12.49315">
        <ele>76.049</ele>
        <time>1970-01-01T01:00:00Z</time>
      </trkpt>
      <trkpt lat="41.90475667" lon="12.49313167">
        <ele>76.049</ele>
        <time>1970-01-01T01:00:00Z</time>
      </trkpt>
      <trkpt lat="41.90476167" lon="12.49311333">
        <ele>76.049</ele>
        <time>1970-01-01T01:00:00Z</time>
      </trkpt>
      <trkpt lat="41.90476667" lon="12.49309667">
        <ele>76.049</ele>
        <time>1970-01-01T01:00:00Z</time>
      </trkpt>
      <trkpt lat="41.90477333" lon="12.49308">
        <ele>75.134</ele>
        <time>1970-01-01T01:00:00Z</time>
      </trkpt>
      <trkpt lat="41.90477833" lon="12.49306167">
        <ele>75.134</ele>
        <time>1970-01-01T01:00:00Z</time>
      </trkpt>
      <trkpt lat="41.904785" lon="12.49304333">
        <ele>75.134</ele>
        <time>1970-01-01T01:00:00Z</time>
      </trkpt>
      <trkpt lat="41.90479167" lon="12.49302333">
        <ele>75.134</ele>
        <time>1970-01-01T01:00:00Z</time>
      </trkpt>
      <trkpt lat="41.90479833" lon="12.49300667">
        <ele>74.067</ele>
        <time>1970-01-01T01:00:00Z</time>
      </trkpt>
      <trkpt lat="41.90480667" lon="12.49299">
        <ele>74.067</ele>
        <time>1970-01-01T01:00:00Z</time>
      </trkpt>
      <trkpt lat="41.904815" lon="12.49297333">
        <ele>74.067</ele>
        <time>1970-01-01T01:00:00Z</time>
      </trkpt>
      <trkpt lat="41.90482667" lon="12.49295833">
        <ele>74.067</ele>
        <time>1970-01-01T01:00:00Z</time>
      </trkpt>
      <trkpt lat="41.904835" lon="12.49294">
        <ele>73.153</ele>
        <time>1970-01-01T01:00:00Z</time>
      </trkpt>
      <trkpt lat="41.90484333" lon="12.49292">
        <ele>73.153</ele>
        <time>1970-01-01T01:00:00Z</time>
      </trkpt>
      <trkpt lat="41.90485" lon="12.49289667">
        <ele>73.153</ele>
        <time>1970-01-01T01:00:00Z</time>
      </trkpt>
      <trkpt lat="41.90485833" lon="12.49287">
        <ele>73.153</ele>
        <time>1970-01-01T01:00:00Z</time>
      </trkpt>
      <trkpt lat="41.90486333" lon="12.49284167">
        <ele>73.153</ele>
        <time>1970-01-01T01:00:00Z</time>
      </trkpt>
      <trkpt lat="41.904865" lon="12.49281667">
        <ele>73.153</ele>
        <time>1970-01-01T01:00:00Z</time>
      </trkpt>
      <trkpt lat="41.90486667" lon="12.49279167">
        <ele>72.086</ele>
        <time>1970-01-01T01:00:00Z</time>
      </trkpt>
      <trkpt lat="41.90486667" lon="12.492765">
        <ele>72.086</ele>
        <time>1970-01-01T01:00:00Z</time>
      </trkpt>
      <trkpt lat="41.90486833" lon="12.49274">
        <ele>72.086</ele>
        <time>1970-01-01T01:00:00Z</time>
      </trkpt>
      <trkpt lat="41.90486667" lon="12.492715">
        <ele>72.086</ele>
        <time>1970-01-01T01:00:00Z</time>
      </trkpt>
      <trkpt lat="41.90486667" lon="12.49269167">
        <ele>72.086</ele>
        <time>1970-01-01T01:00:00Z</time>
      </trkpt>
      <trkpt lat="41.904865" lon="12.49266667">
        <ele>72.086</ele>
        <time>1970-01-01T01:00:00Z</time>
      </trkpt>
      <trkpt lat="41.90486333" lon="12.492645">
        <ele>71.019</ele>
        <time>1970-01-01T01:00:00Z</time>
      </trkpt>
      <trkpt lat="41.90486" lon="12.49262">
        <ele>71.019</ele>
        <time>1970-01-01T01:00:00Z</time>
      </trkpt>
      <trkpt lat="41.90485667" lon="12.492595">
        <ele>71.019</ele>
        <time>1970-01-01T01:00:00Z</time>
      </trkpt>
      <trkpt lat="41.90485333" lon="12.49257167">
        <ele>71.019</ele>
        <time>1970-01-01T01:00:00Z</time>
      </trkpt>
      <trkpt lat="41.90485" lon="12.49254833">
        <ele>71.019</ele>
        <time>1970-01-01T01:00:00Z</time>
      </trkpt>
      <trkpt lat="41.90484833" lon="12.49252333">
        <ele>71.019</ele>
        <time>1970-01-01T01:00:00Z</time>
      </trkpt>
      <trkpt lat="41.904845" lon="12.492495">
        <ele>71.019</ele>
        <time>1970-01-01T01:00:00Z</time>
      </trkpt>
      <trkpt lat="41.904845" lon="12.49246667">
        <ele>71.019</ele>
        <time>1970-01-01T01:00:00Z</time>
      </trkpt>
      <trkpt lat="41.90484167" lon="12.49244">
        <ele>71.019</ele>
        <time>1970-01-01T01:00:00Z</time>
      </trkpt>
      <trkpt lat="41.90484" lon="12.49241167">
        <ele>71.019</ele>
        <time>1970-01-01T01:00:00Z</time>
      </trkpt>
      <trkpt lat="41.90484" lon="12.492385">
        <ele>70.105</ele>
        <time>1970-01-01T01:00:00Z</time>
      </trkpt>
      <trkpt lat="41.90483833" lon="12.49235833">
        <ele>70.105</ele>
        <time>1970-01-01T01:00:00Z</time>
      </trkpt>
      <trkpt lat="41.904835" lon="12.49233333">
        <ele>70.105</ele>
        <time>1970-01-01T01:00:00Z</time>
      </trkpt>
      <trkpt lat="41.90483" lon="12.49231">
        <ele>70.105</ele>
        <time>1970-01-01T01:00:00Z</time>
      </trkpt>
      <trkpt lat="41.90482333" lon="12.492285">
        <ele>70.105</ele>
        <time>1970-01-01T01:00:00Z</time>
      </trkpt>
      <trkpt lat="41.90481833" lon="12.49226333">
        <ele>70.105</ele>
        <time>1970-01-01T01:00:00Z</time>
      </trkpt>
      <trkpt lat="41.90481167" lon="12.49223833">
        <ele>69.038</ele>
        <time>1970-01-01T01:00:00Z</time>
      </trkpt>
      <trkpt lat="41.90480667" lon="12.49221167">
        <ele>69.038</ele>
        <time>1970-01-01T01:00:00Z</time>
      </trkpt>
      <trkpt lat="41.9048" lon="12.49218667">
        <ele>69.038</ele>
        <time>1970-01-01T01:00:00Z</time>
      </trkpt>
      <trkpt lat="41.904795" lon="12.492165">
        <ele>69.038</ele>
        <time>1970-01-01T01:00:00Z</time>
      </trkpt>
      <trkpt lat="41.90478833" lon="12.49213833">
        <ele>68.124</ele>
        <time>1970-01-01T01:00:00Z</time>
      </trkpt>
      <trkpt lat="41.90478167" lon="12.49211167">
        <ele>68.124</ele>
        <time>1970-01-01T01:00:00Z</time>
      </trkpt>
      <trkpt lat="41.904775" lon="12.49208667">
        <ele>68.124</ele>
        <time>1970-01-01T01:00:00Z</time>
      </trkpt>
      <trkpt lat="41.90476833" lon="12.492065">
        <ele>68.124</ele>
        <time>1970-01-01T01:00:00Z</time>
      </trkpt>
      <trkpt lat="41.90476" lon="12.49204">
        <ele>68.124</ele>
        <time>1970-01-01T01:00:00Z</time>
      </trkpt>
      <trkpt lat="41.904755" lon="12.49201667">
        <ele>68.124</ele>
        <time>1970-01-01T01:00:00Z</time>
      </trkpt>
      <trkpt lat="41.90474833" lon="12.49199333">
        <ele>67.057</ele>
        <time>1970-01-01T01:00:00Z</time>
      </trkpt>
      <trkpt lat="41.90474333" lon="12.49197167">
        <ele>67.057</ele>
        <time>1970-01-01T01:00:00Z</time>
      </trkpt>
      <trkpt lat="41.90474" lon="12.49194667">
        <ele>67.057</ele>
        <time>1970-01-01T01:00:00Z</time>
      </trkpt>
      <trkpt lat="41.904735" lon="12.49192">
        <ele>67.057</ele>
        <time>1970-01-01T01:00:00Z</time>
      </trkpt>
      <trkpt lat="41.90473167" lon="12.49189333">
        <ele>67.057</ele>
        <time>1970-01-01T01:00:00Z</time>
      </trkpt>
      <trkpt lat="41.90472833" lon="12.49186833">
        <ele>67.057</ele>
        <time>1970-01-01T01:00:00Z</time>
      </trkpt>
      <trkpt lat="41.904725" lon="12.49184333">
        <ele>66.142</ele>
        <time>1970-01-01T01:00:00Z</time>
      </trkpt>
      <trkpt lat="41.90472167" lon="12.49181333">
        <ele>66.142</ele>
        <time>1970-01-01T01:00:00Z</time>
      </trkpt>
      <trkpt lat="41.904715" lon="12.49178167">
        <ele>66.142</ele>
        <time>1970-01-01T01:00:00Z</time>
      </trkpt>
      <trkpt lat="41.904705" lon="12.491755">
        <ele>66.142</ele>
        <time>1970-01-01T01:00:00Z</time>
      </trkpt>
      <trkpt lat="41.90469167" lon="12.49173167">
        <ele>66.142</ele>
        <time>1970-01-01T01:00:00Z</time>
      </trkpt>
      <trkpt lat="41.90467833" lon="12.49170833">
        <ele>66.142</ele>
        <time>1970-01-01T01:00:00Z</time>
      </trkpt>
      <trkpt lat="41.90466667" lon="12.491685">
        <ele>65.076</ele>
        <time>1970-01-01T01:00:00Z</time>
      </trkpt>
      <trkpt lat="41.90465667" lon="12.49165833">
        <ele>65.076</ele>
        <time>1970-01-01T01:00:00Z</time>
      </trkpt>
      <trkpt lat="41.90464833" lon="12.491635">
        <ele>65.076</ele>
        <time>1970-01-01T01:00:00Z</time>
      </trkpt>
      <trkpt lat="41.90464167" lon="12.49161333">
        <ele>65.076</ele>
        <time>1970-01-01T01:00:00Z</time>
      </trkpt>
      <trkpt lat="41.90463333" lon="12.49159">
        <ele>64.161</ele>
        <time>1970-01-01T01:00:00Z</time>
      </trkpt>
      <trkpt lat="41.904625" lon="12.49156833">
        <ele>64.161</ele>
        <time>1970-01-01T01:00:00Z</time>
      </trkpt>
      <trkpt lat="41.90461667" lon="12.49154833">
        <ele>64.161</ele>
        <time>1970-01-01T01:00:00Z</time>
      </trkpt>
      <trkpt lat="41.90460833" lon="12.491525">
        <ele>64.161</ele>
        <time>1970-01-01T01:00:00Z</time>
      </trkpt>
      <trkpt lat="41.9046" lon="12.49150167">
        <ele>64.161</ele>
        <time>1970-01-01T01:00:00Z</time>
      </trkpt>
      <trkpt lat="41.90459167" lon="12.49147833">
        <ele>64.161</ele>
        <time>1970-01-01T01:00:00Z</time>
      </trkpt>
      <trkpt lat="41.904585" lon="12.49145333">
        <ele>64.161</ele>
        <time>1970-01-01T01:00:00Z</time>
      </trkpt>
      <trkpt lat="41.90457833" lon="12.49143167">
        <ele>64.161</ele>
        <time>1970-01-01T01:00:00Z</time>
      </trkpt>
      <trkpt lat="41.90456833" lon="12.49140667">
        <ele>63.094</ele>
        <time>1970-01-01T01:00:00Z</time>
      </trkpt>
      <trkpt lat="41.90455833" lon="12.49138">
        <ele>63.094</ele>
        <time>1970-01-01T01:00:00Z</time>
      </trkpt>
      <trkpt lat="41.90454833" lon="12.49135333">
        <ele>62.028</ele>
        <time>1970-01-01T01:00:00Z</time>
      </trkpt>
      <trkpt lat="41.90454167" lon="12.49132667">
        <ele>62.028</ele>
        <time>1970-01-01T01:00:00Z</time>
      </trkpt>
      <trkpt lat="41.904535" lon="12.49130333">
        <ele>62.028</ele>
        <time>1970-01-01T01:00:00Z</time>
      </trkpt>
      <trkpt lat="41.90452667" lon="12.49127833">
        <ele>62.028</ele>
        <time>1970-01-01T01:00:00Z</time>
      </trkpt>
      <trkpt lat="41.90451833" lon="12.49125167">
        <ele>62.028</ele>
        <time>1970-01-01T01:00:00Z</time>
      </trkpt>
      <trkpt lat="41.90451" lon="12.49122833">
        <ele>62.028</ele>
        <time>1970-01-01T01:00:00Z</time>
      </trkpt>
      <trkpt lat="41.9045" lon="12.49120667">
        <ele>61.113</ele>
        <time>1970-01-01T01:00:00Z</time>
      </trkpt>
      <trkpt lat="41.90449167" lon="12.49118667">
        <ele>61.113</ele>
        <time>1970-01-01T01:00:00Z</time>
      </trkpt>
      <trkpt lat="41.90448333" lon="12.49116667">
        <ele>61.113</ele>
        <time>1970-01-01T01:00:00Z</time>
      </trkpt>
      <trkpt lat="41.90447333" lon="12.49114833">
        <ele>61.113</ele>
        <time>1970-01-01T01:00:00Z</time>
      </trkpt>
      <trkpt lat="41.90446333" lon="12.49113">
        <ele>61.113</ele>
        <time>1970-01-01T01:00:00Z</time>
      </trkpt>
      <trkpt lat="41.904455" lon="12.49111167">
        <ele>61.113</ele>
        <time>1970-01-01T01:00:00Z</time>
      </trkpt>
      <trkpt lat="41.904445" lon="12.49108833">
        <ele>61.113</ele>
        <time>1970-01-01T01:00:00Z</time>
      </trkpt>
      <trkpt lat="41.90443667" lon="12.49107">
        <ele>61.113</ele>
        <time>1970-01-01T01:00:00Z</time>
      </trkpt>
      <trkpt lat="41.904425" lon="12.49104833">
        <ele>60.046</ele>
        <time>1970-01-01T01:00:00Z</time>
      </trkpt>
      <trkpt lat="41.904415" lon="12.49102333">
        <ele>60.046</ele>
        <time>1970-01-01T01:00:00Z</time>
      </trkpt>
      <trkpt lat="41.904405" lon="12.49100333">
        <ele>60.046</ele>
        <time>1970-01-01T01:00:00Z</time>
      </trkpt>
      <trkpt lat="41.90439667" lon="12.49097833">
        <ele>60.046</ele>
        <time>1970-01-01T01:00:00Z</time>
      </trkpt>
      <trkpt lat="41.90439" lon="12.49095">
        <ele>60.046</ele>
        <time>1970-01-01T01:00:00Z</time>
      </trkpt>
      <trkpt lat="41.90438" lon="12.49092333">
        <ele>60.046</ele>
        <time>1970-01-01T01:00:00Z</time>
      </trkpt>
      <trkpt lat="41.90437333" lon="12.49089833">
        <ele>60.046</ele>
        <time>1970-01-01T01:00:00Z</time>
      </trkpt>
      <trkpt lat="41.904365" lon="12.49087167">
        <ele>60.046</ele>
        <time>1970-01-01T01:00:00Z</time>
      </trkpt>
      <trkpt lat="41.90435833" lon="12.49084333">
        <ele>59.132</ele>
        <time>1970-01-01T01:00:00Z</time>
      </trkpt>
      <trkpt lat="41.90435" lon="12.49082">
        <ele>59.132</ele>
        <time>1970-01-01T01:00:00Z</time>
      </trkpt>
      <trkpt lat="41.90434167" lon="12.490795">
        <ele>59.132</ele>
        <time>1970-01-01T01:00:00Z</time>
      </trkpt>
      <trkpt lat="41.904335" lon="12.49077333">
        <ele>59.132</ele>
        <time>1970-01-01T01:00:00Z</time>
      </trkpt>
      <trkpt lat="41.90432667" lon="12.49074667">
        <ele>59.132</ele>
        <time>1970-01-01T01:00:00Z</time>
      </trkpt>
      <trkpt lat="41.90432" lon="12.49072167">
        <ele>59.132</ele>
        <time>1970-01-01T01:00:00Z</time>
      </trkpt>
      <trkpt lat="41.90431" lon="12.4907">
        <ele>58.065</ele>
        <time>1970-01-01T01:00:00Z</time>
      </trkpt>
      <trkpt lat="41.9043" lon="12.49068">
        <ele>58.065</ele>
        <time>1970-01-01T01:00:00Z</time>
      </trkpt>
      <trkpt lat="41.90429" lon="12.49066333">
        <ele>58.065</ele>
        <time>1970-01-01T01:00:00Z</time>
      </trkpt>
      <trkpt lat="41.90428" lon="12.49065167">
        <ele>58.065</ele>
        <time>1970-01-01T01:00:00Z</time>
      </trkpt>
      <trkpt lat="41.90427" lon="12.49063667">
        <ele>57.151</ele>
        <time>1970-01-01T01:00:00Z</time>
      </trkpt>
      <trkpt lat="41.90426" lon="12.49062">
        <ele>57.151</ele>
        <time>1970-01-01T01:00:00Z</time>
      </trkpt>
      <trkpt lat="41.90425167" lon="12.490595">
        <ele>57.151</ele>
        <time>1970-01-01T01:00:00Z</time>
      </trkpt>
      <trkpt lat="41.90424333" lon="12.49057167">
        <ele>57.151</ele>
        <time>1970-01-01T01:00:00Z</time>
      </trkpt>
      <trkpt lat="41.90423167" lon="12.490545">
        <ele>56.084</ele>
        <time>1970-01-01T01:00:00Z</time>
      </trkpt>
      <trkpt lat="41.90422167" lon="12.49051333">
        <ele>56.084</ele>
        <time>1970-01-01T01:00:00Z</time>
      </trkpt>
      <trkpt lat="41.90421" lon="12.49048">
        <ele>56.084</ele>
        <time>1970-01-01T01:00:00Z</time>
      </trkpt>
      <trkpt lat="41.9042" lon="12.490445">
        <ele>56.084</ele>
        <time>1970-01-01T01:00:00Z</time>
      </trkpt>
      <trkpt lat="41.90419" lon="12.49041167">
        <ele>56.084</ele>
        <time>1970-01-01T01:00:00Z</time>
      </trkpt>
      <trkpt lat="41.90418" lon="12.490385">
        <ele>56.084</ele>
        <time>1970-01-01T01:00:00Z</time>
      </trkpt>
      <trkpt lat="41.904165" lon="12.49036">
        <ele>55.017</ele>
        <time>1970-01-01T01:00:00Z</time>
      </trkpt>
      <trkpt lat="41.904145" lon="12.490335">
        <ele>55.017</ele>
        <time>1970-01-01T01:00:00Z</time>
      </trkpt>
      <trkpt lat="41.90412833" lon="12.49031667">
        <ele>55.017</ele>
        <time>1970-01-01T01:00:00Z</time>
      </trkpt>
      <trkpt lat="41.90411333" lon="12.490295">
        <ele>55.017</ele>
        <time>1970-01-01T01:00:00Z</time>
      </trkpt>
      <trkpt lat="41.90409667" lon="12.49027667">
        <ele>55.017</ele>
        <time>1970-01-01T01:00:00Z</time>
      </trkpt>
      <trkpt lat="41.904085" lon="12.490255">
        <ele>55.017</ele>
        <time>1970-01-01T01:00:00Z</time>
      </trkpt>
      <trkpt lat="41.90407167" lon="12.49023167">
        <ele>55.017</ele>
        <time>1970-01-01T01:00:00Z</time>
      </trkpt>
      <trkpt lat="41.90405833" lon="12.49021">
        <ele>55.017</ele>
        <time>1970-01-01T01:00:00Z</time>
      </trkpt>
      <trkpt lat="41.90404667" lon="12.490185">
        <ele>55.017</ele>
        <time>1970-01-01T01:00:00Z</time>
      </trkpt>
      <trkpt lat="41.90403667" lon="12.490165">
        <ele>55.017</ele>
        <time>1970-01-01T01:00:00Z</time>
      </trkpt>
      <trkpt lat="41.90402667" lon="12.49014333">
        <ele>54.103</ele>
        <time>1970-01-01T01:00:00Z</time>
      </trkpt>
      <trkpt lat="41.90401667" lon="12.49012">
        <ele>54.103</ele>
        <time>1970-01-01T01:00:00Z</time>
      </trkpt>
      <trkpt lat="41.90400667" lon="12.4901">
        <ele>54.103</ele>
        <time>1970-01-01T01:00:00Z</time>
      </trkpt>
      <trkpt lat="41.90399833" lon="12.49008">
        <ele>54.103</ele>
        <time>1970-01-01T01:00:00Z</time>
      </trkpt>
      <trkpt lat="41.90399" lon="12.490065">
        <ele>53.036</ele>
        <time>1970-01-01T01:00:00Z</time>
      </trkpt>
      <trkpt lat="41.90398333" lon="12.49005">
        <ele>53.036</ele>
        <time>1970-01-01T01:00:00Z</time>
      </trkpt>
      <trkpt lat="41.90397667" lon="12.490035">
        <ele>53.036</ele>
        <time>1970-01-01T01:00:00Z</time>
      </trkpt>
      <trkpt lat="41.90396833" lon="12.49001333">
        <ele>53.036</ele>
        <time>1970-01-01T01:00:00Z</time>
      </trkpt>
      <trkpt lat="41.90396167" lon="12.48998833">
        <ele>53.036</ele>
        <time>1970-01-01T01:00:00Z</time>
      </trkpt>
      <trkpt lat="41.903955" lon="12.48995667">
        <ele>53.036</ele>
        <time>1970-01-01T01:00:00Z</time>
      </trkpt>
      <trkpt lat="41.90395" lon="12.48992833">
        <ele>53.036</ele>
        <time>1970-01-01T01:00:00Z</time>
      </trkpt>
      <trkpt lat="41.90394333" lon="12.48990167">
        <ele>53.036</ele>
        <time>1970-01-01T01:00:00Z</time>
      </trkpt>
      <trkpt lat="41.903935" lon="12.48987833">
        <ele>53.036</ele>
        <time>1970-01-01T01:00:00Z</time>
      </trkpt>
      <trkpt lat="41.903925" lon="12.48985667">
        <ele>53.036</ele>
        <time>1970-01-01T01:00:00Z</time>
      </trkpt>
      <trkpt lat="41.903915" lon="12.48983167">
        <ele>52.121</ele>
        <time>1970-01-01T01:00:00Z</time>
      </trkpt>
      <trkpt lat="41.90390333" lon="12.489805">
        <ele>52.121</ele>
        <time>1970-01-01T01:00:00Z</time>
      </trkpt>
      <trkpt lat="41.90389167" lon="12.48978">
        <ele>52.121</ele>
        <time>1970-01-01T01:00:00Z</time>
      </trkpt>
      <trkpt lat="41.90388167" lon="12.48976">
        <ele>52.121</ele>
        <time>1970-01-01T01:00:00Z</time>
      </trkpt>
      <trkpt lat="41.90387333" lon="12.48973667">
        <ele>51.055</ele>
        <time>1970-01-01T01:00:00Z</time>
      </trkpt>
      <trkpt lat="41.90386667" lon="12.48971333">
        <ele>51.055</ele>
        <time>1970-01-01T01:00:00Z</time>
      </trkpt>
      <trkpt lat="41.90386" lon="12.48969">
        <ele>51.055</ele>
        <time>1970-01-01T01:00:00Z</time>
      </trkpt>
      <trkpt lat="41.90385167" lon="12.48966833">
        <ele>51.055</ele>
        <time>1970-01-01T01:00:00Z</time>
      </trkpt>
      <trkpt lat="41.90384667" lon="12.489645">
        <ele>51.055</ele>
        <time>1970-01-01T01:00:00Z</time>
      </trkpt>
      <trkpt lat="41.90384167" lon="12.48961833">
        <ele>51.055</ele>
        <time>1970-01-01T01:00:00Z</time>
      </trkpt>
      <trkpt lat="41.90383833" lon="12.48959">
        <ele>51.055</ele>
        <time>1970-01-01T01:00:00Z</time>
      </trkpt>
      <trkpt lat="41.90383667" lon="12.48956167">
        <ele>51.055</ele>
        <time>1970-01-01T01:00:00Z</time>
      </trkpt>
      <trkpt lat="41.90383833" lon="12.48952667">
        <ele>51.055</ele>
        <time>1970-01-01T01:00:00Z</time>
      </trkpt>
      <trkpt lat="41.90383833" lon="12.48949333">
        <ele>51.055</ele>
        <time>1970-01-01T01:00:00Z</time>
      </trkpt>
      <trkpt lat="41.90384167" lon="12.48945833">
        <ele>49.073</ele>
        <time>1970-01-01T01:00:00Z</time>
      </trkpt>
      <trkpt lat="41.90384333" lon="12.48942">
        <ele>49.073</ele>
        <time>1970-01-01T01:00:00Z</time>
      </trkpt>
      <trkpt lat="41.90384" lon="12.489375">
        <ele>49.073</ele>
        <time>1970-01-01T01:00:00Z</time>
      </trkpt>
      <trkpt lat="41.90383333" lon="12.48932667">
        <ele>49.073</ele>
        <time>1970-01-01T01:00:00Z</time>
      </trkpt>
      <trkpt lat="41.903825" lon="12.48927667">
        <ele>49.073</ele>
        <time>1970-01-01T01:00:00Z</time>
      </trkpt>
      <trkpt lat="41.903815" lon="12.48922667">
        <ele>49.073</ele>
        <time>1970-01-01T01:00:00Z</time>
      </trkpt>
      <trkpt lat="41.90380333" lon="12.48918667">
        <ele>49.073</ele>
        <time>1970-01-01T01:00:00Z</time>
      </trkpt>
      <trkpt lat="41.90379333" lon="12.48914833">
        <ele>49.073</ele>
        <time>1970-01-01T01:00:00Z</time>
      </trkpt>
      <trkpt lat="41.90378333" lon="12.48911167">
        <ele>49.073</ele>
        <time>1970-01-01T01:00:00Z</time>
      </trkpt>
      <trkpt lat="41.90377833" lon="12.48907667">
        <ele>49.073</ele>
        <time>1970-01-01T01:00:00Z</time>
      </trkpt>
      <trkpt lat="41.90377333" lon="12.48904">
        <ele>49.073</ele>
        <time>1970-01-01T01:00:00Z</time>
      </trkpt>
      <trkpt lat="41.90377167" lon="12.48900333">
        <ele>49.073</ele>
        <time>1970-01-01T01:00:00Z</time>
      </trkpt>
      <trkpt lat="41.90377" lon="12.488965">
        <ele>49.073</ele>
        <time>1970-01-01T01:00:00Z</time>
      </trkpt>
      <trkpt lat="41.90376667" lon="12.48892833">
        <ele>49.073</ele>
        <time>1970-01-01T01:00:00Z</time>
      </trkpt>
      <trkpt lat="41.90376333" lon="12.48890167">
        <ele>49.073</ele>
        <time>1970-01-01T01:00:00Z</time>
      </trkpt>
      <trkpt lat="41.90376" lon="12.48888167">
        <ele>49.073</ele>
        <time>1970-01-01T01:00:00Z</time>
      </trkpt>
      <trkpt lat="41.90375333" lon="12.48886333">
        <ele>49.073</ele>
        <time>1970-01-01T01:00:00Z</time>
      </trkpt>
      <trkpt lat="41.90374667" lon="12.48884333">
        <ele>49.073</ele>
        <time>1970-01-01T01:00:00Z</time>
      </trkpt>
      <trkpt lat="41.90373667" lon="12.48881833">
        <ele>47.092</ele>
        <time>1970-01-01T01:00:00Z</time>
      </trkpt>
      <trkpt lat="41.90372667" lon="12.48879333">
        <ele>47.092</ele>
        <time>1970-01-01T01:00:00Z</time>
      </trkpt>
      <trkpt lat="41.903715" lon="12.48877167">
        <ele>47.092</ele>
        <time>1970-01-01T01:00:00Z</time>
      </trkpt>
      <trkpt lat="41.90370167" lon="12.488745">
        <ele>47.092</ele>
        <time>1970-01-01T01:00:00Z</time>
      </trkpt>
      <trkpt lat="41.903685" lon="12.48872333">
        <ele>46.025</ele>
        <time>1970-01-01T01:00:00Z</time>
      </trkpt>
      <trkpt lat="41.90367167" lon="12.48869833">
        <ele>46.025</ele>
        <time>1970-01-01T01:00:00Z</time>
      </trkpt>
      <trkpt lat="41.90365833" lon="12.48867667">
        <ele>46.025</ele>
        <time>1970-01-01T01:00:00Z</time>
      </trkpt>
      <trkpt lat="41.903645" lon="12.48865167">
        <ele>46.025</ele>
        <time>1970-01-01T01:00:00Z</time>
      </trkpt>
      <trkpt lat="41.90363333" lon="12.488625">
        <ele>46.025</ele>
        <time>1970-01-01T01:00:00Z</time>
      </trkpt>
      <trkpt lat="41.90362" lon="12.48859833">
        <ele>46.025</ele>
        <time>1970-01-01T01:00:00Z</time>
      </trkpt>
      <trkpt lat="41.90360667" lon="12.488575">
        <ele>46.025</ele>
        <time>1970-01-01T01:00:00Z</time>
      </trkpt>
      <trkpt lat="41.90359333" lon="12.48855167">
        <ele>46.025</ele>
        <time>1970-01-01T01:00:00Z</time>
      </trkpt>
      <trkpt lat="41.90358" lon="12.48853">
        <ele>46.025</ele>
        <time>1970-01-01T01:00:00Z</time>
      </trkpt>
      <trkpt lat="41.90357" lon="12.48850833">
        <ele>46.025</ele>
        <time>1970-01-01T01:00:00Z</time>
      </trkpt>
      <trkpt lat="41.90356333" lon="12.48848167">
        <ele>45.111</ele>
        <time>1970-01-01T01:00:00Z</time>
      </trkpt>
      <trkpt lat="41.90355833" lon="12.48845333">
        <ele>45.111</ele>
        <time>1970-01-01T01:00:00Z</time>
      </trkpt>
      <trkpt lat="41.90355833" lon="12.488425">
        <ele>45.111</ele>
        <time>1970-01-01T01:00:00Z</time>
      </trkpt>
      <trkpt lat="41.90356" lon="12.48839167">
        <ele>45.111</ele>
        <time>1970-01-01T01:00:00Z</time>
      </trkpt>
      <trkpt lat="41.90356333" lon="12.48836167">
        <ele>45.111</ele>
        <time>1970-01-01T01:00:00Z</time>
      </trkpt>
      <trkpt lat="41.90356667" lon="12.48833">
        <ele>45.111</ele>
        <time>1970-01-01T01:00:00Z</time>
      </trkpt>
      <trkpt lat="41.90357167" lon="12.48830167">
        <ele>45.111</ele>
        <time>1970-01-01T01:00:00Z</time>
      </trkpt>
      <trkpt lat="41.90357833" lon="12.48828">
        <ele>45.111</ele>
        <time>1970-01-01T01:00:00Z</time>
      </trkpt>
      <trkpt lat="41.90358167" lon="12.48826167">
        <ele>45.111</ele>
        <time>1970-01-01T01:00:00Z</time>
      </trkpt>
      <trkpt lat="41.903585" lon="12.488255">
        <ele>45.111</ele>
        <time>1970-01-01T01:00:00Z</time>
      </trkpt>
      <trkpt lat="41.90358833" lon="12.48824667">
        <ele>45.111</ele>
        <time>1970-01-01T01:00:00Z</time>
      </trkpt>
      <trkpt lat="41.90359167" lon="12.488235">
        <ele>45.111</ele>
        <time>1970-01-01T01:00:00Z</time>
      </trkpt>
      <trkpt lat="41.90359167" lon="12.48822">
        <ele>45.111</ele>
        <time>1970-01-01T01:00:00Z</time>
      </trkpt>
      <trkpt lat="41.90358833" lon="12.48820167">
        <ele>45.111</ele>
        <time>1970-01-01T01:00:00Z</time>
      </trkpt>
      <trkpt lat="41.90358333" lon="12.48818">
        <ele>45.111</ele>
        <time>1970-01-01T01:00:00Z</time>
      </trkpt>
      <trkpt lat="41.90357833" lon="12.488155">
        <ele>45.111</ele>
        <time>1970-01-01T01:00:00Z</time>
      </trkpt>
      <trkpt lat="41.90357167" lon="12.48813333">
        <ele>45.111</ele>
        <time>1970-01-01T01:00:00Z</time>
      </trkpt>
      <trkpt lat="41.90356333" lon="12.48811">
        <ele>45.111</ele>
        <time>1970-01-01T01:00:00Z</time>
      </trkpt>
      <trkpt lat="41.90355167" lon="12.48808333">
        <ele>45.111</ele>
        <time>1970-01-01T01:00:00Z</time>
      </trkpt>
      <trkpt lat="41.90354" lon="12.48805833">
        <ele>45.111</ele>
        <time>1970-01-01T01:00:00Z</time>
      </trkpt>
      <trkpt lat="41.90353" lon="12.48802833">
        <ele>43.13</ele>
        <time>1970-01-01T01:00:00Z</time>
      </trkpt>
      <trkpt lat="41.90352333" lon="12.48799667">
        <ele>43.13</ele>
        <time>1970-01-01T01:00:00Z</time>
      </trkpt>
      <trkpt lat="41.903515" lon="12.48796167">
        <ele>43.13</ele>
        <time>1970-01-01T01:00:00Z</time>
      </trkpt>
      <trkpt lat="41.90350333" lon="12.48793333">
        <ele>43.13</ele>
        <time>1970-01-01T01:00:00Z</time>
      </trkpt>
      <trkpt lat="41.90349167" lon="12.48790667">
        <ele>43.13</ele>
        <time>1970-01-01T01:00:00Z</time>
      </trkpt>
      <trkpt lat="41.90348167" lon="12.48788167">
        <ele>43.13</ele>
        <time>1970-01-01T01:00:00Z</time>
      </trkpt>
      <trkpt lat="41.90347" lon="12.48785667">
        <ele>43.13</ele>
        <time>1970-01-01T01:00:00Z</time>
      </trkpt>
      <trkpt lat="41.90345667" lon="12.48783333">
        <ele>43.13</ele>
        <time>1970-01-01T01:00:00Z</time>
      </trkpt>
      <trkpt lat="41.90344667" lon="12.48781167">
        <ele>43.13</ele>
        <time>1970-01-01T01:00:00Z</time>
      </trkpt>
      <trkpt lat="41.903435" lon="12.48779">
        <ele>43.13</ele>
        <time>1970-01-01T01:00:00Z</time>
      </trkpt>
      <trkpt lat="41.90342167" lon="12.48776667">
        <ele>43.13</ele>
        <time>1970-01-01T01:00:00Z</time>
      </trkpt>
      <trkpt lat="41.90340833" lon="12.48774167">
        <ele>43.13</ele>
        <time>1970-01-01T01:00:00Z</time>
      </trkpt>
      <trkpt lat="41.90339333" lon="12.48771667">
        <ele>43.13</ele>
        <time>1970-01-01T01:00:00Z</time>
      </trkpt>
      <trkpt lat="41.90338167" lon="12.48769833">
        <ele>43.13</ele>
        <time>1970-01-01T01:00:00Z</time>
      </trkpt>
      <trkpt lat="41.90337" lon="12.48768">
        <ele>42.063</ele>
        <time>1970-01-01T01:00:00Z</time>
      </trkpt>
      <trkpt lat="41.90336" lon="12.48766">
        <ele>42.063</ele>
        <time>1970-01-01T01:00:00Z</time>
      </trkpt>
      <trkpt lat="41.90335" lon="12.48764333">
        <ele>42.063</ele>
        <time>1970-01-01T01:00:00Z</time>
      </trkpt>
      <trkpt lat="41.90334333" lon="12.487625">
        <ele>42.063</ele>
        <time>1970-01-01T01:00:00Z</time>
      </trkpt>
      <trkpt lat="41.903335" lon="12.487605">
        <ele>42.063</ele>
        <time>1970-01-01T01:00:00Z</time>
      </trkpt>
      <trkpt lat="41.903325" lon="12.487585">
        <ele>42.063</ele>
        <time>1970-01-01T01:00:00Z</time>
      </trkpt>
      <trkpt lat="41.90331333" lon="12.48756167">
        <ele>42.063</ele>
        <time>1970-01-01T01:00:00Z</time>
      </trkpt>
      <trkpt lat="41.90330167" lon="12.48754">
        <ele>42.063</ele>
        <time>1970-01-01T01:00:00Z</time>
      </trkpt>
      <trkpt lat="41.90329167" lon="12.48751833">
        <ele>40.082</ele>
        <time>1970-01-01T01:00:00Z</time>
      </trkpt>
      <trkpt lat="41.90328" lon="12.48749667">
        <ele>40.082</ele>
        <time>1970-01-01T01:00:00Z</time>
      </trkpt>
      <trkpt lat="41.90327167" lon="12.48747333">
        <ele>40.082</ele>
        <time>1970-01-01T01:00:00Z</time>
      </trkpt>
      <trkpt lat="41.90326" lon="12.48745333">
        <ele>40.082</ele>
        <time>1970-01-01T01:00:00Z</time>
      </trkpt>
      <trkpt lat="41.90325" lon="12.48743167">
        <ele>40.082</ele>
        <time>1970-01-01T01:00:00Z</time>
      </trkpt>
      <trkpt lat="41.90324167" lon="12.48741167">
        <ele>40.082</ele>
        <time>1970-01-01T01:00:00Z</time>
      </trkpt>
      <trkpt lat="41.90323" lon="12.48739">
        <ele>40.082</ele>
        <time>1970-01-01T01:00:00Z</time>
      </trkpt>
      <trkpt lat="41.90321833" lon="12.48736833">
        <ele>40.082</ele>
        <time>1970-01-01T01:00:00Z</time>
      </trkpt>
      <trkpt lat="41.90320833" lon="12.48734667">
        <ele>40.082</ele>
        <time>1970-01-01T01:00:00Z</time>
      </trkpt>
      <trkpt lat="41.90319833" lon="12.48732667">
        <ele>40.082</ele>
        <time>1970-01-01T01:00:00Z</time>
      </trkpt>
      <trkpt lat="41.90318667" lon="12.48730667">
        <ele>40.082</ele>
        <time>1970-01-01T01:00:00Z</time>
      </trkpt>
      <trkpt lat="41.90317667" lon="12.48728167">
        <ele>40.082</ele>
        <time>1970-01-01T01:00:00Z</time>
      </trkpt>
      <trkpt lat="41.90316667" lon="12.48726">
        <ele>38.1</ele>
        <time>1970-01-01T01:00:00Z</time>
      </trkpt>
      <trkpt lat="41.903155" lon="12.487235">
        <ele>38.1</ele>
        <time>1970-01-01T01:00:00Z</time>
      </trkpt>
      <trkpt lat="41.90314333" lon="12.48720667">
        <ele>38.1</ele>
        <time>1970-01-01T01:00:00Z</time>
      </trkpt>
      <trkpt lat="41.90313167" lon="12.48717667">
        <ele>38.1</ele>
        <time>1970-01-01T01:00:00Z</time>
      </trkpt>
      <trkpt lat="41.90312167" lon="12.487145">
        <ele>38.1</ele>
        <time>1970-01-01T01:00:00Z</time>
      </trkpt>
      <trkpt lat="41.90311167" lon="12.48711667">
        <ele>38.1</ele>
        <time>1970-01-01T01:00:00Z</time>
      </trkpt>
      <trkpt lat="41.903105" lon="12.48708667">
        <ele>37.034</ele>
        <time>1970-01-01T01:00:00Z</time>
      </trkpt>
      <trkpt lat="41.90309667" lon="12.48705667">
        <ele>37.034</ele>
        <time>1970-01-01T01:00:00Z</time>
      </trkpt>
      <trkpt lat="41.90308833" lon="12.48702667">
        <ele>37.034</ele>
        <time>1970-01-01T01:00:00Z</time>
      </trkpt>
      <trkpt lat="41.903085" lon="12.48700333">
        <ele>37.034</ele>
        <time>1970-01-01T01:00:00Z</time>
      </trkpt>
      <trkpt lat="41.90308" lon="12.48698167">
        <ele>37.034</ele>
        <time>1970-01-01T01:00:00Z</time>
      </trkpt>
      <trkpt lat="41.903075" lon="12.48695833">
        <ele>37.034</ele>
        <time>1970-01-01T01:00:00Z</time>
      </trkpt>
      <trkpt lat="41.90307" lon="12.48693333">
        <ele>37.034</ele>
        <time>1970-01-01T01:00:00Z</time>
      </trkpt>
      <trkpt lat="41.903065" lon="12.486905">
        <ele>37.034</ele>
        <time>1970-01-01T01:00:00Z</time>
      </trkpt>
      <trkpt lat="41.90306167" lon="12.48687667">
        <ele>37.034</ele>
        <time>1970-01-01T01:00:00Z</time>
      </trkpt>
      <trkpt lat="41.903055" lon="12.48685333">
        <ele>37.034</ele>
        <time>1970-01-01T01:00:00Z</time>
      </trkpt>
      <trkpt lat="41.90304833" lon="12.48683">
        <ele>37.034</ele>
        <time>1970-01-01T01:00:00Z</time>
      </trkpt>
      <trkpt lat="41.90304333" lon="12.48680167">
        <ele>37.034</ele>
        <time>1970-01-01T01:00:00Z</time>
      </trkpt>
      <trkpt lat="41.90303833" lon="12.48677333">
        <ele>36.119</ele>
        <time>1970-01-01T01:00:00Z</time>
      </trkpt>
      <trkpt lat="41.90303333" lon="12.486745">
        <ele>36.119</ele>
        <time>1970-01-01T01:00:00Z</time>
      </trkpt>
      <trkpt lat="41.903025" lon="12.48671667">
        <ele>36.119</ele>
        <time>1970-01-01T01:00:00Z</time>
      </trkpt>
      <trkpt lat="41.90301833" lon="12.48668833">
        <ele>36.119</ele>
        <time>1970-01-01T01:00:00Z</time>
      </trkpt>
      <trkpt lat="41.90301" lon="12.48666">
        <ele>36.119</ele>
        <time>1970-01-01T01:00:00Z</time>
      </trkpt>
      <trkpt lat="41.903" lon="12.486635">
        <ele>36.119</ele>
        <time>1970-01-01T01:00:00Z</time>
      </trkpt>
      <trkpt lat="41.90299" lon="12.48661">
        <ele>35.052</ele>
        <time>1970-01-01T01:00:00Z</time>
      </trkpt>
      <trkpt lat="41.90297833" lon="12.486585">
        <ele>35.052</ele>
        <time>1970-01-01T01:00:00Z</time>
      </trkpt>
      <trkpt lat="41.90296833" lon="12.48655833">
        <ele>35.052</ele>
        <time>1970-01-01T01:00:00Z</time>
      </trkpt>
      <trkpt lat="41.90295833" lon="12.48653333">
        <ele>35.052</ele>
        <time>1970-01-01T01:00:00Z</time>
      </trkpt>
      <trkpt lat="41.90295" lon="12.48650833">
        <ele>35.052</ele>
        <time>1970-01-01T01:00:00Z</time>
      </trkpt>
      <trkpt lat="41.90294" lon="12.486485">
        <ele>35.052</ele>
        <time>1970-01-01T01:00:00Z</time>
      </trkpt>
      <trkpt lat="41.90293333" lon="12.48645833">
        <ele>35.052</ele>
        <time>1970-01-01T01:00:00Z</time>
      </trkpt>
      <trkpt lat="41.90292833" lon="12.48643">
        <ele>35.052</ele>
        <time>1970-01-01T01:00:00Z</time>
      </trkpt>
      <trkpt lat="41.90292333" lon="12.48640333">
        <ele>35.052</ele>
        <time>1970-01-01T01:00:00Z</time>
      </trkpt>
      <trkpt lat="41.90291833" lon="12.48637667">
        <ele>35.052</ele>
        <time>1970-01-01T01:00:00Z</time>
      </trkpt>
      <trkpt lat="41.90291167" lon="12.48635167">
        <ele>35.052</ele>
        <time>1970-01-01T01:00:00Z</time>
      </trkpt>
      <trkpt lat="41.902905" lon="12.48632833">
        <ele>35.052</ele>
        <time>1970-01-01T01:00:00Z</time>
      </trkpt>
      <trkpt lat="41.90289833" lon="12.48630167">
        <ele>35.052</ele>
        <time>1970-01-01T01:00:00Z</time>
      </trkpt>
      <trkpt lat="41.90289333" lon="12.486275">
        <ele>35.052</ele>
        <time>1970-01-01T01:00:00Z</time>
      </trkpt>
      <trkpt lat="41.90288667" lon="12.48624833">
        <ele>35.052</ele>
        <time>1970-01-01T01:00:00Z</time>
      </trkpt>
      <trkpt lat="41.90288" lon="12.48622333">
        <ele>35.052</ele>
        <time>1970-01-01T01:00:00Z</time>
      </trkpt>
      <trkpt lat="41.90287167" lon="12.486195">
        <ele>35.052</ele>
        <time>1970-01-01T01:00:00Z</time>
      </trkpt>
      <trkpt lat="41.90286333" lon="12.48616833">
        <ele>35.052</ele>
        <time>1970-01-01T01:00:00Z</time>
      </trkpt>
      <trkpt lat="41.90285167" lon="12.48614167">
        <ele>34.138</ele>
        <time>1970-01-01T01:00:00Z</time>
      </trkpt>
      <trkpt lat="41.90283833" lon="12.48611333">
        <ele>34.138</ele>
        <time>1970-01-01T01:00:00Z</time>
      </trkpt>
      <trkpt lat="41.902825" lon="12.48608333">
        <ele>34.138</ele>
        <time>1970-01-01T01:00:00Z</time>
      </trkpt>
      <trkpt lat="41.90280833" lon="12.48605167">
        <ele>34.138</ele>
        <time>1970-01-01T01:00:00Z</time>
      </trkpt>
      <trkpt lat="41.90279333" lon="12.48602333">
        <ele>33.071</ele>
        <time>1970-01-01T01:00:00Z</time>
      </trkpt>
      <trkpt lat="41.90277833" lon="12.48599833">
        <ele>33.071</ele>
        <time>1970-01-01T01:00:00Z</time>
      </trkpt>
      <trkpt lat="41.90276333" lon="12.48597333">
        <ele>33.071</ele>
        <time>1970-01-01T01:00:00Z</time>
      </trkpt>
      <trkpt lat="41.90275167" lon="12.48594833">
        <ele>33.071</ele>
        <time>1970-01-01T01:00:00Z</time>
      </trkpt>
      <trkpt lat="41.90274333" lon="12.48592">
        <ele>33.071</ele>
        <time>1970-01-01T01:00:00Z</time>
      </trkpt>
      <trkpt lat="41.902745" lon="12.48588333">
        <ele>33.071</ele>
        <time>1970-01-01T01:00:00Z</time>
      </trkpt>
      <trkpt lat="41.90275167" lon="12.48584">
        <ele>33.071</ele>
        <time>1970-01-01T01:00:00Z</time>
      </trkpt>
      <trkpt lat="41.90276167" lon="12.485795">
        <ele>33.071</ele>
        <time>1970-01-01T01:00:00Z</time>
      </trkpt>
      <trkpt lat="41.90277667" lon="12.485745">
        <ele>33.071</ele>
        <time>1970-01-01T01:00:00Z</time>
      </trkpt>
      <trkpt lat="41.902795" lon="12.48569833">
        <ele>33.071</ele>
        <time>1970-01-01T01:00:00Z</time>
      </trkpt>
      <trkpt lat="41.90281333" lon="12.48566">
        <ele>33.071</ele>
        <time>1970-01-01T01:00:00Z</time>
      </trkpt>
      <trkpt lat="41.90282667" lon="12.48562833">
        <ele>33.071</ele>
        <time>1970-01-01T01:00:00Z</time>
      </trkpt>
      <trkpt lat="41.90284" lon="12.48560167">
        <ele>33.071</ele>
        <time>1970-01-01T01:00:00Z</time>
      </trkpt>
      <trkpt lat="41.90285" lon="12.48557333">
        <ele>33.071</ele>
        <time>1970-01-01T01:00:00Z</time>
      </trkpt>
      <trkpt lat="41.90286" lon="12.48554833">
        <ele>32.157</ele>
        <time>1970-01-01T01:00:00Z</time>
      </trkpt>
      <trkpt lat="41.902865" lon="12.48551833">
        <ele>32.157</ele>
        <time>1970-01-01T01:00:00Z</time>
      </trkpt>
      <trkpt lat="41.90287167" lon="12.48547833">
        <ele>32.157</ele>
        <time>1970-01-01T01:00:00Z</time>
      </trkpt>
      <trkpt lat="41.90288167" lon="12.48543833">
        <ele>32.157</ele>
        <time>1970-01-01T01:00:00Z</time>
      </trkpt>
      <trkpt lat="41.902895" lon="12.48539833">
        <ele>32.157</ele>
        <time>1970-01-01T01:00:00Z</time>
      </trkpt>
      <trkpt lat="41.90290833" lon="12.48535667">
        <ele>32.157</ele>
        <time>1970-01-01T01:00:00Z</time>
      </trkpt>
      <trkpt lat="41.90292167" lon="12.48531667">
        <ele>31.09</ele>
        <time>1970-01-01T01:00:00Z</time>
      </trkpt>
      <trkpt lat="41.902935" lon="12.48527833">
        <ele>31.09</ele>
        <time>1970-01-01T01:00:00Z</time>
      </trkpt>
      <trkpt lat="41.90294833" lon="12.485245">
        <ele>31.09</ele>
        <time>1970-01-01T01:00:00Z</time>
      </trkpt>
      <trkpt lat="41.90296333" lon="12.485215">
        <ele>31.09</ele>
        <time>1970-01-01T01:00:00Z</time>
      </trkpt>
      <trkpt lat="41.90298" lon="12.48518333">
        <ele>31.09</ele>
        <time>1970-01-01T01:00:00Z</time>
      </trkpt>
      <trkpt lat="41.90299667" lon="12.48515333">
        <ele>31.09</ele>
        <time>1970-01-01T01:00:00Z</time>
      </trkpt>
      <trkpt lat="41.90301333" lon="12.485125">
        <ele>31.09</ele>
        <time>1970-01-01T01:00:00Z</time>
      </trkpt>
      <trkpt lat="41.90303167" lon="12.48509667">
        <ele>31.09</ele>
        <time>1970-01-01T01:00:00Z</time>
      </trkpt>
      <trkpt lat="41.90305" lon="12.48507">
        <ele>31.09</ele>
        <time>1970-01-01T01:00:00Z</time>
      </trkpt>
      <trkpt lat="41.90306667" lon="12.485045">
        <ele>31.09</ele>
        <time>1970-01-01T01:00:00Z</time>
      </trkpt>
      <trkpt lat="41.903085" lon="12.48501667">
        <ele>31.09</ele>
        <time>1970-01-01T01:00:00Z</time>
      </trkpt>
      <trkpt lat="41.90310167" lon="12.48499167">
        <ele>31.09</ele>
        <time>1970-01-01T01:00:00Z</time>
      </trkpt>
      <trkpt lat="41.90311833" lon="12.48496667">
        <ele>31.09</ele>
        <time>1970-01-01T01:00:00Z</time>
      </trkpt>
      <trkpt lat="41.903135" lon="12.48494167">
        <ele>31.09</ele>
        <time>1970-01-01T01:00:00Z</time>
      </trkpt>
      <trkpt lat="41.903155" lon="12.484915">
        <ele>31.09</ele>
        <time>1970-01-01T01:00:00Z</time>
      </trkpt>
      <trkpt lat="41.90317667" lon="12.48489">
        <ele>31.09</ele>
        <time>1970-01-01T01:00:00Z</time>
      </trkpt>
      <trkpt lat="41.90319833" lon="12.48486833">
        <ele>31.09</ele>
        <time>1970-01-01T01:00:00Z</time>
      </trkpt>
      <trkpt lat="41.90322167" lon="12.484845">
        <ele>31.09</ele>
        <time>1970-01-01T01:00:00Z</time>
      </trkpt>
      <trkpt lat="41.90324333" lon="12.48482333">
        <ele>31.09</ele>
        <time>1970-01-01T01:00:00Z</time>
      </trkpt>
      <trkpt lat="41.903265" lon="12.48480167">
        <ele>31.09</ele>
        <time>1970-01-01T01:00:00Z</time>
      </trkpt>
      <trkpt lat="41.90328667" lon="12.48478167">
        <ele>31.09</ele>
        <time>1970-01-01T01:00:00Z</time>
      </trkpt>
      <trkpt lat="41.90330833" lon="12.48476">
        <ele>31.09</ele>
        <time>1970-01-01T01:00:00Z</time>
      </trkpt>
      <trkpt lat="41.90333" lon="12.48474">
        <ele>31.09</ele>
        <time>1970-01-01T01:00:00Z</time>
      </trkpt>
      <trkpt lat="41.90335333" lon="12.48472">
        <ele>31.09</ele>
        <time>1970-01-01T01:00:00Z</time>
      </trkpt>
      <trkpt lat="41.903375" lon="12.4847">
        <ele>31.09</ele>
        <time>1970-01-01T01:00:00Z</time>
      </trkpt>
      <trkpt lat="41.903395" lon="12.48468167">
        <ele>31.09</ele>
        <time>1970-01-01T01:00:00Z</time>
      </trkpt>
      <trkpt lat="41.90341667" lon="12.484665">
        <ele>31.09</ele>
        <time>1970-01-01T01:00:00Z</time>
      </trkpt>
      <trkpt lat="41.90344167" lon="12.48464667">
        <ele>31.09</ele>
        <time>1970-01-01T01:00:00Z</time>
      </trkpt>
      <trkpt lat="41.903465" lon="12.48462667">
        <ele>31.09</ele>
        <time>1970-01-01T01:00:00Z</time>
      </trkpt>
      <trkpt lat="41.90348667" lon="12.48460667">
        <ele>31.09</ele>
        <time>1970-01-01T01:00:00Z</time>
      </trkpt>
      <trkpt lat="41.90350833" lon="12.48459">
        <ele>31.09</ele>
        <time>1970-01-01T01:00:00Z</time>
      </trkpt>
      <trkpt lat="41.90353" lon="12.484575">
        <ele>31.09</ele>
        <time>1970-01-01T01:00:00Z</time>
      </trkpt>
      <trkpt lat="41.90355" lon="12.48456">
        <ele>31.09</ele>
        <time>1970-01-01T01:00:00Z</time>
      </trkpt>
      <trkpt lat="41.90356667" lon="12.48454833">
        <ele>31.09</ele>
        <time>1970-01-01T01:00:00Z</time>
      </trkpt>
      <trkpt lat="41.90358333" lon="12.484535">
        <ele>30.023</ele>
        <time>1970-01-01T01:00:00Z</time>
      </trkpt>
      <trkpt lat="41.9036" lon="12.48451833">
        <ele>30.023</ele>
        <time>1970-01-01T01:00:00Z</time>
      </trkpt>
      <trkpt lat="41.90362" lon="12.484505">
        <ele>30.023</ele>
        <time>1970-01-01T01:00:00Z</time>
      </trkpt>
      <trkpt lat="41.90363833" lon="12.48449">
        <ele>30.023</ele>
        <time>1970-01-01T01:00:00Z</time>
      </trkpt>
      <trkpt lat="41.90365667" lon="12.48447833">
        <ele>30.023</ele>
        <time>1970-01-01T01:00:00Z</time>
      </trkpt>
      <trkpt lat="41.90367667" lon="12.48446333">
        <ele>30.023</ele>
        <time>1970-01-01T01:00:00Z</time>
      </trkpt>
      <trkpt lat="41.9037" lon="12.48444667">
        <ele>30.023</ele>
        <time>1970-01-01T01:00:00Z</time>
      </trkpt>
      <trkpt lat="41.90372" lon="12.48443167">
        <ele>30.023</ele>
        <time>1970-01-01T01:00:00Z</time>
      </trkpt>
      <trkpt lat="41.90374167" lon="12.48441333">
        <ele>30.023</ele>
        <time>1970-01-01T01:00:00Z</time>
      </trkpt>
      <trkpt lat="41.90376333" lon="12.48439667">
        <ele>30.023</ele>
        <time>1970-01-01T01:00:00Z</time>
      </trkpt>
      <trkpt lat="41.90378167" lon="12.48438">
        <ele>29.109</ele>
        <time>1970-01-01T01:00:00Z</time>
      </trkpt>
      <trkpt lat="41.9038" lon="12.48436667">
        <ele>29.109</ele>
        <time>1970-01-01T01:00:00Z</time>
      </trkpt>
      <trkpt lat="41.90381333" lon="12.48435667">
        <ele>29.109</ele>
        <time>1970-01-01T01:00:00Z</time>
      </trkpt>
      <trkpt lat="41.90382667" lon="12.484345">
        <ele>29.109</ele>
        <time>1970-01-01T01:00:00Z</time>
      </trkpt>
      <trkpt lat="41.90383833" lon="12.48433">
        <ele>29.109</ele>
        <time>1970-01-01T01:00:00Z</time>
      </trkpt>
      <trkpt lat="41.90385" lon="12.48431333">
        <ele>29.109</ele>
        <time>1970-01-01T01:00:00Z</time>
      </trkpt>
      <trkpt lat="41.90386167" lon="12.48429333">
        <ele>29.109</ele>
        <time>1970-01-01T01:00:00Z</time>
      </trkpt>
      <trkpt lat="41.90387333" lon="12.484275">
        <ele>29.109</ele>
        <time>1970-01-01T01:00:00Z</time>
      </trkpt>
      <trkpt lat="41.903885" lon="12.48425833">
        <ele>29.109</ele>
        <time>1970-01-01T01:00:00Z</time>
      </trkpt>
      <trkpt lat="41.9039" lon="12.48424">
        <ele>29.109</ele>
        <time>1970-01-01T01:00:00Z</time>
      </trkpt>
      <trkpt lat="41.90391833" lon="12.484225">
        <ele>28.042</ele>
        <time>1970-01-01T01:00:00Z</time>
      </trkpt>
      <trkpt lat="41.903935" lon="12.484205">
        <ele>28.042</ele>
        <time>1970-01-01T01:00:00Z</time>
      </trkpt>
      <trkpt lat="41.90395333" lon="12.484185">
        <ele>28.042</ele>
        <time>1970-01-01T01:00:00Z</time>
      </trkpt>
      <trkpt lat="41.90397" lon="12.484165">
        <ele>28.042</ele>
        <time>1970-01-01T01:00:00Z</time>
      </trkpt>
      <trkpt lat="41.90398667" lon="12.484145">
        <ele>28.042</ele>
        <time>1970-01-01T01:00:00Z</time>
      </trkpt>
      <trkpt lat="41.90400333" lon="12.48412667">
        <ele>28.042</ele>
        <time>1970-01-01T01:00:00Z</time>
      </trkpt>
      <trkpt lat="41.90401833" lon="12.48411167">
        <ele>28.042</ele>
        <time>1970-01-01T01:00:00Z</time>
      </trkpt>
      <trkpt lat="41.90402833" lon="12.48409667">
        <ele>28.042</ele>
        <time>1970-01-01T01:00:00Z</time>
      </trkpt>
      <trkpt lat="41.90404" lon="12.48408167">
        <ele>28.042</ele>
        <time>1970-01-01T01:00:00Z</time>
      </trkpt>
      <trkpt lat="41.90405" lon="12.484065">
        <ele>28.042</ele>
        <time>1970-01-01T01:00:00Z</time>
      </trkpt>
      <trkpt lat="41.90406" lon="12.48404833">
        <ele>27.128</ele>
        <time>1970-01-01T01:00:00Z</time>
      </trkpt>
      <trkpt lat="41.90407333" lon="12.48403">
        <ele>27.128</ele>
        <time>1970-01-01T01:00:00Z</time>
      </trkpt>
      <trkpt lat="41.90408333" lon="12.48401333">
        <ele>27.128</ele>
        <time>1970-01-01T01:00:00Z</time>
      </trkpt>
      <trkpt lat="41.90409833" lon="12.48399333">
        <ele>27.128</ele>
        <time>1970-01-01T01:00:00Z</time>
      </trkpt>
      <trkpt lat="41.90410833" lon="12.483975">
        <ele>27.128</ele>
        <time>1970-01-01T01:00:00Z</time>
      </trkpt>
      <trkpt lat="41.90412" lon="12.483955">
        <ele>27.128</ele>
        <time>1970-01-01T01:00:00Z</time>
      </trkpt>
      <trkpt lat="41.90413333" lon="12.48393833">
        <ele>27.128</ele>
        <time>1970-01-01T01:00:00Z</time>
      </trkpt>
      <trkpt lat="41.90414833" lon="12.48392167">
        <ele>27.128</ele>
        <time>1970-01-01T01:00:00Z</time>
      </trkpt>
      <trkpt lat="41.90416333" lon="12.48390333">
        <ele>26.061</ele>
        <time>1970-01-01T01:00:00Z</time>
      </trkpt>
      <trkpt lat="41.90417833" lon="12.483885">
        <ele>26.061</ele>
        <time>1970-01-01T01:00:00Z</time>
      </trkpt>
      <trkpt lat="41.904195" lon="12.48386833">
        <ele>26.061</ele>
        <time>1970-01-01T01:00:00Z</time>
      </trkpt>
      <trkpt lat="41.90421333" lon="12.483855">
        <ele>26.061</ele>
        <time>1970-01-01T01:00:00Z</time>
      </trkpt>
      <trkpt lat="41.90423" lon="12.48383833">
        <ele>26.061</ele>
        <time>1970-01-01T01:00:00Z</time>
      </trkpt>
      <trkpt lat="41.90424333" lon="12.48382">
        <ele>26.061</ele>
        <time>1970-01-01T01:00:00Z</time>
      </trkpt>
      <trkpt lat="41.90425833" lon="12.48380333">
        <ele>26.061</ele>
        <time>1970-01-01T01:00:00Z</time>
      </trkpt>
      <trkpt lat="41.90427167" lon="12.48378667">
        <ele>26.061</ele>
        <time>1970-01-01T01:00:00Z</time>
      </trkpt>
      <trkpt lat="41.90428667" lon="12.48377">
        <ele>26.061</ele>
        <time>1970-01-01T01:00:00Z</time>
      </trkpt>
      <trkpt lat="41.90430167" lon="12.48374833">
        <ele>26.061</ele>
        <time>1970-01-01T01:00:00Z</time>
      </trkpt>
      <trkpt lat="41.90431333" lon="12.48372667">
        <ele>26.061</ele>
        <time>1970-01-01T01:00:00Z</time>
      </trkpt>
      <trkpt lat="41.90432667" lon="12.48370667">
        <ele>26.061</ele>
        <time>1970-01-01T01:00:00Z</time>
      </trkpt>
      <trkpt lat="41.90434" lon="12.48368333">
        <ele>26.061</ele>
        <time>1970-01-01T01:00:00Z</time>
      </trkpt>
      <trkpt lat="41.90435333" lon="12.48366167">
        <ele>26.061</ele>
        <time>1970-01-01T01:00:00Z</time>
      </trkpt>
      <trkpt lat="41.90436833" lon="12.48363667">
        <ele>26.061</ele>
        <time>1970-01-01T01:00:00Z</time>
      </trkpt>
      <trkpt lat="41.90438333" lon="12.483615">
        <ele>26.061</ele>
        <time>1970-01-01T01:00:00Z</time>
      </trkpt>
      <trkpt lat="41.90439833" lon="12.483595">
        <ele>26.061</ele>
        <time>1970-01-01T01:00:00Z</time>
      </trkpt>
      <trkpt lat="41.90441667" lon="12.48357667">
        <ele>26.061</ele>
        <time>1970-01-01T01:00:00Z</time>
      </trkpt>
      <trkpt lat="41.904435" lon="12.48355833">
        <ele>26.061</ele>
        <time>1970-01-01T01:00:00Z</time>
      </trkpt>
      <trkpt lat="41.90445333" lon="12.48354">
        <ele>26.061</ele>
        <time>1970-01-01T01:00:00Z</time>
      </trkpt>
      <trkpt lat="41.90447333" lon="12.483525">
        <ele>26.061</ele>
        <time>1970-01-01T01:00:00Z</time>
      </trkpt>
      <trkpt lat="41.90449333" lon="12.48351">
        <ele>26.061</ele>
        <time>1970-01-01T01:00:00Z</time>
      </trkpt>
      <trkpt lat="41.90451167" lon="12.48349167">
        <ele>26.061</ele>
        <time>1970-01-01T01:00:00Z</time>
      </trkpt>
      <trkpt lat="41.90453" lon="12.48347667">
        <ele>26.061</ele>
        <time>1970-01-01T01:00:00Z</time>
      </trkpt>
      <trkpt lat="41.90454667" lon="12.48345667">
        <ele>25.146</ele>
        <time>1970-01-01T01:00:00Z</time>
      </trkpt>
      <trkpt lat="41.904565" lon="12.48343667">
        <ele>25.146</ele>
        <time>1970-01-01T01:00:00Z</time>
      </trkpt>
      <trkpt lat="41.90458333" lon="12.48341833">
        <ele>25.146</ele>
        <time>1970-01-01T01:00:00Z</time>
      </trkpt>
      <trkpt lat="41.9046" lon="12.48339833">
        <ele>25.146</ele>
        <time>1970-01-01T01:00:00Z</time>
      </trkpt>
      <trkpt lat="41.904615" lon="12.48337833">
        <ele>25.146</ele>
        <time>1970-01-01T01:00:00Z</time>
      </trkpt>
      <trkpt lat="41.90463167" lon="12.48335667">
        <ele>25.146</ele>
        <time>1970-01-01T01:00:00Z</time>
      </trkpt>
      <trkpt lat="41.90464667" lon="12.48333667">
        <ele>24.079</ele>
        <time>1970-01-01T01:00:00Z</time>
      </trkpt>
      <trkpt lat="41.90466" lon="12.48331167">
        <ele>24.079</ele>
        <time>1970-01-01T01:00:00Z</time>
      </trkpt>
      <trkpt lat="41.90467333" lon="12.48328833">
        <ele>24.079</ele>
        <time>1970-01-01T01:00:00Z</time>
      </trkpt>
      <trkpt lat="41.90468667" lon="12.48327">
        <ele>24.079</ele>
        <time>1970-01-01T01:00:00Z</time>
      </trkpt>
      <trkpt lat="41.90470167" lon="12.483255">
        <ele>24.079</ele>
        <time>1970-01-01T01:00:00Z</time>
      </trkpt>
      <trkpt lat="41.904715" lon="12.48323833">
        <ele>24.079</ele>
        <time>1970-01-01T01:00:00Z</time>
      </trkpt>
      <trkpt lat="41.90472833" lon="12.48322333">
        <ele>24.079</ele>
        <time>1970-01-01T01:00:00Z</time>
      </trkpt>
      <trkpt lat="41.90474167" lon="12.48321">
        <ele>24.079</ele>
        <time>1970-01-01T01:00:00Z</time>
      </trkpt>
      <trkpt lat="41.90475833" lon="12.483195">
        <ele>24.079</ele>
        <time>1970-01-01T01:00:00Z</time>
      </trkpt>
      <trkpt lat="41.904775" lon="12.483185">
        <ele>24.079</ele>
        <time>1970-01-01T01:00:00Z</time>
      </trkpt>
      <trkpt lat="41.90479167" lon="12.48317167">
        <ele>24.079</ele>
        <time>1970-01-01T01:00:00Z</time>
      </trkpt>
      <trkpt lat="41.90480833" lon="12.48315667">
        <ele>24.079</ele>
        <time>1970-01-01T01:00:00Z</time>
      </trkpt>
      <trkpt lat="41.904825" lon="12.483145">
        <ele>24.079</ele>
        <time>1970-01-01T01:00:00Z</time>
      </trkpt>
      <trkpt lat="41.90484167" lon="12.48313167">
        <ele>24.079</ele>
        <time>1970-01-01T01:00:00Z</time>
      </trkpt>
      <trkpt lat="41.90486" lon="12.48311833">
        <ele>24.079</ele>
        <time>1970-01-01T01:00:00Z</time>
      </trkpt>
      <trkpt lat="41.90487333" lon="12.48310333">
        <ele>24.079</ele>
        <time>1970-01-01T01:00:00Z</time>
      </trkpt>
      <trkpt lat="41.90489" lon="12.48309">
        <ele>23.165</ele>
        <time>1970-01-01T01:00:00Z</time>
      </trkpt>
      <trkpt lat="41.90490667" lon="12.48307667">
        <ele>23.165</ele>
        <time>1970-01-01T01:00:00Z</time>
      </trkpt>
      <trkpt lat="41.904925" lon="12.48306167">
        <ele>23.165</ele>
        <time>1970-01-01T01:00:00Z</time>
      </trkpt>
      <trkpt lat="41.90494" lon="12.483045">
        <ele>23.165</ele>
        <time>1970-01-01T01:00:00Z</time>
      </trkpt>
      <trkpt lat="41.904955" lon="12.48302833">
        <ele>23.165</ele>
        <time>1970-01-01T01:00:00Z</time>
      </trkpt>
      <trkpt lat="41.90496833" lon="12.48301333">
        <ele>23.165</ele>
        <time>1970-01-01T01:00:00Z</time>
      </trkpt>
      <trkpt lat="41.90498167" lon="12.48299833">
        <ele>23.165</ele>
        <time>1970-01-01T01:00:00Z</time>
      </trkpt>
      <trkpt lat="41.90499833" lon="12.48298333">
        <ele>23.165</ele>
        <time>1970-01-01T01:00:00Z</time>
      </trkpt>
      <trkpt lat="41.90501167" lon="12.48296667">
        <ele>23.165</ele>
        <time>1970-01-01T01:00:00Z</time>
      </trkpt>
      <trkpt lat="41.905025" lon="12.48295">
        <ele>23.165</ele>
        <time>1970-01-01T01:00:00Z</time>
      </trkpt>
      <trkpt lat="41.90503833" lon="12.48293">
        <ele>23.165</ele>
        <time>1970-01-01T01:00:00Z</time>
      </trkpt>
      <trkpt lat="41.90505167" lon="12.48291">
        <ele>23.165</ele>
        <time>1970-01-01T01:00:00Z</time>
      </trkpt>
      <trkpt lat="41.90506833" lon="12.48289333">
        <ele>23.165</ele>
        <time>1970-01-01T01:00:00Z</time>
      </trkpt>
      <trkpt lat="41.905085" lon="12.48287667">
        <ele>23.165</ele>
        <time>1970-01-01T01:00:00Z</time>
      </trkpt>
      <trkpt lat="41.905105" lon="12.48286">
        <ele>22.098</ele>
        <time>1970-01-01T01:00:00Z</time>
      </trkpt>
      <trkpt lat="41.90512167" lon="12.48284333">
        <ele>22.098</ele>
        <time>1970-01-01T01:00:00Z</time>
      </trkpt>
      <trkpt lat="41.90514" lon="12.48282667">
        <ele>22.098</ele>
        <time>1970-01-01T01:00:00Z</time>
      </trkpt>
      <trkpt lat="41.90515667" lon="12.48280833">
        <ele>22.098</ele>
        <time>1970-01-01T01:00:00Z</time>
      </trkpt>
      <trkpt lat="41.90517333" lon="12.48279167">
        <ele>22.098</ele>
        <time>1970-01-01T01:00:00Z</time>
      </trkpt>
      <trkpt lat="41.90519" lon="12.48277667">
        <ele>22.098</ele>
        <time>1970-01-01T01:00:00Z</time>
      </trkpt>
      <trkpt lat="41.90520667" lon="12.48276">
        <ele>22.098</ele>
        <time>1970-01-01T01:00:00Z</time>
      </trkpt>
      <trkpt lat="41.905225" lon="12.48274">
        <ele>22.098</ele>
        <time>1970-01-01T01:00:00Z</time>
      </trkpt>
      <trkpt lat="41.90524167" lon="12.48272167">
        <ele>22.098</ele>
        <time>1970-01-01T01:00:00Z</time>
      </trkpt>
      <trkpt lat="41.90525833" lon="12.48270167">
        <ele>22.098</ele>
        <time>1970-01-01T01:00:00Z</time>
      </trkpt>
      <trkpt lat="41.905275" lon="12.48268333">
        <ele>22.098</ele>
        <time>1970-01-01T01:00:00Z</time>
      </trkpt>
      <trkpt lat="41.90529167" lon="12.482665">
        <ele>22.098</ele>
        <time>1970-01-01T01:00:00Z</time>
      </trkpt>
      <trkpt lat="41.905305" lon="12.48265">
        <ele>22.098</ele>
        <time>1970-01-01T01:00:00Z</time>
      </trkpt>
      <trkpt lat="41.90531833" lon="12.482635">
        <ele>22.098</ele>
        <time>1970-01-01T01:00:00Z</time>
      </trkpt>
      <trkpt lat="41.90533333" lon="12.48262167">
        <ele>21.031</ele>
        <time>1970-01-01T01:00:00Z</time>
      </trkpt>
      <trkpt lat="41.90535" lon="12.48260833">
        <ele>21.031</ele>
        <time>1970-01-01T01:00:00Z</time>
      </trkpt>
      <trkpt lat="41.90536833" lon="12.482595">
        <ele>21.031</ele>
        <time>1970-01-01T01:00:00Z</time>
      </trkpt>
      <trkpt lat="41.90538667" lon="12.48258">
        <ele>21.031</ele>
        <time>1970-01-01T01:00:00Z</time>
      </trkpt>
      <trkpt lat="41.90540667" lon="12.48256667">
        <ele>21.031</ele>
        <time>1970-01-01T01:00:00Z</time>
      </trkpt>
      <trkpt lat="41.90542667" lon="12.48255167">
        <ele>21.031</ele>
        <time>1970-01-01T01:00:00Z</time>
      </trkpt>
      <trkpt lat="41.905445" lon="12.48254">
        <ele>21.031</ele>
        <time>1970-01-01T01:00:00Z</time>
      </trkpt>
      <trkpt lat="41.905465" lon="12.48252667">
        <ele>21.031</ele>
        <time>1970-01-01T01:00:00Z</time>
      </trkpt>
      <trkpt lat="41.90548333" lon="12.48251333">
        <ele>20.117</ele>
        <time>1970-01-01T01:00:00Z</time>
      </trkpt>
      <trkpt lat="41.90550333" lon="12.48249667">
        <ele>20.117</ele>
        <time>1970-01-01T01:00:00Z</time>
      </trkpt>
      <trkpt lat="41.90552333" lon="12.48248">
        <ele>20.117</ele>
        <time>1970-01-01T01:00:00Z</time>
      </trkpt>
      <trkpt lat="41.90554167" lon="12.48246167">
        <ele>20.117</ele>
        <time>1970-01-01T01:00:00Z</time>
      </trkpt>
      <trkpt lat="41.90556" lon="12.48244333">
        <ele>20.117</ele>
        <time>1970-01-01T01:00:00Z</time>
      </trkpt>
      <trkpt lat="41.90558" lon="12.48242333">
        <ele>20.117</ele>
        <time>1970-01-01T01:00:00Z</time>
      </trkpt>
      <trkpt lat="41.9056" lon="12.48240833">
        <ele>20.117</ele>
        <time>1970-01-01T01:00:00Z</time>
      </trkpt>
      <trkpt lat="41.90562" lon="12.48239667">
        <ele>20.117</ele>
        <time>1970-01-01T01:00:00Z</time>
      </trkpt>
      <trkpt lat="41.90564167" lon="12.48238333">
        <ele>20.117</ele>
        <time>1970-01-01T01:00:00Z</time>
      </trkpt>
      <trkpt lat="41.90566" lon="12.48237167">
        <ele>20.117</ele>
        <time>1970-01-01T01:00:00Z</time>
      </trkpt>
      <trkpt lat="41.90568" lon="12.48235667">
        <ele>20.117</ele>
        <time>1970-01-01T01:00:00Z</time>
      </trkpt>
      <trkpt lat="41.90569667" lon="12.482345">
        <ele>20.117</ele>
        <time>1970-01-01T01:00:00Z</time>
      </trkpt>
      <trkpt lat="41.905715" lon="12.48233333">
        <ele>20.117</ele>
        <time>1970-01-01T01:00:00Z</time>
      </trkpt>
      <trkpt lat="41.90573" lon="12.48232833">
        <ele>20.117</ele>
        <time>1970-01-01T01:00:00Z</time>
      </trkpt>
      <trkpt lat="41.90574667" lon="12.48233">
        <ele>20.117</ele>
        <time>1970-01-01T01:00:00Z</time>
      </trkpt>
      <trkpt lat="41.90576167" lon="12.482335">
        <ele>20.117</ele>
        <time>1970-01-01T01:00:00Z</time>
      </trkpt>
      <trkpt lat="41.90577167" lon="12.48234833">
        <ele>20.117</ele>
        <time>1970-01-01T01:00:00Z</time>
      </trkpt>
      <trkpt lat="41.90578" lon="12.48236167">
        <ele>20.117</ele>
        <time>1970-01-01T01:00:00Z</time>
      </trkpt>
      <trkpt lat="41.90578833" lon="12.48237833">
        <ele>21.031</ele>
        <time>1970-01-01T01:00:00Z</time>
      </trkpt>
      <trkpt lat="41.905795" lon="12.48239833">
        <ele>21.031</ele>
        <time>1970-01-01T01:00:00Z</time>
      </trkpt>
      <trkpt lat="41.90580167" lon="12.482415">
        <ele>21.031</ele>
        <time>1970-01-01T01:00:00Z</time>
      </trkpt>
      <trkpt lat="41.90580667" lon="12.48243333">
        <ele>21.031</ele>
        <time>1970-01-01T01:00:00Z</time>
      </trkpt>
      <trkpt lat="41.90581167" lon="12.48245">
        <ele>21.031</ele>
        <time>1970-01-01T01:00:00Z</time>
      </trkpt>
      <trkpt lat="41.90582" lon="12.48246667">
        <ele>21.031</ele>
        <time>1970-01-01T01:00:00Z</time>
      </trkpt>
      <trkpt lat="41.90582667" lon="12.482485">
        <ele>21.031</ele>
        <time>1970-01-01T01:00:00Z</time>
      </trkpt>
      <trkpt lat="41.905835" lon="12.48250333">
        <ele>21.031</ele>
        <time>1970-01-01T01:00:00Z</time>
      </trkpt>
      <trkpt lat="41.90583833" lon="12.48251833">
        <ele>21.031</ele>
        <time>1970-01-01T01:00:00Z</time>
      </trkpt>
      <trkpt lat="41.90584333" lon="12.482535">
        <ele>21.031</ele>
        <time>1970-01-01T01:00:00Z</time>
      </trkpt>
      <trkpt lat="41.90584833" lon="12.48255667">
        <ele>25.146</ele>
        <time>1970-01-01T01:00:00Z</time>
      </trkpt>
      <trkpt lat="41.90585333" lon="12.48258167">
        <ele>25.146</ele>
        <time>1970-01-01T01:00:00Z</time>
      </trkpt>
      <trkpt lat="41.90585833" lon="12.48260333">
        <ele>25.146</ele>
        <time>1970-01-01T01:00:00Z</time>
      </trkpt>
      <trkpt lat="41.90586" lon="12.48262667">
        <ele>25.146</ele>
        <time>1970-01-01T01:00:00Z</time>
      </trkpt>
      <trkpt lat="41.90586" lon="12.48264833">
        <ele>25.146</ele>
        <time>1970-01-01T01:00:00Z</time>
      </trkpt>
      <trkpt lat="41.90585833" lon="12.48267">
        <ele>25.146</ele>
        <time>1970-01-01T01:00:00Z</time>
      </trkpt>
      <trkpt lat="41.90586" lon="12.48268833">
        <ele>25.146</ele>
        <time>1970-01-01T01:00:00Z</time>
      </trkpt>
      <trkpt lat="41.90586" lon="12.48270667">
        <ele>25.146</ele>
        <time>1970-01-01T01:00:00Z</time>
      </trkpt>
      <trkpt lat="41.90585833" lon="12.48272333">
        <ele>29.109</ele>
        <time>1970-01-01T01:00:00Z</time>
      </trkpt>
      <trkpt lat="41.90586" lon="12.482735">
        <ele>29.109</ele>
        <time>1970-01-01T01:00:00Z</time>
      </trkpt>
      <trkpt lat="41.90586167" lon="12.48275">
        <ele>29.109</ele>
        <time>1970-01-01T01:00:00Z</time>
      </trkpt>
      <trkpt lat="41.90586333" lon="12.48276667">
        <ele>29.109</ele>
        <time>1970-01-01T01:00:00Z</time>
      </trkpt>
      <trkpt lat="41.90586667" lon="12.48278167">
        <ele>30.023</ele>
        <time>1970-01-01T01:00:00Z</time>
      </trkpt>
      <trkpt lat="41.90587167" lon="12.48279833">
        <ele>30.023</ele>
        <time>1970-01-01T01:00:00Z</time>
      </trkpt>
      <trkpt lat="41.90587333" lon="12.48281333">
        <ele>31.09</ele>
        <time>1970-01-01T01:00:00Z</time>
      </trkpt>
      <trkpt lat="41.905875" lon="12.48282667">
        <ele>31.09</ele>
        <time>1970-01-01T01:00:00Z</time>
      </trkpt>
      <trkpt lat="41.90588" lon="12.48284167">
        <ele>31.09</ele>
        <time>1970-01-01T01:00:00Z</time>
      </trkpt>
      <trkpt lat="41.90589" lon="12.48285833">
        <ele>31.09</ele>
        <time>1970-01-01T01:00:00Z</time>
      </trkpt>
      <trkpt lat="41.905905" lon="12.482875">
        <ele>32.157</ele>
        <time>1970-01-01T01:00:00Z</time>
      </trkpt>
      <trkpt lat="41.90592" lon="12.48289333">
        <ele>32.157</ele>
        <time>1970-01-01T01:00:00Z</time>
      </trkpt>
      <trkpt lat="41.90594" lon="12.48291333">
        <ele>32.157</ele>
        <time>1970-01-01T01:00:00Z</time>
      </trkpt>
      <trkpt lat="41.90595833" lon="12.48293167">
        <ele>32.157</ele>
        <time>1970-01-01T01:00:00Z</time>
      </trkpt>
      <trkpt lat="41.90597833" lon="12.48295333">
        <ele>32.157</ele>
        <time>1970-01-01T01:00:00Z</time>
      </trkpt>
      <trkpt lat="41.906" lon="12.48297333">
        <ele>32.157</ele>
        <time>1970-01-01T01:00:00Z</time>
      </trkpt>
      <trkpt lat="41.90601833" lon="12.48299167">
        <ele>33.071</ele>
        <time>1970-01-01T01:00:00Z</time>
      </trkpt>
      <trkpt lat="41.90603833" lon="12.48300667">
        <ele>33.071</ele>
        <time>1970-01-01T01:00:00Z</time>
      </trkpt>
      <trkpt lat="41.90605667" lon="12.48302167">
        <ele>34.138</ele>
        <time>1970-01-01T01:00:00Z</time>
      </trkpt>
      <trkpt lat="41.90607333" lon="12.48303667">
        <ele>34.138</ele>
        <time>1970-01-01T01:00:00Z</time>
      </trkpt>
      <trkpt lat="41.90608833" lon="12.48305333">
        <ele>34.138</ele>
        <time>1970-01-01T01:00:00Z</time>
      </trkpt>
      <trkpt lat="41.90609667" lon="12.48307667">
        <ele>34.138</ele>
        <time>1970-01-01T01:00:00Z</time>
      </trkpt>
      <trkpt lat="41.906095" lon="12.48310333">
        <ele>36.119</ele>
        <time>1970-01-01T01:00:00Z</time>
      </trkpt>
      <trkpt lat="41.90609" lon="12.48312333">
        <ele>36.119</ele>
        <time>1970-01-01T01:00:00Z</time>
      </trkpt>
      <trkpt lat="41.90608167" lon="12.48314">
        <ele>37.034</ele>
        <time>1970-01-01T01:00:00Z</time>
      </trkpt>
      <trkpt lat="41.90607833" lon="12.48315667">
        <ele>37.034</ele>
        <time>1970-01-01T01:00:00Z</time>
      </trkpt>
      <trkpt lat="41.90607167" lon="12.48317667">
        <ele>38.1</ele>
        <time>1970-01-01T01:00:00Z</time>
      </trkpt>
      <trkpt lat="41.90606333" lon="12.483195">
        <ele>38.1</ele>
        <time>1970-01-01T01:00:00Z</time>
      </trkpt>
      <trkpt lat="41.90605833" lon="12.48320833">
        <ele>38.1</ele>
        <time>1970-01-01T01:00:00Z</time>
      </trkpt>
      <trkpt lat="41.90604833" lon="12.48322333">
        <ele>38.1</ele>
        <time>1970-01-01T01:00:00Z</time>
      </trkpt>
      <trkpt lat="41.90603833" lon="12.48323833">
        <ele>39.015</ele>
        <time>1970-01-01T01:00:00Z</time>
      </trkpt>
      <trkpt lat="41.90603" lon="12.48325167">
        <ele>39.015</ele>
        <time>1970-01-01T01:00:00Z</time>
      </trkpt>
      <trkpt lat="41.90602167" lon="12.483265">
        <ele>40.082</ele>
        <time>1970-01-01T01:00:00Z</time>
      </trkpt>
      <trkpt lat="41.90601333" lon="12.48327667">
        <ele>40.082</ele>
        <time>1970-01-01T01:00:00Z</time>
      </trkpt>
      <trkpt lat="41.90600667" lon="12.48328833">
        <ele>40.082</ele>
        <time>1970-01-01T01:00:00Z</time>
      </trkpt>
      <trkpt lat="41.906" lon="12.4833">
        <ele>40.082</ele>
        <time>1970-01-01T01:00:00Z</time>
      </trkpt>
      <trkpt lat="41.905995" lon="12.48331167">
        <ele>41.148</ele>
        <time>1970-01-01T01:00:00Z</time>
      </trkpt>
      <trkpt lat="41.90599167" lon="12.48332167">
        <ele>41.148</ele>
        <time>1970-01-01T01:00:00Z</time>
      </trkpt>
      <trkpt lat="41.90599" lon="12.48332833">
        <ele>42.063</ele>
        <time>1970-01-01T01:00:00Z</time>
      </trkpt>
      <trkpt lat="41.90599" lon="12.48333333">
        <ele>42.063</ele>
        <time>1970-01-01T01:00:00Z</time>
      </trkpt>
      <trkpt lat="41.90599333" lon="12.48333667">
        <ele>42.063</ele>
        <time>1970-01-01T01:00:00Z</time>
      </trkpt>
      <trkpt lat="41.90607" lon="12.48316833">
        <ele>52.121</ele>
        <time>1970-01-01T01:00:00Z</time>
      </trkpt>
      <trkpt lat="41.90606333" lon="12.48318333">
        <ele>53.036</ele>
        <time>1970-01-01T01:00:00Z</time>
      </trkpt>
      <trkpt lat="41.90605667" lon="12.48320333">
        <ele>53.036</ele>
        <time>1970-01-01T01:00:00Z</time>
      </trkpt>
      <trkpt lat="41.90605" lon="12.48322833">
        <ele>53.036</ele>
        <time>1970-01-01T01:00:00Z</time>
      </trkpt>
      <trkpt lat="41.90604167" lon="12.48325833">
        <ele>53.036</ele>
        <time>1970-01-01T01:00:00Z</time>
      </trkpt>
      <trkpt lat="41.90603333" lon="12.48328833">
        <ele>53.036</ele>
        <time>1970-01-01T01:00:00Z</time>
      </trkpt>
      <trkpt lat="41.90602167" lon="12.48331833">
        <ele>53.036</ele>
        <time>1970-01-01T01:00:00Z</time>
      </trkpt>
      <trkpt lat="41.90601" lon="12.48334833">
        <ele>53.036</ele>
        <time>1970-01-01T01:00:00Z</time>
      </trkpt>
      <trkpt lat="41.90599667" lon="12.48337833">
        <ele>53.036</ele>
        <time>1970-01-01T01:00:00Z</time>
      </trkpt>
      <trkpt lat="41.90598167" lon="12.48340833">
        <ele>53.036</ele>
        <time>1970-01-01T01:00:00Z</time>
      </trkpt>
      <trkpt lat="41.90596667" lon="12.48344167">
        <ele>53.036</ele>
        <time>1970-01-01T01:00:00Z</time>
      </trkpt>
      <trkpt lat="41.90595" lon="12.48347167">
        <ele>53.036</ele>
        <time>1970-01-01T01:00:00Z</time>
      </trkpt>
      <trkpt lat="41.90593667" lon="12.4835">
        <ele>53.036</ele>
        <time>1970-01-01T01:00:00Z</time>
      </trkpt>
      <trkpt lat="41.90592333" lon="12.48352667">
        <ele>53.036</ele>
        <time>1970-01-01T01:00:00Z</time>
      </trkpt>
      <trkpt lat="41.90591333" lon="12.48355333">
        <ele>53.036</ele>
        <time>1970-01-01T01:00:00Z</time>
      </trkpt>
      <trkpt lat="41.90590333" lon="12.48358167">
        <ele>53.036</ele>
        <time>1970-01-01T01:00:00Z</time>
      </trkpt>
      <trkpt lat="41.90589333" lon="12.48360667">
        <ele>53.036</ele>
        <time>1970-01-01T01:00:00Z</time>
      </trkpt>
      <trkpt lat="41.90588167" lon="12.48363333">
        <ele>53.036</ele>
        <time>1970-01-01T01:00:00Z</time>
      </trkpt>
      <trkpt lat="41.90587333" lon="12.48366167">
        <ele>53.036</ele>
        <time>1970-01-01T01:00:00Z</time>
      </trkpt>
      <trkpt lat="41.90586667" lon="12.48368833">
        <ele>52.121</ele>
        <time>1970-01-01T01:00:00Z</time>
      </trkpt>
      <trkpt lat="41.90585833" lon="12.48371667">
        <ele>52.121</ele>
        <time>1970-01-01T01:00:00Z</time>
      </trkpt>
      <trkpt lat="41.90585" lon="12.48374167">
        <ele>52.121</ele>
        <time>1970-01-01T01:00:00Z</time>
      </trkpt>
      <trkpt lat="41.90584167" lon="12.48376667">
        <ele>52.121</ele>
        <time>1970-01-01T01:00:00Z</time>
      </trkpt>
      <trkpt lat="41.90583333" lon="12.48379167">
        <ele>52.121</ele>
        <time>1970-01-01T01:00:00Z</time>
      </trkpt>
      <trkpt lat="41.90582333" lon="12.48381667">
        <ele>52.121</ele>
        <time>1970-01-01T01:00:00Z</time>
      </trkpt>
      <trkpt lat="41.90581333" lon="12.48384">
        <ele>51.055</ele>
        <time>1970-01-01T01:00:00Z</time>
      </trkpt>
      <trkpt lat="41.90580667" lon="12.483865">
        <ele>51.055</ele>
        <time>1970-01-01T01:00:00Z</time>
      </trkpt>
      <trkpt lat="41.9058" lon="12.48389">
        <ele>51.055</ele>
        <time>1970-01-01T01:00:00Z</time>
      </trkpt>
      <trkpt lat="41.90579333" lon="12.48391833">
        <ele>51.055</ele>
        <time>1970-01-01T01:00:00Z</time>
      </trkpt>
      <trkpt lat="41.905785" lon="12.48394333">
        <ele>51.055</ele>
        <time>1970-01-01T01:00:00Z</time>
      </trkpt>
      <trkpt lat="41.90577667" lon="12.48396833">
        <ele>51.055</ele>
        <time>1970-01-01T01:00:00Z</time>
      </trkpt>
      <trkpt lat="41.90576833" lon="12.483995">
        <ele>50.14</ele>
        <time>1970-01-01T01:00:00Z</time>
      </trkpt>
      <trkpt lat="41.90576167" lon="12.48402333">
        <ele>50.14</ele>
        <time>1970-01-01T01:00:00Z</time>
      </trkpt>
      <trkpt lat="41.90575167" lon="12.48405333">
        <ele>50.14</ele>
        <time>1970-01-01T01:00:00Z</time>
      </trkpt>
      <trkpt lat="41.90574167" lon="12.48407833">
        <ele>50.14</ele>
        <time>1970-01-01T01:00:00Z</time>
      </trkpt>
      <trkpt lat="41.90573" lon="12.48410167">
        <ele>50.14</ele>
        <time>1970-01-01T01:00:00Z</time>
      </trkpt>
      <trkpt lat="41.90571833" lon="12.48412667">
        <ele>50.14</ele>
        <time>1970-01-01T01:00:00Z</time>
      </trkpt>
      <trkpt lat="41.905705" lon="12.48415">
        <ele>50.14</ele>
        <time>1970-01-01T01:00:00Z</time>
      </trkpt>
      <trkpt lat="41.90569167" lon="12.484175">
        <ele>50.14</ele>
        <time>1970-01-01T01:00:00Z</time>
      </trkpt>
      <trkpt lat="41.90568167" lon="12.4842">
        <ele>50.14</ele>
        <time>1970-01-01T01:00:00Z</time>
      </trkpt>
      <trkpt lat="41.90567167" lon="12.484225">
        <ele>50.14</ele>
        <time>1970-01-01T01:00:00Z</time>
      </trkpt>
      <trkpt lat="41.90566167" lon="12.48425167">
        <ele>49.073</ele>
        <time>1970-01-01T01:00:00Z</time>
      </trkpt>
      <trkpt lat="41.90565" lon="12.48427667">
        <ele>49.073</ele>
        <time>1970-01-01T01:00:00Z</time>
      </trkpt>
      <trkpt lat="41.90563833" lon="12.48429833">
        <ele>49.073</ele>
        <time>1970-01-01T01:00:00Z</time>
      </trkpt>
      <trkpt lat="41.90562667" lon="12.48432167">
        <ele>49.073</ele>
        <time>1970-01-01T01:00:00Z</time>
      </trkpt>
      <trkpt lat="41.90561333" lon="12.48434833">
        <ele>49.073</ele>
        <time>1970-01-01T01:00:00Z</time>
      </trkpt>
      <trkpt lat="41.9056" lon="12.484375">
        <ele>49.073</ele>
        <time>1970-01-01T01:00:00Z</time>
      </trkpt>
      <trkpt lat="41.90558833" lon="12.4844">
        <ele>49.073</ele>
        <time>1970-01-01T01:00:00Z</time>
      </trkpt>
      <trkpt lat="41.905575" lon="12.484425">
        <ele>49.073</ele>
        <time>1970-01-01T01:00:00Z</time>
      </trkpt>
      <trkpt lat="41.90556333" lon="12.48445">
        <ele>49.073</ele>
        <time>1970-01-01T01:00:00Z</time>
      </trkpt>
      <trkpt lat="41.90555333" lon="12.484475">
        <ele>49.073</ele>
        <time>1970-01-01T01:00:00Z</time>
      </trkpt>
      <trkpt lat="41.905545" lon="12.48450333">
        <ele>49.073</ele>
        <time>1970-01-01T01:00:00Z</time>
      </trkpt>
      <trkpt lat="41.90553333" lon="12.48453">
        <ele>49.073</ele>
        <time>1970-01-01T01:00:00Z</time>
      </trkpt>
      <trkpt lat="41.90552" lon="12.48455667">
        <ele>49.073</ele>
        <time>1970-01-01T01:00:00Z</time>
      </trkpt>
      <trkpt lat="41.90550333" lon="12.48458333">
        <ele>49.073</ele>
        <time>1970-01-01T01:00:00Z</time>
      </trkpt>
      <trkpt lat="41.90549" lon="12.48460833">
        <ele>49.073</ele>
        <time>1970-01-01T01:00:00Z</time>
      </trkpt>
      <trkpt lat="41.90547667" lon="12.48463167">
        <ele>49.073</ele>
        <time>1970-01-01T01:00:00Z</time>
      </trkpt>
      <trkpt lat="41.905465" lon="12.48465667">
        <ele>49.073</ele>
        <time>1970-01-01T01:00:00Z</time>
      </trkpt>
      <trkpt lat="41.90545667" lon="12.48468">
        <ele>49.073</ele>
        <time>1970-01-01T01:00:00Z</time>
      </trkpt>
      <trkpt lat="41.90544833" lon="12.48470667">
        <ele>49.073</ele>
        <time>1970-01-01T01:00:00Z</time>
      </trkpt>
      <trkpt lat="41.90544" lon="12.48473667">
        <ele>49.073</ele>
        <time>1970-01-01T01:00:00Z</time>
      </trkpt>
      <trkpt lat="41.90543333" lon="12.48476667">
        <ele>49.073</ele>
        <time>1970-01-01T01:00:00Z</time>
      </trkpt>
      <trkpt lat="41.905425" lon="12.48479167">
        <ele>49.073</ele>
        <time>1970-01-01T01:00:00Z</time>
      </trkpt>
      <trkpt lat="41.90541667" lon="12.48481833">
        <ele>48.159</ele>
        <time>1970-01-01T01:00:00Z</time>
      </trkpt>
      <trkpt lat="41.90540833" lon="12.48484333">
        <ele>48.159</ele>
        <time>1970-01-01T01:00:00Z</time>
      </trkpt>
      <trkpt lat="41.90539667" lon="12.48487">
        <ele>47.092</ele>
        <time>1970-01-01T01:00:00Z</time>
      </trkpt>
      <trkpt lat="41.90538333" lon="12.484895">
        <ele>47.092</ele>
        <time>1970-01-01T01:00:00Z</time>
      </trkpt>
      <trkpt lat="41.90537" lon="12.48492">
        <ele>47.092</ele>
        <time>1970-01-01T01:00:00Z</time>
      </trkpt>
      <trkpt lat="41.90535667" lon="12.484945">
        <ele>47.092</ele>
        <time>1970-01-01T01:00:00Z</time>
      </trkpt>
      <trkpt lat="41.90534" lon="12.48497167">
        <ele>47.092</ele>
        <time>1970-01-01T01:00:00Z</time>
      </trkpt>
      <trkpt lat="41.905325" lon="12.48499833">
        <ele>47.092</ele>
        <time>1970-01-01T01:00:00Z</time>
      </trkpt>
      <trkpt lat="41.90530833" lon="12.48502167">
        <ele>46.025</ele>
        <time>1970-01-01T01:00:00Z</time>
      </trkpt>
      <trkpt lat="41.90529333" lon="12.48504833">
        <ele>46.025</ele>
        <time>1970-01-01T01:00:00Z</time>
      </trkpt>
      <trkpt lat="41.90527667" lon="12.48507333">
        <ele>46.025</ele>
        <time>1970-01-01T01:00:00Z</time>
      </trkpt>
      <trkpt lat="41.90526167" lon="12.485095">
        <ele>46.025</ele>
        <time>1970-01-01T01:00:00Z</time>
      </trkpt>
      <trkpt lat="41.905245" lon="12.485115">
        <ele>45.111</ele>
        <time>1970-01-01T01:00:00Z</time>
      </trkpt>
      <trkpt lat="41.90522667" lon="12.48513167">
        <ele>45.111</ele>
        <time>1970-01-01T01:00:00Z</time>
      </trkpt>
      <trkpt lat="41.90521" lon="12.48514833">
        <ele>45.111</ele>
        <time>1970-01-01T01:00:00Z</time>
      </trkpt>
      <trkpt lat="41.90519333" lon="12.48516833">
        <ele>45.111</ele>
        <time>1970-01-01T01:00:00Z</time>
      </trkpt>
      <trkpt lat="41.90517667" lon="12.48518667">
        <ele>45.111</ele>
        <time>1970-01-01T01:00:00Z</time>
      </trkpt>
      <trkpt lat="41.90516167" lon="12.485205">
        <ele>45.111</ele>
        <time>1970-01-01T01:00:00Z</time>
      </trkpt>
      <trkpt lat="41.90514833" lon="12.48522333">
        <ele>45.111</ele>
        <time>1970-01-01T01:00:00Z</time>
      </trkpt>
      <trkpt lat="41.905135" lon="12.485245">
        <ele>45.111</ele>
        <time>1970-01-01T01:00:00Z</time>
      </trkpt>
      <trkpt lat="41.90512167" lon="12.48526667">
        <ele>45.111</ele>
        <time>1970-01-01T01:00:00Z</time>
      </trkpt>
      <trkpt lat="41.90510833" lon="12.48528833">
        <ele>45.111</ele>
        <time>1970-01-01T01:00:00Z</time>
      </trkpt>
      <trkpt lat="41.905095" lon="12.48531167">
        <ele>45.111</ele>
        <time>1970-01-01T01:00:00Z</time>
      </trkpt>
      <trkpt lat="41.90508333" lon="12.48533667">
        <ele>45.111</ele>
        <time>1970-01-01T01:00:00Z</time>
      </trkpt>
      <trkpt lat="41.90506833" lon="12.48536">
        <ele>44.044</ele>
        <time>1970-01-01T01:00:00Z</time>
      </trkpt>
      <trkpt lat="41.905055" lon="12.48538333">
        <ele>44.044</ele>
        <time>1970-01-01T01:00:00Z</time>
      </trkpt>
      <trkpt lat="41.90504" lon="12.48541">
        <ele>44.044</ele>
        <time>1970-01-01T01:00:00Z</time>
      </trkpt>
      <trkpt lat="41.90502333" lon="12.48543333">
        <ele>44.044</ele>
        <time>1970-01-01T01:00:00Z</time>
      </trkpt>
      <trkpt lat="41.90500667" lon="12.48545833">
        <ele>44.044</ele>
        <time>1970-01-01T01:00:00Z</time>
      </trkpt>
      <trkpt lat="41.90499" lon="12.48548">
        <ele>44.044</ele>
        <time>1970-01-01T01:00:00Z</time>
      </trkpt>
      <trkpt lat="41.90497667" lon="12.48550167">
        <ele>44.044</ele>
        <time>1970-01-01T01:00:00Z</time>
      </trkpt>
      <trkpt lat="41.90496333" lon="12.48552333">
        <ele>44.044</ele>
        <time>1970-01-01T01:00:00Z</time>
      </trkpt>
      <trkpt lat="41.90495" lon="12.485545">
        <ele>44.044</ele>
        <time>1970-01-01T01:00:00Z</time>
      </trkpt>
      <trkpt lat="41.90493667" lon="12.48557">
        <ele>44.044</ele>
        <time>1970-01-01T01:00:00Z</time>
      </trkpt>
      <trkpt lat="41.904925" lon="12.48559333">
        <ele>43.13</ele>
        <time>1970-01-01T01:00:00Z</time>
      </trkpt>
      <trkpt lat="41.90491167" lon="12.48561667">
        <ele>43.13</ele>
        <time>1970-01-01T01:00:00Z</time>
      </trkpt>
      <trkpt lat="41.90489833" lon="12.485635">
        <ele>43.13</ele>
        <time>1970-01-01T01:00:00Z</time>
      </trkpt>
      <trkpt lat="41.904885" lon="12.485655">
        <ele>43.13</ele>
        <time>1970-01-01T01:00:00Z</time>
      </trkpt>
      <trkpt lat="41.90487" lon="12.48567167">
        <ele>43.13</ele>
        <time>1970-01-01T01:00:00Z</time>
      </trkpt>
      <trkpt lat="41.904855" lon="12.48568667">
        <ele>43.13</ele>
        <time>1970-01-01T01:00:00Z</time>
      </trkpt>
      <trkpt lat="41.90484" lon="12.48570167">
        <ele>43.13</ele>
        <time>1970-01-01T01:00:00Z</time>
      </trkpt>
      <trkpt lat="41.90482667" lon="12.48571833">
        <ele>43.13</ele>
        <time>1970-01-01T01:00:00Z</time>
      </trkpt>
      <trkpt lat="41.90481167" lon="12.48573333">
        <ele>43.13</ele>
        <time>1970-01-01T01:00:00Z</time>
      </trkpt>
      <trkpt lat="41.90479667" lon="12.48575">
        <ele>43.13</ele>
        <time>1970-01-01T01:00:00Z</time>
      </trkpt>
      <trkpt lat="41.90478333" lon="12.48576833">
        <ele>42.063</ele>
        <time>1970-01-01T01:00:00Z</time>
      </trkpt>
      <trkpt lat="41.90476833" lon="12.48578667">
        <ele>42.063</ele>
        <time>1970-01-01T01:00:00Z</time>
      </trkpt>
      <trkpt lat="41.904755" lon="12.48580333">
        <ele>42.063</ele>
        <time>1970-01-01T01:00:00Z</time>
      </trkpt>
      <trkpt lat="41.90474" lon="12.48581833">
        <ele>42.063</ele>
        <time>1970-01-01T01:00:00Z</time>
      </trkpt>
      <trkpt lat="41.904725" lon="12.485835">
        <ele>42.063</ele>
        <time>1970-01-01T01:00:00Z</time>
      </trkpt>
      <trkpt lat="41.90471" lon="12.48585167">
        <ele>42.063</ele>
        <time>1970-01-01T01:00:00Z</time>
      </trkpt>
      <trkpt lat="41.90469167" lon="12.48587">
        <ele>42.063</ele>
        <time>1970-01-01T01:00:00Z</time>
      </trkpt>
      <trkpt lat="41.90467833" lon="12.48589">
        <ele>42.063</ele>
        <time>1970-01-01T01:00:00Z</time>
      </trkpt>
      <trkpt lat="41.904665" lon="12.48591">
        <ele>42.063</ele>
        <time>1970-01-01T01:00:00Z</time>
      </trkpt>
      <trkpt lat="41.90465333" lon="12.48593">
        <ele>42.063</ele>
        <time>1970-01-01T01:00:00Z</time>
      </trkpt>
      <trkpt lat="41.90464" lon="12.48595333">
        <ele>42.063</ele>
        <time>1970-01-01T01:00:00Z</time>
      </trkpt>
      <trkpt lat="41.90463" lon="12.48597333">
        <ele>42.063</ele>
        <time>1970-01-01T01:00:00Z</time>
      </trkpt>
      <trkpt lat="41.90462" lon="12.485995">
        <ele>42.063</ele>
        <time>1970-01-01T01:00:00Z</time>
      </trkpt>
      <trkpt lat="41.90461167" lon="12.48601833">
        <ele>42.063</ele>
        <time>1970-01-01T01:00:00Z</time>
      </trkpt>
      <trkpt lat="41.904605" lon="12.48603833">
        <ele>42.063</ele>
        <time>1970-01-01T01:00:00Z</time>
      </trkpt>
      <trkpt lat="41.904595" lon="12.48605833">
        <ele>42.063</ele>
        <time>1970-01-01T01:00:00Z</time>
      </trkpt>
      <trkpt lat="41.90459" lon="12.48607833">
        <ele>42.063</ele>
        <time>1970-01-01T01:00:00Z</time>
      </trkpt>
      <trkpt lat="41.90458167" lon="12.48610167">
        <ele>42.063</ele>
        <time>1970-01-01T01:00:00Z</time>
      </trkpt>
      <trkpt lat="41.90457167" lon="12.48612667">
        <ele>42.063</ele>
        <time>1970-01-01T01:00:00Z</time>
      </trkpt>
      <trkpt lat="41.90456167" lon="12.48615167">
        <ele>42.063</ele>
        <time>1970-01-01T01:00:00Z</time>
      </trkpt>
      <trkpt lat="41.90455167" lon="12.48617333">
        <ele>42.063</ele>
        <time>1970-01-01T01:00:00Z</time>
      </trkpt>
      <trkpt lat="41.90454167" lon="12.48619667">
        <ele>42.063</ele>
        <time>1970-01-01T01:00:00Z</time>
      </trkpt>
      <trkpt lat="41.90453" lon="12.48621833">
        <ele>42.063</ele>
        <time>1970-01-01T01:00:00Z</time>
      </trkpt>
      <trkpt lat="41.90451833" lon="12.48623833">
        <ele>42.063</ele>
        <time>1970-01-01T01:00:00Z</time>
      </trkpt>
      <trkpt lat="41.90450667" lon="12.48626">
        <ele>42.063</ele>
        <time>1970-01-01T01:00:00Z</time>
      </trkpt>
      <trkpt lat="41.904495" lon="12.48628333">
        <ele>42.063</ele>
        <time>1970-01-01T01:00:00Z</time>
      </trkpt>
      <trkpt lat="41.90448167" lon="12.48630667">
        <ele>42.063</ele>
        <time>1970-01-01T01:00:00Z</time>
      </trkpt>
      <trkpt lat="41.90447" lon="12.48633">
        <ele>42.063</ele>
        <time>1970-01-01T01:00:00Z</time>
      </trkpt>
      <trkpt lat="41.90445833" lon="12.48635167">
        <ele>42.063</ele>
        <time>1970-01-01T01:00:00Z</time>
      </trkpt>
      <trkpt lat="41.90444667" lon="12.48637333">
        <ele>42.063</ele>
        <time>1970-01-01T01:00:00Z</time>
      </trkpt>
      <trkpt lat="41.90443667" lon="12.486395">
        <ele>40.082</ele>
        <time>1970-01-01T01:00:00Z</time>
      </trkpt>
      <trkpt lat="41.904425" lon="12.486415">
        <ele>40.082</ele>
        <time>1970-01-01T01:00:00Z</time>
      </trkpt>
      <trkpt lat="41.90441167" lon="12.486435">
        <ele>40.082</ele>
        <time>1970-01-01T01:00:00Z</time>
      </trkpt>
      <trkpt lat="41.90439667" lon="12.48645667">
        <ele>40.082</ele>
        <time>1970-01-01T01:00:00Z</time>
      </trkpt>
      <trkpt lat="41.90438333" lon="12.486475">
        <ele>40.082</ele>
        <time>1970-01-01T01:00:00Z</time>
      </trkpt>
      <trkpt lat="41.90436667" lon="12.48649333">
        <ele>40.082</ele>
        <time>1970-01-01T01:00:00Z</time>
      </trkpt>
      <trkpt lat="41.90435167" lon="12.48651167">
        <ele>40.082</ele>
        <time>1970-01-01T01:00:00Z</time>
      </trkpt>
      <trkpt lat="41.90433833" lon="12.48653333">
        <ele>40.082</ele>
        <time>1970-01-01T01:00:00Z</time>
      </trkpt>
      <trkpt lat="41.90432333" lon="12.48655333">
        <ele>40.082</ele>
        <time>1970-01-01T01:00:00Z</time>
      </trkpt>
      <trkpt lat="41.90431167" lon="12.48657167">
        <ele>40.082</ele>
        <time>1970-01-01T01:00:00Z</time>
      </trkpt>
      <trkpt lat="41.9043" lon="12.48659333">
        <ele>40.082</ele>
        <time>1970-01-01T01:00:00Z</time>
      </trkpt>
      <trkpt lat="41.90428833" lon="12.48661667">
        <ele>40.082</ele>
        <time>1970-01-01T01:00:00Z</time>
      </trkpt>
      <trkpt lat="41.90427833" lon="12.48663833">
        <ele>40.082</ele>
        <time>1970-01-01T01:00:00Z</time>
      </trkpt>
      <trkpt lat="41.90426833" lon="12.48666167">
        <ele>40.082</ele>
        <time>1970-01-01T01:00:00Z</time>
      </trkpt>
      <trkpt lat="41.90425667" lon="12.48668667">
        <ele>40.082</ele>
        <time>1970-01-01T01:00:00Z</time>
      </trkpt>
      <trkpt lat="41.904245" lon="12.48671167">
        <ele>40.082</ele>
        <time>1970-01-01T01:00:00Z</time>
      </trkpt>
      <trkpt lat="41.90423333" lon="12.48673833">
        <ele>40.082</ele>
        <time>1970-01-01T01:00:00Z</time>
      </trkpt>
      <trkpt lat="41.90422" lon="12.486765">
        <ele>40.082</ele>
        <time>1970-01-01T01:00:00Z</time>
      </trkpt>
      <trkpt lat="41.90420833" lon="12.48678833">
        <ele>39.015</ele>
        <time>1970-01-01T01:00:00Z</time>
      </trkpt>
      <trkpt lat="41.90419667" lon="12.486815">
        <ele>39.015</ele>
        <time>1970-01-01T01:00:00Z</time>
      </trkpt>
      <trkpt lat="41.904185" lon="12.48684">
        <ele>39.015</ele>
        <time>1970-01-01T01:00:00Z</time>
      </trkpt>
      <trkpt lat="41.904175" lon="12.48686167">
        <ele>39.015</ele>
        <time>1970-01-01T01:00:00Z</time>
      </trkpt>
      <trkpt lat="41.90416333" lon="12.48688333">
        <ele>39.015</ele>
        <time>1970-01-01T01:00:00Z</time>
      </trkpt>
      <trkpt lat="41.90415167" lon="12.48690833">
        <ele>39.015</ele>
        <time>1970-01-01T01:00:00Z</time>
      </trkpt>
      <trkpt lat="41.90414" lon="12.48693167">
        <ele>39.015</ele>
        <time>1970-01-01T01:00:00Z</time>
      </trkpt>
      <trkpt lat="41.90412833" lon="12.48695833">
        <ele>39.015</ele>
        <time>1970-01-01T01:00:00Z</time>
      </trkpt>
      <trkpt lat="41.90411667" lon="12.48698333">
        <ele>39.015</ele>
        <time>1970-01-01T01:00:00Z</time>
      </trkpt>
      <trkpt lat="41.904105" lon="12.48700667">
        <ele>39.015</ele>
        <time>1970-01-01T01:00:00Z</time>
      </trkpt>
      <trkpt lat="41.90409333" lon="12.48703">
        <ele>39.015</ele>
        <time>1970-01-01T01:00:00Z</time>
      </trkpt>
      <trkpt lat="41.90408" lon="12.48705167">
        <ele>39.015</ele>
        <time>1970-01-01T01:00:00Z</time>
      </trkpt>
      <trkpt lat="41.90406667" lon="12.48707">
        <ele>37.034</ele>
        <time>1970-01-01T01:00:00Z</time>
      </trkpt>
      <trkpt lat="41.90405" lon="12.48708667">
        <ele>37.034</ele>
        <time>1970-01-01T01:00:00Z</time>
      </trkpt>
      <trkpt lat="41.904035" lon="12.48710333">
        <ele>37.034</ele>
        <time>1970-01-01T01:00:00Z</time>
      </trkpt>
      <trkpt lat="41.90401833" lon="12.48712167">
        <ele>37.034</ele>
        <time>1970-01-01T01:00:00Z</time>
      </trkpt>
      <trkpt lat="41.90400333" lon="12.48714">
        <ele>37.034</ele>
        <time>1970-01-01T01:00:00Z</time>
      </trkpt>
      <trkpt lat="41.90398833" lon="12.48716">
        <ele>37.034</ele>
        <time>1970-01-01T01:00:00Z</time>
      </trkpt>
      <trkpt lat="41.90397333" lon="12.48718167">
        <ele>37.034</ele>
        <time>1970-01-01T01:00:00Z</time>
      </trkpt>
      <trkpt lat="41.90396" lon="12.48720333">
        <ele>37.034</ele>
        <time>1970-01-01T01:00:00Z</time>
      </trkpt>
      <trkpt lat="41.903945" lon="12.48722">
        <ele>37.034</ele>
        <time>1970-01-01T01:00:00Z</time>
      </trkpt>
      <trkpt lat="41.90393167" lon="12.48723833">
        <ele>37.034</ele>
        <time>1970-01-01T01:00:00Z</time>
      </trkpt>
      <trkpt lat="41.90391667" lon="12.48725833">
        <ele>37.034</ele>
        <time>1970-01-01T01:00:00Z</time>
      </trkpt>
      <trkpt lat="41.903905" lon="12.48727833">
        <ele>37.034</ele>
        <time>1970-01-01T01:00:00Z</time>
      </trkpt>
      <trkpt lat="41.903895" lon="12.48730167">
        <ele>37.034</ele>
        <time>1970-01-01T01:00:00Z</time>
      </trkpt>
      <trkpt lat="41.90388667" lon="12.48732333">
        <ele>37.034</ele>
        <time>1970-01-01T01:00:00Z</time>
      </trkpt>
      <trkpt lat="41.903875" lon="12.487345">
        <ele>36.119</ele>
        <time>1970-01-01T01:00:00Z</time>
      </trkpt>
      <trkpt lat="41.90386167" lon="12.48736667">
        <ele>36.119</ele>
        <time>1970-01-01T01:00:00Z</time>
      </trkpt>
      <trkpt lat="41.90385167" lon="12.48738833">
        <ele>36.119</ele>
        <time>1970-01-01T01:00:00Z</time>
      </trkpt>
      <trkpt lat="41.90384167" lon="12.48741333">
        <ele>36.119</ele>
        <time>1970-01-01T01:00:00Z</time>
      </trkpt>
      <trkpt lat="41.90383" lon="12.48743833">
        <ele>36.119</ele>
        <time>1970-01-01T01:00:00Z</time>
      </trkpt>
      <trkpt lat="41.90382167" lon="12.48746333">
        <ele>36.119</ele>
        <time>1970-01-01T01:00:00Z</time>
      </trkpt>
      <trkpt lat="41.90381" lon="12.48748833">
        <ele>36.119</ele>
        <time>1970-01-01T01:00:00Z</time>
      </trkpt>
      <trkpt lat="41.90379833" lon="12.48751167">
        <ele>36.119</ele>
        <time>1970-01-01T01:00:00Z</time>
      </trkpt>
      <trkpt lat="41.90378667" lon="12.487535">
        <ele>36.119</ele>
        <time>1970-01-01T01:00:00Z</time>
      </trkpt>
      <trkpt lat="41.903775" lon="12.48755833">
        <ele>36.119</ele>
        <time>1970-01-01T01:00:00Z</time>
      </trkpt>
      <trkpt lat="41.90376167" lon="12.48758">
        <ele>36.119</ele>
        <time>1970-01-01T01:00:00Z</time>
      </trkpt>
      <trkpt lat="41.90374833" lon="12.48759833">
        <ele>36.119</ele>
        <time>1970-01-01T01:00:00Z</time>
      </trkpt>
      <trkpt lat="41.903735" lon="12.48762">
        <ele>36.119</ele>
        <time>1970-01-01T01:00:00Z</time>
      </trkpt>
      <trkpt lat="41.90372167" lon="12.48764167">
        <ele>36.119</ele>
        <time>1970-01-01T01:00:00Z</time>
      </trkpt>
      <trkpt lat="41.90371" lon="12.48766167">
        <ele>36.119</ele>
        <time>1970-01-01T01:00:00Z</time>
      </trkpt>
      <trkpt lat="41.903695" lon="12.48768333">
        <ele>36.119</ele>
        <time>1970-01-01T01:00:00Z</time>
      </trkpt>
      <trkpt lat="41.90368167" lon="12.48770333">
        <ele>36.119</ele>
        <time>1970-01-01T01:00:00Z</time>
      </trkpt>
      <trkpt lat="41.90366833" lon="12.487725">
        <ele>36.119</ele>
        <time>1970-01-01T01:00:00Z</time>
      </trkpt>
      <trkpt lat="41.903655" lon="12.48774833">
        <ele>36.119</ele>
        <time>1970-01-01T01:00:00Z</time>
      </trkpt>
      <trkpt lat="41.90364667" lon="12.48776833">
        <ele>36.119</ele>
        <time>1970-01-01T01:00:00Z</time>
      </trkpt>
      <trkpt lat="41.90363833" lon="12.48778833">
        <ele>35.052</ele>
        <time>1970-01-01T01:00:00Z</time>
      </trkpt>
      <trkpt lat="41.90363167" lon="12.48781">
        <ele>35.052</ele>
        <time>1970-01-01T01:00:00Z</time>
      </trkpt>
      <trkpt lat="41.90362333" lon="12.48783">
        <ele>35.052</ele>
        <time>1970-01-01T01:00:00Z</time>
      </trkpt>
      <trkpt lat="41.90361333" lon="12.48785">
        <ele>35.052</ele>
        <time>1970-01-01T01:00:00Z</time>
      </trkpt>
      <trkpt lat="41.90360333" lon="12.48786333">
        <ele>35.052</ele>
        <time>1970-01-01T01:00:00Z</time>
      </trkpt>
      <trkpt lat="41.90359833" lon="12.48787167">
        <ele>35.052</ele>
        <time>1970-01-01T01:00:00Z</time>
      </trkpt>
      <trkpt lat="41.9036" lon="12.48787333">
        <ele>35.052</ele>
        <time>1970-01-01T01:00:00Z</time>
      </trkpt>
      <trkpt lat="41.90359833" lon="12.487875">
        <ele>35.052</ele>
        <time>1970-01-01T01:00:00Z</time>
      </trkpt>
      <trkpt lat="41.9036" lon="12.487875">
        <ele>35.052</ele>
        <time>1970-01-01T01:00:00Z</time>
      </trkpt>
      <trkpt lat="41.9036" lon="12.487875">
        <ele>35.052</ele>
        <time>1970-01-01T01:00:00Z</time>
      </trkpt>
      <trkpt lat="41.9036" lon="12.48787667">
        <ele>35.052</ele>
        <time>1970-01-01T01:00:00Z</time>
      </trkpt>
      <trkpt lat="41.90360167" lon="12.48787667">
        <ele>35.052</ele>
        <time>1970-01-01T01:00:00Z</time>
      </trkpt>
      <trkpt lat="41.90360167" lon="12.487875">
        <ele>35.052</ele>
        <time>1970-01-01T01:00:00Z</time>
      </trkpt>
      <trkpt lat="41.9036" lon="12.48787667">
        <ele>35.052</ele>
        <time>1970-01-01T01:00:00Z</time>
      </trkpt>
      <trkpt lat="41.9036" lon="12.48787667">
        <ele>35.052</ele>
        <time>1970-01-01T01:00:00Z</time>
      </trkpt>
      <trkpt lat="41.90359833" lon="12.48787167">
        <ele>35.052</ele>
        <time>1970-01-01T01:00:00Z</time>
      </trkpt>
      <trkpt lat="41.90359833" lon="12.48787167">
        <ele>35.052</ele>
        <time>1970-01-01T01:00:00Z</time>
      </trkpt>
      <trkpt lat="41.90359833" lon="12.48787167">
        <ele>35.052</ele>
        <time>1970-01-01T01:00:00Z</time>
      </trkpt>
      <trkpt lat="41.90359667" lon="12.48787167">
        <ele>35.052</ele>
        <time>1970-01-01T01:00:00Z</time>
      </trkpt>
      <trkpt lat="41.90359667" lon="12.48787333">
        <ele>35.052</ele>
        <time>1970-01-01T01:00:00Z</time>
      </trkpt>
      <trkpt lat="41.90359667" lon="12.48787833">
        <ele>36.119</ele>
        <time>1970-01-01T01:00:00Z</time>
      </trkpt>
      <trkpt lat="41.90359667" lon="12.48788167">
        <ele>36.119</ele>
        <time>1970-01-01T01:00:00Z</time>
      </trkpt>
      <trkpt lat="41.90359333" lon="12.48788333">
        <ele>36.119</ele>
        <time>1970-01-01T01:00:00Z</time>
      </trkpt>
      <trkpt lat="41.90359167" lon="12.487885">
        <ele>36.119</ele>
        <time>1970-01-01T01:00:00Z</time>
      </trkpt>
      <trkpt lat="41.90358667" lon="12.48788667">
        <ele>36.119</ele>
        <time>1970-01-01T01:00:00Z</time>
      </trkpt>
      <trkpt lat="41.90358" lon="12.487895">
        <ele>36.119</ele>
        <time>1970-01-01T01:00:00Z</time>
      </trkpt>
      <trkpt lat="41.90357" lon="12.48790333">
        <ele>36.119</ele>
        <time>1970-01-01T01:00:00Z</time>
      </trkpt>
      <trkpt lat="41.90356167" lon="12.48792">
        <ele>36.119</ele>
        <time>1970-01-01T01:00:00Z</time>
      </trkpt>
      <trkpt lat="41.90355333" lon="12.48794">
        <ele>36.119</ele>
        <time>1970-01-01T01:00:00Z</time>
      </trkpt>
      <trkpt lat="41.90354333" lon="12.48796667">
        <ele>36.119</ele>
        <time>1970-01-01T01:00:00Z</time>
      </trkpt>
      <trkpt lat="41.90353333" lon="12.48799833">
        <ele>37.034</ele>
        <time>1970-01-01T01:00:00Z</time>
      </trkpt>
      <trkpt lat="41.90352333" lon="12.488025">
        <ele>37.034</ele>
        <time>1970-01-01T01:00:00Z</time>
      </trkpt>
      <trkpt lat="41.90351" lon="12.48805667">
        <ele>37.034</ele>
        <time>1970-01-01T01:00:00Z</time>
      </trkpt>
      <trkpt lat="41.90349833" lon="12.48808">
        <ele>37.034</ele>
        <time>1970-01-01T01:00:00Z</time>
      </trkpt>
      <trkpt lat="41.90348833" lon="12.48810333">
        <ele>37.034</ele>
        <time>1970-01-01T01:00:00Z</time>
      </trkpt>
      <trkpt lat="41.903475" lon="12.48812833">
        <ele>37.034</ele>
        <time>1970-01-01T01:00:00Z</time>
      </trkpt>
      <trkpt lat="41.90346167" lon="12.488155">
        <ele>38.1</ele>
        <time>1970-01-01T01:00:00Z</time>
      </trkpt>
      <trkpt lat="41.90344833" lon="12.48817833">
        <ele>38.1</ele>
        <time>1970-01-01T01:00:00Z</time>
      </trkpt>
      <trkpt lat="41.90343333" lon="12.488205">
        <ele>38.1</ele>
        <time>1970-01-01T01:00:00Z</time>
      </trkpt>
      <trkpt lat="41.90342167" lon="12.48823">
        <ele>38.1</ele>
        <time>1970-01-01T01:00:00Z</time>
      </trkpt>
      <trkpt lat="41.90340667" lon="12.48825333">
        <ele>39.015</ele>
        <time>1970-01-01T01:00:00Z</time>
      </trkpt>
      <trkpt lat="41.90339167" lon="12.488275">
        <ele>39.015</ele>
        <time>1970-01-01T01:00:00Z</time>
      </trkpt>
      <trkpt lat="41.90337667" lon="12.48829333">
        <ele>39.015</ele>
        <time>1970-01-01T01:00:00Z</time>
      </trkpt>
      <trkpt lat="41.90336167" lon="12.48831">
        <ele>39.015</ele>
        <time>1970-01-01T01:00:00Z</time>
      </trkpt>
      <trkpt lat="41.90334833" lon="12.48832833">
        <ele>39.015</ele>
        <time>1970-01-01T01:00:00Z</time>
      </trkpt>
      <trkpt lat="41.903335" lon="12.488345">
        <ele>39.015</ele>
        <time>1970-01-01T01:00:00Z</time>
      </trkpt>
      <trkpt lat="41.90332" lon="12.488365">
        <ele>40.082</ele>
        <time>1970-01-01T01:00:00Z</time>
      </trkpt>
      <trkpt lat="41.90330667" lon="12.48838667">
        <ele>40.082</ele>
        <time>1970-01-01T01:00:00Z</time>
      </trkpt>
      <trkpt lat="41.903295" lon="12.48841">
        <ele>40.082</ele>
        <time>1970-01-01T01:00:00Z</time>
      </trkpt>
      <trkpt lat="41.90328333" lon="12.488435">
        <ele>40.082</ele>
        <time>1970-01-01T01:00:00Z</time>
      </trkpt>
      <trkpt lat="41.90327167" lon="12.48846">
        <ele>40.082</ele>
        <time>1970-01-01T01:00:00Z</time>
      </trkpt>
      <trkpt lat="41.90326" lon="12.488485">
        <ele>40.082</ele>
        <time>1970-01-01T01:00:00Z</time>
      </trkpt>
      <trkpt lat="41.90325" lon="12.48851">
        <ele>40.082</ele>
        <time>1970-01-01T01:00:00Z</time>
      </trkpt>
      <trkpt lat="41.90324" lon="12.488535">
        <ele>40.082</ele>
        <time>1970-01-01T01:00:00Z</time>
      </trkpt>
      <trkpt lat="41.90322833" lon="12.48856">
        <ele>40.082</ele>
        <time>1970-01-01T01:00:00Z</time>
      </trkpt>
      <trkpt lat="41.90321667" lon="12.48858333">
        <ele>40.082</ele>
        <time>1970-01-01T01:00:00Z</time>
      </trkpt>
      <trkpt lat="41.90320333" lon="12.488605">
        <ele>41.148</ele>
        <time>1970-01-01T01:00:00Z</time>
      </trkpt>
      <trkpt lat="41.90319167" lon="12.48862667">
        <ele>41.148</ele>
        <time>1970-01-01T01:00:00Z</time>
      </trkpt>
      <trkpt lat="41.90317833" lon="12.48864833">
        <ele>41.148</ele>
        <time>1970-01-01T01:00:00Z</time>
      </trkpt>
      <trkpt lat="41.90316833" lon="12.48867">
        <ele>41.148</ele>
        <time>1970-01-01T01:00:00Z</time>
      </trkpt>
      <trkpt lat="41.90315667" lon="12.488695">
        <ele>41.148</ele>
        <time>1970-01-01T01:00:00Z</time>
      </trkpt>
      <trkpt lat="41.903145" lon="12.48871833">
        <ele>41.148</ele>
        <time>1970-01-01T01:00:00Z</time>
      </trkpt>
      <trkpt lat="41.90313333" lon="12.48874333">
        <ele>42.063</ele>
        <time>1970-01-01T01:00:00Z</time>
      </trkpt>
      <trkpt lat="41.90312167" lon="12.48877">
        <ele>42.063</ele>
        <time>1970-01-01T01:00:00Z</time>
      </trkpt>
      <trkpt lat="41.90311" lon="12.48879667">
        <ele>42.063</ele>
        <time>1970-01-01T01:00:00Z</time>
      </trkpt>
      <trkpt lat="41.9031" lon="12.48882333">
        <ele>42.063</ele>
        <time>1970-01-01T01:00:00Z</time>
      </trkpt>
      <trkpt lat="41.90308833" lon="12.48884667">
        <ele>43.13</ele>
        <time>1970-01-01T01:00:00Z</time>
      </trkpt>
      <trkpt lat="41.90307833" lon="12.48887333">
        <ele>43.13</ele>
        <time>1970-01-01T01:00:00Z</time>
      </trkpt>
      <trkpt lat="41.90306667" lon="12.48890167">
        <ele>43.13</ele>
        <time>1970-01-01T01:00:00Z</time>
      </trkpt>
      <trkpt lat="41.903055" lon="12.48892833">
        <ele>43.13</ele>
        <time>1970-01-01T01:00:00Z</time>
      </trkpt>
      <trkpt lat="41.90304333" lon="12.488955">
        <ele>44.044</ele>
        <time>1970-01-01T01:00:00Z</time>
      </trkpt>
      <trkpt lat="41.90303333" lon="12.48898333">
        <ele>44.044</ele>
        <time>1970-01-01T01:00:00Z</time>
      </trkpt>
      <trkpt lat="41.90302333" lon="12.48901">
        <ele>44.044</ele>
        <time>1970-01-01T01:00:00Z</time>
      </trkpt>
      <trkpt lat="41.90301333" lon="12.48903667">
        <ele>44.044</ele>
        <time>1970-01-01T01:00:00Z</time>
      </trkpt>
      <trkpt lat="41.903005" lon="12.48906333">
        <ele>45.111</ele>
        <time>1970-01-01T01:00:00Z</time>
      </trkpt>
      <trkpt lat="41.90299333" lon="12.489085">
        <ele>45.111</ele>
        <time>1970-01-01T01:00:00Z</time>
      </trkpt>
      <trkpt lat="41.90298" lon="12.48910833">
        <ele>45.111</ele>
        <time>1970-01-01T01:00:00Z</time>
      </trkpt>
      <trkpt lat="41.90296833" lon="12.48912833">
        <ele>45.111</ele>
        <time>1970-01-01T01:00:00Z</time>
      </trkpt>
      <trkpt lat="41.90295667" lon="12.48914667">
        <ele>46.025</ele>
        <time>1970-01-01T01:00:00Z</time>
      </trkpt>
      <trkpt lat="41.90294667" lon="12.489165">
        <ele>46.025</ele>
        <time>1970-01-01T01:00:00Z</time>
      </trkpt>
      <trkpt lat="41.902935" lon="12.48918333">
        <ele>46.025</ele>
        <time>1970-01-01T01:00:00Z</time>
      </trkpt>
      <trkpt lat="41.90292167" lon="12.48920167">
        <ele>46.025</ele>
        <time>1970-01-01T01:00:00Z</time>
      </trkpt>
      <trkpt lat="41.90290833" lon="12.48922167">
        <ele>46.025</ele>
        <time>1970-01-01T01:00:00Z</time>
      </trkpt>
      <trkpt lat="41.90289667" lon="12.48924">
        <ele>46.025</ele>
        <time>1970-01-01T01:00:00Z</time>
      </trkpt>
      <trkpt lat="41.90288667" lon="12.48925667">
        <ele>47.092</ele>
        <time>1970-01-01T01:00:00Z</time>
      </trkpt>
      <trkpt lat="41.90287667" lon="12.48927167">
        <ele>47.092</ele>
        <time>1970-01-01T01:00:00Z</time>
      </trkpt>
      <trkpt lat="41.90286333" lon="12.48928833">
        <ele>47.092</ele>
        <time>1970-01-01T01:00:00Z</time>
      </trkpt>
      <trkpt lat="41.90285" lon="12.489305">
        <ele>47.092</ele>
        <time>1970-01-01T01:00:00Z</time>
      </trkpt>
      <trkpt lat="41.90283667" lon="12.48932333">
        <ele>47.092</ele>
        <time>1970-01-01T01:00:00Z</time>
      </trkpt>
      <trkpt lat="41.90282667" lon="12.48934">
        <ele>47.092</ele>
        <time>1970-01-01T01:00:00Z</time>
      </trkpt>
      <trkpt lat="41.90281167" lon="12.48935833">
        <ele>47.092</ele>
        <time>1970-01-01T01:00:00Z</time>
      </trkpt>
      <trkpt lat="41.90279833" lon="12.48937667">
        <ele>47.092</ele>
        <time>1970-01-01T01:00:00Z</time>
      </trkpt>
      <trkpt lat="41.90278333" lon="12.4894">
        <ele>47.092</ele>
        <time>1970-01-01T01:00:00Z</time>
      </trkpt>
      <trkpt lat="41.90276667" lon="12.48942">
        <ele>47.092</ele>
        <time>1970-01-01T01:00:00Z</time>
      </trkpt>
      <trkpt lat="41.90275" lon="12.48944167">
        <ele>47.092</ele>
        <time>1970-01-01T01:00:00Z</time>
      </trkpt>
      <trkpt lat="41.90273333" lon="12.48946167">
        <ele>47.092</ele>
        <time>1970-01-01T01:00:00Z</time>
      </trkpt>
      <trkpt lat="41.90271667" lon="12.48948">
        <ele>47.092</ele>
        <time>1970-01-01T01:00:00Z</time>
      </trkpt>
      <trkpt lat="41.90270167" lon="12.48950167">
        <ele>47.092</ele>
        <time>1970-01-01T01:00:00Z</time>
      </trkpt>
      <trkpt lat="41.90268667" lon="12.489525">
        <ele>47.092</ele>
        <time>1970-01-01T01:00:00Z</time>
      </trkpt>
      <trkpt lat="41.90267" lon="12.48954667">
        <ele>47.092</ele>
        <time>1970-01-01T01:00:00Z</time>
      </trkpt>
      <trkpt lat="41.902655" lon="12.48956667">
        <ele>50.14</ele>
        <time>1970-01-01T01:00:00Z</time>
      </trkpt>
      <trkpt lat="41.90263833" lon="12.48958833">
        <ele>50.14</ele>
        <time>1970-01-01T01:00:00Z</time>
      </trkpt>
      <trkpt lat="41.90262333" lon="12.48960833">
        <ele>50.14</ele>
        <time>1970-01-01T01:00:00Z</time>
      </trkpt>
      <trkpt lat="41.90260667" lon="12.48962667">
        <ele>50.14</ele>
        <time>1970-01-01T01:00:00Z</time>
      </trkpt>
      <trkpt lat="41.90259" lon="12.48964667">
        <ele>51.055</ele>
        <time>1970-01-01T01:00:00Z</time>
      </trkpt>
      <trkpt lat="41.902575" lon="12.489665">
        <ele>51.055</ele>
        <time>1970-01-01T01:00:00Z</time>
      </trkpt>
      <trkpt lat="41.90255833" lon="12.48968667">
        <ele>51.055</ele>
        <time>1970-01-01T01:00:00Z</time>
      </trkpt>
      <trkpt lat="41.90254333" lon="12.48970667">
        <ele>51.055</ele>
        <time>1970-01-01T01:00:00Z</time>
      </trkpt>
      <trkpt lat="41.90252833" lon="12.48972333">
        <ele>51.055</ele>
        <time>1970-01-01T01:00:00Z</time>
      </trkpt>
      <trkpt lat="41.90251167" lon="12.48974167">
        <ele>51.055</ele>
        <time>1970-01-01T01:00:00Z</time>
      </trkpt>
      <trkpt lat="41.90249667" lon="12.48976167">
        <ele>51.055</ele>
        <time>1970-01-01T01:00:00Z</time>
      </trkpt>
      <trkpt lat="41.90248167" lon="12.48978">
        <ele>51.055</ele>
        <time>1970-01-01T01:00:00Z</time>
      </trkpt>
      <trkpt lat="41.90247" lon="12.4898">
        <ele>51.055</ele>
        <time>1970-01-01T01:00:00Z</time>
      </trkpt>
      <trkpt lat="41.90245833" lon="12.48982333">
        <ele>51.055</ele>
        <time>1970-01-01T01:00:00Z</time>
      </trkpt>
      <trkpt lat="41.90244333" lon="12.48984667">
        <ele>51.055</ele>
        <time>1970-01-01T01:00:00Z</time>
      </trkpt>
      <trkpt lat="41.90243167" lon="12.48987167">
        <ele>51.055</ele>
        <time>1970-01-01T01:00:00Z</time>
      </trkpt>
      <trkpt lat="41.90242167" lon="12.48989667">
        <ele>51.055</ele>
        <time>1970-01-01T01:00:00Z</time>
      </trkpt>
      <trkpt lat="41.90241167" lon="12.48992">
        <ele>51.055</ele>
        <time>1970-01-01T01:00:00Z</time>
      </trkpt>
      <trkpt lat="41.90240167" lon="12.489945">
        <ele>51.055</ele>
        <time>1970-01-01T01:00:00Z</time>
      </trkpt>
      <trkpt lat="41.90239167" lon="12.48996833">
        <ele>51.055</ele>
        <time>1970-01-01T01:00:00Z</time>
      </trkpt>
      <trkpt lat="41.90238" lon="12.48999167">
        <ele>51.055</ele>
        <time>1970-01-01T01:00:00Z</time>
      </trkpt>
      <trkpt lat="41.90236833" lon="12.490015">
        <ele>51.055</ele>
        <time>1970-01-01T01:00:00Z</time>
      </trkpt>
      <trkpt lat="41.90235833" lon="12.49003667">
        <ele>55.017</ele>
        <time>1970-01-01T01:00:00Z</time>
      </trkpt>
      <trkpt lat="41.90234667" lon="12.49006">
        <ele>55.017</ele>
        <time>1970-01-01T01:00:00Z</time>
      </trkpt>
      <trkpt lat="41.90233667" lon="12.490085">
        <ele>55.017</ele>
        <time>1970-01-01T01:00:00Z</time>
      </trkpt>
      <trkpt lat="41.902325" lon="12.49011">
        <ele>55.017</ele>
        <time>1970-01-01T01:00:00Z</time>
      </trkpt>
      <trkpt lat="41.90231667" lon="12.49013333">
        <ele>55.017</ele>
        <time>1970-01-01T01:00:00Z</time>
      </trkpt>
      <trkpt lat="41.90230833" lon="12.49015667">
        <ele>55.017</ele>
        <time>1970-01-01T01:00:00Z</time>
      </trkpt>
      <trkpt lat="41.9023" lon="12.49018">
        <ele>56.084</ele>
        <time>1970-01-01T01:00:00Z</time>
      </trkpt>
      <trkpt lat="41.90229" lon="12.49020167">
        <ele>56.084</ele>
        <time>1970-01-01T01:00:00Z</time>
      </trkpt>
      <trkpt lat="41.90227833" lon="12.490225">
        <ele>56.084</ele>
        <time>1970-01-01T01:00:00Z</time>
      </trkpt>
      <trkpt lat="41.90226833" lon="12.49024667">
        <ele>56.084</ele>
        <time>1970-01-01T01:00:00Z</time>
      </trkpt>
      <trkpt lat="41.90225833" lon="12.49027">
        <ele>56.084</ele>
        <time>1970-01-01T01:00:00Z</time>
      </trkpt>
      <trkpt lat="41.90225" lon="12.49029167">
        <ele>56.084</ele>
        <time>1970-01-01T01:00:00Z</time>
      </trkpt>
      <trkpt lat="41.90224" lon="12.490315">
        <ele>56.084</ele>
        <time>1970-01-01T01:00:00Z</time>
      </trkpt>
      <trkpt lat="41.90223167" lon="12.49034167">
        <ele>56.084</ele>
        <time>1970-01-01T01:00:00Z</time>
      </trkpt>
      <trkpt lat="41.90222333" lon="12.490365">
        <ele>56.084</ele>
        <time>1970-01-01T01:00:00Z</time>
      </trkpt>
      <trkpt lat="41.90221333" lon="12.49038667">
        <ele>56.084</ele>
        <time>1970-01-01T01:00:00Z</time>
      </trkpt>
      <trkpt lat="41.90220333" lon="12.49041167">
        <ele>57.151</ele>
        <time>1970-01-01T01:00:00Z</time>
      </trkpt>
      <trkpt lat="41.90219333" lon="12.490435">
        <ele>57.151</ele>
        <time>1970-01-01T01:00:00Z</time>
      </trkpt>
      <trkpt lat="41.90218333" lon="12.49045833">
        <ele>57.151</ele>
        <time>1970-01-01T01:00:00Z</time>
      </trkpt>
      <trkpt lat="41.90217167" lon="12.49048">
        <ele>57.151</ele>
        <time>1970-01-01T01:00:00Z</time>
      </trkpt>
      <trkpt lat="41.90216167" lon="12.49050167">
        <ele>57.151</ele>
        <time>1970-01-01T01:00:00Z</time>
      </trkpt>
      <trkpt lat="41.90215" lon="12.49052333">
        <ele>57.151</ele>
        <time>1970-01-01T01:00:00Z</time>
      </trkpt>
      <trkpt lat="41.90214" lon="12.490545">
        <ele>58.065</ele>
        <time>1970-01-01T01:00:00Z</time>
      </trkpt>
      <trkpt lat="41.90213" lon="12.49056667">
        <ele>58.065</ele>
        <time>1970-01-01T01:00:00Z</time>
      </trkpt>
      <trkpt lat="41.90211833" lon="12.49058833">
        <ele>58.065</ele>
        <time>1970-01-01T01:00:00Z</time>
      </trkpt>
      <trkpt lat="41.90211" lon="12.49060667">
        <ele>58.065</ele>
        <time>1970-01-01T01:00:00Z</time>
      </trkpt>
      <trkpt lat="41.90209833" lon="12.49062833">
        <ele>59.132</ele>
        <time>1970-01-01T01:00:00Z</time>
      </trkpt>
      <trkpt lat="41.90208833" lon="12.490645">
        <ele>59.132</ele>
        <time>1970-01-01T01:00:00Z</time>
      </trkpt>
      <trkpt lat="41.90207667" lon="12.49066">
        <ele>60.046</ele>
        <time>1970-01-01T01:00:00Z</time>
      </trkpt>
      <trkpt lat="41.90206667" lon="12.49067667">
        <ele>60.046</ele>
        <time>1970-01-01T01:00:00Z</time>
      </trkpt>
      <trkpt lat="41.90205167" lon="12.49069167">
        <ele>60.046</ele>
        <time>1970-01-01T01:00:00Z</time>
      </trkpt>
      <trkpt lat="41.90203667" lon="12.49070333">
        <ele>60.046</ele>
        <time>1970-01-01T01:00:00Z</time>
      </trkpt>
      <trkpt lat="41.90202167" lon="12.49071833">
        <ele>60.046</ele>
        <time>1970-01-01T01:00:00Z</time>
      </trkpt>
      <trkpt lat="41.902005" lon="12.49073667">
        <ele>60.046</ele>
        <time>1970-01-01T01:00:00Z</time>
      </trkpt>
      <trkpt lat="41.90199" lon="12.490755">
        <ele>61.113</ele>
        <time>1970-01-01T01:00:00Z</time>
      </trkpt>
      <trkpt lat="41.90197667" lon="12.49077167">
        <ele>61.113</ele>
        <time>1970-01-01T01:00:00Z</time>
      </trkpt>
      <trkpt lat="41.90196667" lon="12.49078667">
        <ele>61.113</ele>
        <time>1970-01-01T01:00:00Z</time>
      </trkpt>
      <trkpt lat="41.90195667" lon="12.49080167">
        <ele>61.113</ele>
        <time>1970-01-01T01:00:00Z</time>
      </trkpt>
      <trkpt lat="41.90194667" lon="12.49081667">
        <ele>61.113</ele>
        <time>1970-01-01T01:00:00Z</time>
      </trkpt>
      <trkpt lat="41.90194" lon="12.49082833">
        <ele>61.113</ele>
        <time>1970-01-01T01:00:00Z</time>
      </trkpt>
      <trkpt lat="41.90193167" lon="12.49084">
        <ele>61.113</ele>
        <time>1970-01-01T01:00:00Z</time>
      </trkpt>
      <trkpt lat="41.901925" lon="12.490855">
        <ele>61.113</ele>
        <time>1970-01-01T01:00:00Z</time>
      </trkpt>
      <trkpt lat="41.90192" lon="12.490875">
        <ele>60.046</ele>
        <time>1970-01-01T01:00:00Z</time>
      </trkpt>
      <trkpt lat="41.901915" lon="12.49089333">
        <ele>60.046</ele>
        <time>1970-01-01T01:00:00Z</time>
      </trkpt>
      <trkpt lat="41.90191" lon="12.49091167">
        <ele>60.046</ele>
        <time>1970-01-01T01:00:00Z</time>
      </trkpt>
      <trkpt lat="41.901905" lon="12.49093333">
        <ele>60.046</ele>
        <time>1970-01-01T01:00:00Z</time>
      </trkpt>
      <trkpt lat="41.9019" lon="12.49095667">
        <ele>60.046</ele>
        <time>1970-01-01T01:00:00Z</time>
      </trkpt>
      <trkpt lat="41.901895" lon="12.49098167">
        <ele>60.046</ele>
        <time>1970-01-01T01:00:00Z</time>
      </trkpt>
      <trkpt lat="41.90188667" lon="12.491005">
        <ele>60.046</ele>
        <time>1970-01-01T01:00:00Z</time>
      </trkpt>
      <trkpt lat="41.90187667" lon="12.491025">
        <ele>60.046</ele>
        <time>1970-01-01T01:00:00Z</time>
      </trkpt>
      <trkpt lat="41.90186667" lon="12.49104833">
        <ele>60.046</ele>
        <time>1970-01-01T01:00:00Z</time>
      </trkpt>
      <trkpt lat="41.90185833" lon="12.49107167">
        <ele>60.046</ele>
        <time>1970-01-01T01:00:00Z</time>
      </trkpt>
      <trkpt lat="41.90184833" lon="12.491095">
        <ele>59.132</ele>
        <time>1970-01-01T01:00:00Z</time>
      </trkpt>
      <trkpt lat="41.90183833" lon="12.49111833">
        <ele>59.132</ele>
        <time>1970-01-01T01:00:00Z</time>
      </trkpt>
      <trkpt lat="41.90183" lon="12.49114">
        <ele>59.132</ele>
        <time>1970-01-01T01:00:00Z</time>
      </trkpt>
      <trkpt lat="41.90181833" lon="12.491165">
        <ele>59.132</ele>
        <time>1970-01-01T01:00:00Z</time>
      </trkpt>
      <trkpt lat="41.90180833" lon="12.49118667">
        <ele>59.132</ele>
        <time>1970-01-01T01:00:00Z</time>
      </trkpt>
      <trkpt lat="41.90179833" lon="12.49120667">
        <ele>59.132</ele>
        <time>1970-01-01T01:00:00Z</time>
      </trkpt>
      <trkpt lat="41.90179667" lon="12.49122667">
        <ele>58.065</ele>
        <time>1970-01-01T01:00:00Z</time>
      </trkpt>
      <trkpt lat="41.90179667" lon="12.49124">
        <ele>58.065</ele>
        <time>1970-01-01T01:00:00Z</time>
      </trkpt>
      <trkpt lat="41.90179833" lon="12.49124667">
        <ele>58.065</ele>
        <time>1970-01-01T01:00:00Z</time>
      </trkpt>
      <trkpt lat="41.90180167" lon="12.49124667">
        <ele>58.065</ele>
        <time>1970-01-01T01:00:00Z</time>
      </trkpt>
      <trkpt lat="41.90180333" lon="12.49124333">
        <ele>58.065</ele>
        <time>1970-01-01T01:00:00Z</time>
      </trkpt>
      <trkpt lat="41.90180333" lon="12.49123833">
        <ele>58.065</ele>
        <time>1970-01-01T01:00:00Z</time>
      </trkpt>
      <trkpt lat="41.90180167" lon="12.49123333">
        <ele>58.065</ele>
        <time>1970-01-01T01:00:00Z</time>
      </trkpt>
      <trkpt lat="41.90179833" lon="12.49123833">
        <ele>58.065</ele>
        <time>1970-01-01T01:00:00Z</time>
      </trkpt>
      <trkpt lat="41.90179333" lon="12.49124667">
        <ele>58.065</ele>
        <time>1970-01-01T01:00:00Z</time>
      </trkpt>
      <trkpt lat="41.901785" lon="12.49126333">
        <ele>58.065</ele>
        <time>1970-01-01T01:00:00Z</time>
      </trkpt>
      <trkpt lat="41.90177667" lon="12.49128167">
        <ele>58.065</ele>
        <time>1970-01-01T01:00:00Z</time>
      </trkpt>
      <trkpt lat="41.90176667" lon="12.49130333">
        <ele>58.065</ele>
        <time>1970-01-01T01:00:00Z</time>
      </trkpt>
      <trkpt lat="41.901755" lon="12.491325">
        <ele>57.151</ele>
        <time>1970-01-01T01:00:00Z</time>
      </trkpt>
      <trkpt lat="41.90174333" lon="12.491345">
        <ele>57.151</ele>
        <time>1970-01-01T01:00:00Z</time>
      </trkpt>
      <trkpt lat="41.90173333" lon="12.491365">
        <ele>57.151</ele>
        <time>1970-01-01T01:00:00Z</time>
      </trkpt>
      <trkpt lat="41.90172333" lon="12.49138">
        <ele>57.151</ele>
        <time>1970-01-01T01:00:00Z</time>
      </trkpt>
      <trkpt lat="41.90171333" lon="12.49139833">
        <ele>57.151</ele>
        <time>1970-01-01T01:00:00Z</time>
      </trkpt>
      <trkpt lat="41.9017" lon="12.49142">
        <ele>57.151</ele>
        <time>1970-01-01T01:00:00Z</time>
      </trkpt>
      <trkpt lat="41.90168833" lon="12.49144167">
        <ele>56.084</ele>
        <time>1970-01-01T01:00:00Z</time>
      </trkpt>
      <trkpt lat="41.90167667" lon="12.491465">
        <ele>56.084</ele>
        <time>1970-01-01T01:00:00Z</time>
      </trkpt>
      <trkpt lat="41.90166667" lon="12.491485">
        <ele>56.084</ele>
        <time>1970-01-01T01:00:00Z</time>
      </trkpt>
      <trkpt lat="41.901655" lon="12.49150667">
        <ele>56.084</ele>
        <time>1970-01-01T01:00:00Z</time>
      </trkpt>
      <trkpt lat="41.901645" lon="12.49152333">
        <ele>56.084</ele>
        <time>1970-01-01T01:00:00Z</time>
      </trkpt>
      <trkpt lat="41.90163667" lon="12.49154333">
        <ele>56.084</ele>
        <time>1970-01-01T01:00:00Z</time>
      </trkpt>
      <trkpt lat="41.901625" lon="12.49156167">
        <ele>56.084</ele>
        <time>1970-01-01T01:00:00Z</time>
      </trkpt>
      <trkpt lat="41.90161167" lon="12.49157833">
        <ele>56.084</ele>
        <time>1970-01-01T01:00:00Z</time>
      </trkpt>
      <trkpt lat="41.90159833" lon="12.491595">
        <ele>56.084</ele>
        <time>1970-01-01T01:00:00Z</time>
      </trkpt>
      <trkpt lat="41.90158667" lon="12.49161167">
        <ele>56.084</ele>
        <time>1970-01-01T01:00:00Z</time>
      </trkpt>
      <trkpt lat="41.90157333" lon="12.49162833">
        <ele>57.151</ele>
        <time>1970-01-01T01:00:00Z</time>
      </trkpt>
      <trkpt lat="41.90156" lon="12.491645">
        <ele>57.151</ele>
        <time>1970-01-01T01:00:00Z</time>
      </trkpt>
      <trkpt lat="41.90154667" lon="12.491665">
        <ele>57.151</ele>
        <time>1970-01-01T01:00:00Z</time>
      </trkpt>
      <trkpt lat="41.90153333" lon="12.49168333">
        <ele>57.151</ele>
        <time>1970-01-01T01:00:00Z</time>
      </trkpt>
      <trkpt lat="41.90151833" lon="12.4917">
        <ele>56.084</ele>
        <time>1970-01-01T01:00:00Z</time>
      </trkpt>
      <trkpt lat="41.90150333" lon="12.49171667">
        <ele>56.084</ele>
        <time>1970-01-01T01:00:00Z</time>
      </trkpt>
      <trkpt lat="41.90148833" lon="12.491735">
        <ele>56.084</ele>
        <time>1970-01-01T01:00:00Z</time>
      </trkpt>
      <trkpt lat="41.90147667" lon="12.49175333">
        <ele>56.084</ele>
        <time>1970-01-01T01:00:00Z</time>
      </trkpt>
      <trkpt lat="41.90146333" lon="12.491775">
        <ele>56.084</ele>
        <time>1970-01-01T01:00:00Z</time>
      </trkpt>
      <trkpt lat="41.90145167" lon="12.49179667">
        <ele>56.084</ele>
        <time>1970-01-01T01:00:00Z</time>
      </trkpt>
      <trkpt lat="41.90143667" lon="12.49181667">
        <ele>56.084</ele>
        <time>1970-01-01T01:00:00Z</time>
      </trkpt>
      <trkpt lat="41.90142167" lon="12.49183833">
        <ele>56.084</ele>
        <time>1970-01-01T01:00:00Z</time>
      </trkpt>
      <trkpt lat="41.90140667" lon="12.49186167">
        <ele>56.084</ele>
        <time>1970-01-01T01:00:00Z</time>
      </trkpt>
      <trkpt lat="41.90139167" lon="12.49188333">
        <ele>56.084</ele>
        <time>1970-01-01T01:00:00Z</time>
      </trkpt>
      <trkpt lat="41.90137333" lon="12.49190167">
        <ele>56.084</ele>
        <time>1970-01-01T01:00:00Z</time>
      </trkpt>
      <trkpt lat="41.901355" lon="12.49192">
        <ele>56.084</ele>
        <time>1970-01-01T01:00:00Z</time>
      </trkpt>
      <trkpt lat="41.90133833" lon="12.49193833">
        <ele>56.084</ele>
        <time>1970-01-01T01:00:00Z</time>
      </trkpt>
      <trkpt lat="41.90132167" lon="12.49195333">
        <ele>56.084</ele>
        <time>1970-01-01T01:00:00Z</time>
      </trkpt>
      <trkpt lat="41.901305" lon="12.49197333">
        <ele>56.084</ele>
        <time>1970-01-01T01:00:00Z</time>
      </trkpt>
      <trkpt lat="41.90129" lon="12.49199167">
        <ele>56.084</ele>
        <time>1970-01-01T01:00:00Z</time>
      </trkpt>
      <trkpt lat="41.90127667" lon="12.49201">
        <ele>55.017</ele>
        <time>1970-01-01T01:00:00Z</time>
      </trkpt>
      <trkpt lat="41.90126" lon="12.49203">
        <ele>55.017</ele>
        <time>1970-01-01T01:00:00Z</time>
      </trkpt>
      <trkpt lat="41.901245" lon="12.49204667">
        <ele>55.017</ele>
        <time>1970-01-01T01:00:00Z</time>
      </trkpt>
      <trkpt lat="41.90123333" lon="12.49206167">
        <ele>55.017</ele>
        <time>1970-01-01T01:00:00Z</time>
      </trkpt>
      <trkpt lat="41.90122" lon="12.49207667">
        <ele>55.017</ele>
        <time>1970-01-01T01:00:00Z</time>
      </trkpt>
      <trkpt lat="41.90120833" lon="12.492095">
        <ele>55.017</ele>
        <time>1970-01-01T01:00:00Z</time>
      </trkpt>
      <trkpt lat="41.90119667" lon="12.492115">
        <ele>54.103</ele>
        <time>1970-01-01T01:00:00Z</time>
      </trkpt>
      <trkpt lat="41.901185" lon="12.49213167">
        <ele>54.103</ele>
        <time>1970-01-01T01:00:00Z</time>
      </trkpt>
      <trkpt lat="41.901175" lon="12.49214833">
        <ele>54.103</ele>
        <time>1970-01-01T01:00:00Z</time>
      </trkpt>
      <trkpt lat="41.90116333" lon="12.49216833">
        <ele>54.103</ele>
        <time>1970-01-01T01:00:00Z</time>
      </trkpt>
      <trkpt lat="41.901155" lon="12.49218667">
        <ele>53.036</ele>
        <time>1970-01-01T01:00:00Z</time>
      </trkpt>
      <trkpt lat="41.90114333" lon="12.49220833">
        <ele>53.036</ele>
        <time>1970-01-01T01:00:00Z</time>
      </trkpt>
      <trkpt lat="41.901135" lon="12.49223">
        <ele>53.036</ele>
        <time>1970-01-01T01:00:00Z</time>
      </trkpt>
      <trkpt lat="41.90112333" lon="12.49225167">
        <ele>53.036</ele>
        <time>1970-01-01T01:00:00Z</time>
      </trkpt>
      <trkpt lat="41.901115" lon="12.492275">
        <ele>53.036</ele>
        <time>1970-01-01T01:00:00Z</time>
      </trkpt>
      <trkpt lat="41.901105" lon="12.49230167">
        <ele>53.036</ele>
        <time>1970-01-01T01:00:00Z</time>
      </trkpt>
      <trkpt lat="41.901095" lon="12.49232833">
        <ele>52.121</ele>
        <time>1970-01-01T01:00:00Z</time>
      </trkpt>
      <trkpt lat="41.901085" lon="12.49235167">
        <ele>52.121</ele>
        <time>1970-01-01T01:00:00Z</time>
      </trkpt>
      <trkpt lat="41.901075" lon="12.492375">
        <ele>52.121</ele>
        <time>1970-01-01T01:00:00Z</time>
      </trkpt>
      <trkpt lat="41.90106667" lon="12.49239667">
        <ele>52.121</ele>
        <time>1970-01-01T01:00:00Z</time>
      </trkpt>
      <trkpt lat="41.90106" lon="12.49242333">
        <ele>52.121</ele>
        <time>1970-01-01T01:00:00Z</time>
      </trkpt>
      <trkpt lat="41.90105333" lon="12.49245">
        <ele>52.121</ele>
        <time>1970-01-01T01:00:00Z</time>
      </trkpt>
      <trkpt lat="41.90104833" lon="12.49247667">
        <ele>52.121</ele>
        <time>1970-01-01T01:00:00Z</time>
      </trkpt>
      <trkpt lat="41.90104333" lon="12.49250167">
        <ele>52.121</ele>
        <time>1970-01-01T01:00:00Z</time>
      </trkpt>
      <trkpt lat="41.90103833" lon="12.49252333">
        <ele>52.121</ele>
        <time>1970-01-01T01:00:00Z</time>
      </trkpt>
      <trkpt lat="41.90103333" lon="12.49254667">
        <ele>52.121</ele>
        <time>1970-01-01T01:00:00Z</time>
      </trkpt>
      <trkpt lat="41.90102833" lon="12.49257167">
        <ele>52.121</ele>
        <time>1970-01-01T01:00:00Z</time>
      </trkpt>
      <trkpt lat="41.90102167" lon="12.492595">
        <ele>52.121</ele>
        <time>1970-01-01T01:00:00Z</time>
      </trkpt>
      <trkpt lat="41.90101167" lon="12.49261667">
        <ele>52.121</ele>
        <time>1970-01-01T01:00:00Z</time>
      </trkpt>
      <trkpt lat="41.90100167" lon="12.49263833">
        <ele>52.121</ele>
        <time>1970-01-01T01:00:00Z</time>
      </trkpt>
      <trkpt lat="41.90099167" lon="12.49266">
        <ele>52.121</ele>
        <time>1970-01-01T01:00:00Z</time>
      </trkpt>
      <trkpt lat="41.90098167" lon="12.49268">
        <ele>52.121</ele>
        <time>1970-01-01T01:00:00Z</time>
      </trkpt>
      <trkpt lat="41.90097167" lon="12.49270167">
        <ele>52.121</ele>
        <time>1970-01-01T01:00:00Z</time>
      </trkpt>
      <trkpt lat="41.90096333" lon="12.49272333">
        <ele>52.121</ele>
        <time>1970-01-01T01:00:00Z</time>
      </trkpt>
      <trkpt lat="41.900955" lon="12.492745">
        <ele>52.121</ele>
        <time>1970-01-01T01:00:00Z</time>
      </trkpt>
      <trkpt lat="41.900945" lon="12.49276667">
        <ele>52.121</ele>
        <time>1970-01-01T01:00:00Z</time>
      </trkpt>
      <trkpt lat="41.900935" lon="12.49278667">
        <ele>52.121</ele>
        <time>1970-01-01T01:00:00Z</time>
      </trkpt>
      <trkpt lat="41.900925" lon="12.49280667">
        <ele>52.121</ele>
        <time>1970-01-01T01:00:00Z</time>
      </trkpt>
      <trkpt lat="41.90091333" lon="12.49282667">
        <ele>52.121</ele>
        <time>1970-01-01T01:00:00Z</time>
      </trkpt>
      <trkpt lat="41.90090167" lon="12.49284667">
        <ele>52.121</ele>
        <time>1970-01-01T01:00:00Z</time>
      </trkpt>
      <trkpt lat="41.90088833" lon="12.49286833">
        <ele>52.121</ele>
        <time>1970-01-01T01:00:00Z</time>
      </trkpt>
      <trkpt lat="41.900875" lon="12.49288833">
        <ele>52.121</ele>
        <time>1970-01-01T01:00:00Z</time>
      </trkpt>
      <trkpt lat="41.90086333" lon="12.49290667">
        <ele>52.121</ele>
        <time>1970-01-01T01:00:00Z</time>
      </trkpt>
      <trkpt lat="41.90085" lon="12.492925">
        <ele>52.121</ele>
        <time>1970-01-01T01:00:00Z</time>
      </trkpt>
      <trkpt lat="41.90084" lon="12.49294167">
        <ele>52.121</ele>
        <time>1970-01-01T01:00:00Z</time>
      </trkpt>
      <trkpt lat="41.90082833" lon="12.49295833">
        <ele>52.121</ele>
        <time>1970-01-01T01:00:00Z</time>
      </trkpt>
      <trkpt lat="41.90082167" lon="12.49297167">
        <ele>52.121</ele>
        <time>1970-01-01T01:00:00Z</time>
      </trkpt>
      <trkpt lat="41.90081" lon="12.49298167">
        <ele>52.121</ele>
        <time>1970-01-01T01:00:00Z</time>
      </trkpt>
      <trkpt lat="41.90079667" lon="12.49298833">
        <ele>53.036</ele>
        <time>1970-01-01T01:00:00Z</time>
      </trkpt>
      <trkpt lat="41.90078333" lon="12.49299167">
        <ele>53.036</ele>
        <time>1970-01-01T01:00:00Z</time>
      </trkpt>
      <trkpt lat="41.90077333" lon="12.49299833">
        <ele>53.036</ele>
        <time>1970-01-01T01:00:00Z</time>
      </trkpt>
      <trkpt lat="41.90076333" lon="12.49300667">
        <ele>53.036</ele>
        <time>1970-01-01T01:00:00Z</time>
      </trkpt>
      <trkpt lat="41.90075833" lon="12.49301833">
        <ele>53.036</ele>
        <time>1970-01-01T01:00:00Z</time>
      </trkpt>
      <trkpt lat="41.90075667" lon="12.49303667">
        <ele>53.036</ele>
        <time>1970-01-01T01:00:00Z</time>
      </trkpt>
      <trkpt lat="41.90075833" lon="12.49305667">
        <ele>53.036</ele>
        <time>1970-01-01T01:00:00Z</time>
      </trkpt>
      <trkpt lat="41.90076167" lon="12.49307833">
        <ele>53.036</ele>
        <time>1970-01-01T01:00:00Z</time>
      </trkpt>
      <trkpt lat="41.90077167" lon="12.49310333">
        <ele>54.103</ele>
        <time>1970-01-01T01:00:00Z</time>
      </trkpt>
      <trkpt lat="41.90078333" lon="12.49312833">
        <ele>54.103</ele>
        <time>1970-01-01T01:00:00Z</time>
      </trkpt>
      <trkpt lat="41.900795" lon="12.49315667">
        <ele>54.103</ele>
        <time>1970-01-01T01:00:00Z</time>
      </trkpt>
      <trkpt lat="41.90080667" lon="12.49318333">
        <ele>54.103</ele>
        <time>1970-01-01T01:00:00Z</time>
      </trkpt>
      <trkpt lat="41.90082" lon="12.49321">
        <ele>54.103</ele>
        <time>1970-01-01T01:00:00Z</time>
      </trkpt>
      <trkpt lat="41.90083333" lon="12.493235">
        <ele>54.103</ele>
        <time>1970-01-01T01:00:00Z</time>
      </trkpt>
      <trkpt lat="41.90084333" lon="12.49326333">
        <ele>54.103</ele>
        <time>1970-01-01T01:00:00Z</time>
      </trkpt>
      <trkpt lat="41.90085333" lon="12.49329">
        <ele>54.103</ele>
        <time>1970-01-01T01:00:00Z</time>
      </trkpt>
      <trkpt lat="41.90086" lon="12.493315">
        <ele>54.103</ele>
        <time>1970-01-01T01:00:00Z</time>
      </trkpt>
      <trkpt lat="41.90086833" lon="12.49334167">
        <ele>54.103</ele>
        <time>1970-01-01T01:00:00Z</time>
      </trkpt>
      <trkpt lat="41.900875" lon="12.49337">
        <ele>54.103</ele>
        <time>1970-01-01T01:00:00Z</time>
      </trkpt>
      <trkpt lat="41.90088167" lon="12.49339667">
        <ele>54.103</ele>
        <time>1970-01-01T01:00:00Z</time>
      </trkpt>
      <trkpt lat="41.90088667" lon="12.493425">
        <ele>54.103</ele>
        <time>1970-01-01T01:00:00Z</time>
      </trkpt>
      <trkpt lat="41.90089333" lon="12.49345">
        <ele>54.103</ele>
        <time>1970-01-01T01:00:00Z</time>
      </trkpt>
      <trkpt lat="41.90090167" lon="12.49347333">
        <ele>55.017</ele>
        <time>1970-01-01T01:00:00Z</time>
      </trkpt>
      <trkpt lat="41.90091167" lon="12.49349833">
        <ele>55.017</ele>
        <time>1970-01-01T01:00:00Z</time>
      </trkpt>
      <trkpt lat="41.90092167" lon="12.493525">
        <ele>55.017</ele>
        <time>1970-01-01T01:00:00Z</time>
      </trkpt>
      <trkpt lat="41.90093" lon="12.49355">
        <ele>55.017</ele>
        <time>1970-01-01T01:00:00Z</time>
      </trkpt>
      <trkpt lat="41.90094" lon="12.49357833">
        <ele>55.017</ele>
        <time>1970-01-01T01:00:00Z</time>
      </trkpt>
      <trkpt lat="41.90095" lon="12.49360167">
        <ele>55.017</ele>
        <time>1970-01-01T01:00:00Z</time>
      </trkpt>
      <trkpt lat="41.90096" lon="12.49363">
        <ele>55.017</ele>
        <time>1970-01-01T01:00:00Z</time>
      </trkpt>
      <trkpt lat="41.90097" lon="12.49365667">
        <ele>55.017</ele>
        <time>1970-01-01T01:00:00Z</time>
      </trkpt>
      <trkpt lat="41.90098" lon="12.49368667">
        <ele>55.017</ele>
        <time>1970-01-01T01:00:00Z</time>
      </trkpt>
      <trkpt lat="41.90099" lon="12.49371167">
        <ele>55.017</ele>
        <time>1970-01-01T01:00:00Z</time>
      </trkpt>
      <trkpt lat="41.90100333" lon="12.49373833">
        <ele>55.017</ele>
        <time>1970-01-01T01:00:00Z</time>
      </trkpt>
      <trkpt lat="41.90101667" lon="12.49376667">
        <ele>55.017</ele>
        <time>1970-01-01T01:00:00Z</time>
      </trkpt>
      <trkpt lat="41.90102833" lon="12.49379333">
        <ele>55.017</ele>
        <time>1970-01-01T01:00:00Z</time>
      </trkpt>
      <trkpt lat="41.90104167" lon="12.49381833">
        <ele>55.017</ele>
        <time>1970-01-01T01:00:00Z</time>
      </trkpt>
      <trkpt lat="41.90105667" lon="12.49383833">
        <ele>55.017</ele>
        <time>1970-01-01T01:00:00Z</time>
      </trkpt>
      <trkpt lat="41.90107667" lon="12.49385167">
        <ele>55.017</ele>
        <time>1970-01-01T01:00:00Z</time>
      </trkpt>
      <trkpt lat="41.90109833" lon="12.49386333">
        <ele>55.017</ele>
        <time>1970-01-01T01:00:00Z</time>
      </trkpt>
      <trkpt lat="41.90112167" lon="12.493875">
        <ele>55.017</ele>
        <time>1970-01-01T01:00:00Z</time>
      </trkpt>
      <trkpt lat="41.90114167" lon="12.49388667">
        <ele>55.017</ele>
        <time>1970-01-01T01:00:00Z</time>
      </trkpt>
      <trkpt lat="41.90116167" lon="12.4939">
        <ele>55.017</ele>
        <time>1970-01-01T01:00:00Z</time>
      </trkpt>
      <trkpt lat="41.90118167" lon="12.49391667">
        <ele>55.017</ele>
        <time>1970-01-01T01:00:00Z</time>
      </trkpt>
      <trkpt lat="41.90120167" lon="12.49393">
        <ele>55.017</ele>
        <time>1970-01-01T01:00:00Z</time>
      </trkpt>
      <trkpt lat="41.90122" lon="12.493945">
        <ele>55.017</ele>
        <time>1970-01-01T01:00:00Z</time>
      </trkpt>
      <trkpt lat="41.90123833" lon="12.493965">
        <ele>55.017</ele>
        <time>1970-01-01T01:00:00Z</time>
      </trkpt>
      <trkpt lat="41.90125167" lon="12.493985">
        <ele>54.103</ele>
        <time>1970-01-01T01:00:00Z</time>
      </trkpt>
      <trkpt lat="41.90126667" lon="12.49400667">
        <ele>54.103</ele>
        <time>1970-01-01T01:00:00Z</time>
      </trkpt>
      <trkpt lat="41.90128" lon="12.49403">
        <ele>54.103</ele>
        <time>1970-01-01T01:00:00Z</time>
      </trkpt>
      <trkpt lat="41.90129167" lon="12.49405333">
        <ele>54.103</ele>
        <time>1970-01-01T01:00:00Z</time>
      </trkpt>
      <trkpt lat="41.90130667" lon="12.49407333">
        <ele>54.103</ele>
        <time>1970-01-01T01:00:00Z</time>
      </trkpt>
      <trkpt lat="41.90132" lon="12.49409333">
        <ele>54.103</ele>
        <time>1970-01-01T01:00:00Z</time>
      </trkpt>
      <trkpt lat="41.90133333" lon="12.49411167">
        <ele>54.103</ele>
        <time>1970-01-01T01:00:00Z</time>
      </trkpt>
      <trkpt lat="41.90134667" lon="12.49412833">
        <ele>54.103</ele>
        <time>1970-01-01T01:00:00Z</time>
      </trkpt>
      <trkpt lat="41.90136333" lon="12.49414333">
        <ele>54.103</ele>
        <time>1970-01-01T01:00:00Z</time>
      </trkpt>
      <trkpt lat="41.90137833" lon="12.49416">
        <ele>54.103</ele>
        <time>1970-01-01T01:00:00Z</time>
      </trkpt>
      <trkpt lat="41.90139167" lon="12.49417667">
        <ele>54.103</ele>
        <time>1970-01-01T01:00:00Z</time>
      </trkpt>
      <trkpt lat="41.90140333" lon="12.49419333">
        <ele>54.103</ele>
        <time>1970-01-01T01:00:00Z</time>
      </trkpt>
      <trkpt lat="41.90141667" lon="12.49421167">
        <ele>54.103</ele>
        <time>1970-01-01T01:00:00Z</time>
      </trkpt>
      <trkpt lat="41.90142833" lon="12.49423">
        <ele>54.103</ele>
        <time>1970-01-01T01:00:00Z</time>
      </trkpt>
      <trkpt lat="41.90144" lon="12.49424833">
        <ele>54.103</ele>
        <time>1970-01-01T01:00:00Z</time>
      </trkpt>
      <trkpt lat="41.90145333" lon="12.49426667">
        <ele>54.103</ele>
        <time>1970-01-01T01:00:00Z</time>
      </trkpt>
      <trkpt lat="41.90146333" lon="12.49428833">
        <ele>54.103</ele>
        <time>1970-01-01T01:00:00Z</time>
      </trkpt>
      <trkpt lat="41.901475" lon="12.49431">
        <ele>54.103</ele>
        <time>1970-01-01T01:00:00Z</time>
      </trkpt>
      <trkpt lat="41.90149" lon="12.494335">
        <ele>55.017</ele>
        <time>1970-01-01T01:00:00Z</time>
      </trkpt>
      <trkpt lat="41.901505" lon="12.49435833">
        <ele>55.017</ele>
        <time>1970-01-01T01:00:00Z</time>
      </trkpt>
      <trkpt lat="41.90151667" lon="12.49438167">
        <ele>55.017</ele>
        <time>1970-01-01T01:00:00Z</time>
      </trkpt>
      <trkpt lat="41.90153" lon="12.49440333">
        <ele>55.017</ele>
        <time>1970-01-01T01:00:00Z</time>
      </trkpt>
      <trkpt lat="41.90154333" lon="12.49442667">
        <ele>55.017</ele>
        <time>1970-01-01T01:00:00Z</time>
      </trkpt>
      <trkpt lat="41.90155667" lon="12.494445">
        <ele>55.017</ele>
        <time>1970-01-01T01:00:00Z</time>
      </trkpt>
      <trkpt lat="41.90156833" lon="12.49446333">
        <ele>55.017</ele>
        <time>1970-01-01T01:00:00Z</time>
      </trkpt>
      <trkpt lat="41.90158167" lon="12.49448167">
        <ele>55.017</ele>
        <time>1970-01-01T01:00:00Z</time>
      </trkpt>
      <trkpt lat="41.901595" lon="12.49450167">
        <ele>56.084</ele>
        <time>1970-01-01T01:00:00Z</time>
      </trkpt>
      <trkpt lat="41.90161167" lon="12.49451833">
        <ele>56.084</ele>
        <time>1970-01-01T01:00:00Z</time>
      </trkpt>
      <trkpt lat="41.90163" lon="12.494535">
        <ele>56.084</ele>
        <time>1970-01-01T01:00:00Z</time>
      </trkpt>
      <trkpt lat="41.90164833" lon="12.49455667">
        <ele>56.084</ele>
        <time>1970-01-01T01:00:00Z</time>
      </trkpt>
      <trkpt lat="41.90166833" lon="12.49457333">
        <ele>57.151</ele>
        <time>1970-01-01T01:00:00Z</time>
      </trkpt>
      <trkpt lat="41.901685" lon="12.49459167">
        <ele>57.151</ele>
        <time>1970-01-01T01:00:00Z</time>
      </trkpt>
      <trkpt lat="41.90170167" lon="12.49461167">
        <ele>57.151</ele>
        <time>1970-01-01T01:00:00Z</time>
      </trkpt>
      <trkpt lat="41.90171333" lon="12.49463167">
        <ele>57.151</ele>
        <time>1970-01-01T01:00:00Z</time>
      </trkpt>
      <trkpt lat="41.90172333" lon="12.49465167">
        <ele>57.151</ele>
        <time>1970-01-01T01:00:00Z</time>
      </trkpt>
      <trkpt lat="41.901735" lon="12.49467167">
        <ele>57.151</ele>
        <time>1970-01-01T01:00:00Z</time>
      </trkpt>
      <trkpt lat="41.90174667" lon="12.49469167">
        <ele>57.151</ele>
        <time>1970-01-01T01:00:00Z</time>
      </trkpt>
      <trkpt lat="41.90176167" lon="12.49471">
        <ele>57.151</ele>
        <time>1970-01-01T01:00:00Z</time>
      </trkpt>
      <trkpt lat="41.90177667" lon="12.49472667">
        <ele>58.065</ele>
        <time>1970-01-01T01:00:00Z</time>
      </trkpt>
      <trkpt lat="41.901795" lon="12.49474333">
        <ele>58.065</ele>
        <time>1970-01-01T01:00:00Z</time>
      </trkpt>
      <trkpt lat="41.90181" lon="12.49475833">
        <ele>58.065</ele>
        <time>1970-01-01T01:00:00Z</time>
      </trkpt>
      <trkpt lat="41.90182667" lon="12.494775">
        <ele>58.065</ele>
        <time>1970-01-01T01:00:00Z</time>
      </trkpt>
      <trkpt lat="41.90184167" lon="12.49479167">
        <ele>58.065</ele>
        <time>1970-01-01T01:00:00Z</time>
      </trkpt>
      <trkpt lat="41.901855" lon="12.49481">
        <ele>58.065</ele>
        <time>1970-01-01T01:00:00Z</time>
      </trkpt>
      <trkpt lat="41.90186833" lon="12.49482667">
        <ele>58.065</ele>
        <time>1970-01-01T01:00:00Z</time>
      </trkpt>
      <trkpt lat="41.90188" lon="12.49484333">
        <ele>58.065</ele>
        <time>1970-01-01T01:00:00Z</time>
      </trkpt>
      <trkpt lat="41.90188833" lon="12.49486333">
        <ele>58.065</ele>
        <time>1970-01-01T01:00:00Z</time>
      </trkpt>
      <trkpt lat="41.90189833" lon="12.49488667">
        <ele>58.065</ele>
        <time>1970-01-01T01:00:00Z</time>
      </trkpt>
      <trkpt lat="41.90190833" lon="12.49491333">
        <ele>58.065</ele>
        <time>1970-01-01T01:00:00Z</time>
      </trkpt>
      <trkpt lat="41.90192167" lon="12.49494">
        <ele>58.065</ele>
        <time>1970-01-01T01:00:00Z</time>
      </trkpt>
      <trkpt lat="41.90193333" lon="12.49496333">
        <ele>58.065</ele>
        <time>1970-01-01T01:00:00Z</time>
      </trkpt>
      <trkpt lat="41.90194667" lon="12.494985">
        <ele>58.065</ele>
        <time>1970-01-01T01:00:00Z</time>
      </trkpt>
      <trkpt lat="41.90195667" lon="12.49500667">
        <ele>58.065</ele>
        <time>1970-01-01T01:00:00Z</time>
      </trkpt>
      <trkpt lat="41.90196833" lon="12.49502833">
        <ele>58.065</ele>
        <time>1970-01-01T01:00:00Z</time>
      </trkpt>
      <trkpt lat="41.90198167" lon="12.49505333">
        <ele>58.065</ele>
        <time>1970-01-01T01:00:00Z</time>
      </trkpt>
      <trkpt lat="41.901995" lon="12.49507667">
        <ele>58.065</ele>
        <time>1970-01-01T01:00:00Z</time>
      </trkpt>
      <trkpt lat="41.902005" lon="12.49510167">
        <ele>58.065</ele>
        <time>1970-01-01T01:00:00Z</time>
      </trkpt>
      <trkpt lat="41.90201667" lon="12.49512667">
        <ele>58.065</ele>
        <time>1970-01-01T01:00:00Z</time>
      </trkpt>
      <trkpt lat="41.90203" lon="12.49515667">
        <ele>58.065</ele>
        <time>1970-01-01T01:00:00Z</time>
      </trkpt>
      <trkpt lat="41.902045" lon="12.49518167">
        <ele>58.065</ele>
        <time>1970-01-01T01:00:00Z</time>
      </trkpt>
      <trkpt lat="41.902065" lon="12.495205">
        <ele>58.065</ele>
        <time>1970-01-01T01:00:00Z</time>
      </trkpt>
      <trkpt lat="41.90208167" lon="12.495225">
        <ele>58.065</ele>
        <time>1970-01-01T01:00:00Z</time>
      </trkpt>
      <trkpt lat="41.90210167" lon="12.49523833">
        <ele>58.065</ele>
        <time>1970-01-01T01:00:00Z</time>
      </trkpt>
      <trkpt lat="41.90212333" lon="12.49525">
        <ele>58.065</ele>
        <time>1970-01-01T01:00:00Z</time>
      </trkpt>
      <trkpt lat="41.902145" lon="12.49526167">
        <ele>59.132</ele>
        <time>1970-01-01T01:00:00Z</time>
      </trkpt>
      <trkpt lat="41.90216667" lon="12.49527667">
        <ele>59.132</ele>
        <time>1970-01-01T01:00:00Z</time>
      </trkpt>
      <trkpt lat="41.90218167" lon="12.49529333">
        <ele>59.132</ele>
        <time>1970-01-01T01:00:00Z</time>
      </trkpt>
      <trkpt lat="41.902195" lon="12.49530667">
        <ele>59.132</ele>
        <time>1970-01-01T01:00:00Z</time>
      </trkpt>
      <trkpt lat="41.90219833" lon="12.49531">
        <ele>58.065</ele>
        <time>1970-01-01T01:00:00Z</time>
      </trkpt>
      <trkpt lat="41.90219833" lon="12.49531333">
        <ele>58.065</ele>
        <time>1970-01-01T01:00:00Z</time>
      </trkpt>
      <trkpt lat="41.90219667" lon="12.49531833">
        <ele>58.065</ele>
        <time>1970-01-01T01:00:00Z</time>
      </trkpt>
      <trkpt lat="41.90219" lon="12.49533333">
        <ele>58.065</ele>
        <time>1970-01-01T01:00:00Z</time>
      </trkpt>
      <trkpt lat="41.90218" lon="12.495355">
        <ele>58.065</ele>
        <time>1970-01-01T01:00:00Z</time>
      </trkpt>
      <trkpt lat="41.90217167" lon="12.49538">
        <ele>58.065</ele>
        <time>1970-01-01T01:00:00Z</time>
      </trkpt>
      <trkpt lat="41.90216833" lon="12.49540833">
        <ele>58.065</ele>
        <time>1970-01-01T01:00:00Z</time>
      </trkpt>
      <trkpt lat="41.90217167" lon="12.49543667">
        <ele>58.065</ele>
        <time>1970-01-01T01:00:00Z</time>
      </trkpt>
      <trkpt lat="41.90217833" lon="12.495465">
        <ele>58.065</ele>
        <time>1970-01-01T01:00:00Z</time>
      </trkpt>
      <trkpt lat="41.90218667" lon="12.49549167">
        <ele>58.065</ele>
        <time>1970-01-01T01:00:00Z</time>
      </trkpt>
      <trkpt lat="41.902195" lon="12.49551667">
        <ele>58.065</ele>
        <time>1970-01-01T01:00:00Z</time>
      </trkpt>
      <trkpt lat="41.90220333" lon="12.495545">
        <ele>58.065</ele>
        <time>1970-01-01T01:00:00Z</time>
      </trkpt>
      <trkpt lat="41.90221333" lon="12.495575">
        <ele>59.132</ele>
        <time>1970-01-01T01:00:00Z</time>
      </trkpt>
      <trkpt lat="41.90222333" lon="12.49560167">
        <ele>59.132</ele>
        <time>1970-01-01T01:00:00Z</time>
      </trkpt>
      <trkpt lat="41.90223167" lon="12.49562833">
        <ele>59.132</ele>
        <time>1970-01-01T01:00:00Z</time>
      </trkpt>
      <trkpt lat="41.90224" lon="12.49566">
        <ele>59.132</ele>
        <time>1970-01-01T01:00:00Z</time>
      </trkpt>
      <trkpt lat="41.90224667" lon="12.49568833">
        <ele>59.132</ele>
        <time>1970-01-01T01:00:00Z</time>
      </trkpt>
      <trkpt lat="41.90225" lon="12.495715">
        <ele>59.132</ele>
        <time>1970-01-01T01:00:00Z</time>
      </trkpt>
      <trkpt lat="41.90225333" lon="12.49573833">
        <ele>59.132</ele>
        <time>1970-01-01T01:00:00Z</time>
      </trkpt>
      <trkpt lat="41.90225833" lon="12.49575833">
        <ele>59.132</ele>
        <time>1970-01-01T01:00:00Z</time>
      </trkpt>
      <trkpt lat="41.902265" lon="12.49577833">
        <ele>59.132</ele>
        <time>1970-01-01T01:00:00Z</time>
      </trkpt>
      <trkpt lat="41.90227" lon="12.49579833">
        <ele>59.132</ele>
        <time>1970-01-01T01:00:00Z</time>
      </trkpt>
      <trkpt lat="41.902275" lon="12.49582">
        <ele>59.132</ele>
        <time>1970-01-01T01:00:00Z</time>
      </trkpt>
      <trkpt lat="41.90227667" lon="12.495845">
        <ele>59.132</ele>
        <time>1970-01-01T01:00:00Z</time>
      </trkpt>
      <trkpt lat="41.902275" lon="12.49587">
        <ele>59.132</ele>
        <time>1970-01-01T01:00:00Z</time>
      </trkpt>
      <trkpt lat="41.90227333" lon="12.49589667">
        <ele>59.132</ele>
        <time>1970-01-01T01:00:00Z</time>
      </trkpt>
      <trkpt lat="41.90227" lon="12.49591833">
        <ele>59.132</ele>
        <time>1970-01-01T01:00:00Z</time>
      </trkpt>
      <trkpt lat="41.90226" lon="12.49594">
        <ele>59.132</ele>
        <time>1970-01-01T01:00:00Z</time>
      </trkpt>
      <trkpt lat="41.90225" lon="12.495965">
        <ele>59.132</ele>
        <time>1970-01-01T01:00:00Z</time>
      </trkpt>
      <trkpt lat="41.90224" lon="12.49598833">
        <ele>59.132</ele>
        <time>1970-01-01T01:00:00Z</time>
      </trkpt>
      <trkpt lat="41.90223667" lon="12.49601333">
        <ele>59.132</ele>
        <time>1970-01-01T01:00:00Z</time>
      </trkpt>
      <trkpt lat="41.90223333" lon="12.49604167">
        <ele>59.132</ele>
        <time>1970-01-01T01:00:00Z</time>
      </trkpt>
      <trkpt lat="41.90223333" lon="12.49607">
        <ele>59.132</ele>
        <time>1970-01-01T01:00:00Z</time>
      </trkpt>
      <trkpt lat="41.90223167" lon="12.4961">
        <ele>59.132</ele>
        <time>1970-01-01T01:00:00Z</time>
      </trkpt>
      <trkpt lat="41.90223167" lon="12.49613167">
        <ele>59.132</ele>
        <time>1970-01-01T01:00:00Z</time>
      </trkpt>
      <trkpt lat="41.90223167" lon="12.49616167">
        <ele>59.132</ele>
        <time>1970-01-01T01:00:00Z</time>
      </trkpt>
      <trkpt lat="41.90223167" lon="12.49619">
        <ele>60.046</ele>
        <time>1970-01-01T01:00:00Z</time>
      </trkpt>
      <trkpt lat="41.90223167" lon="12.49621667">
        <ele>60.046</ele>
        <time>1970-01-01T01:00:00Z</time>
      </trkpt>
      <trkpt lat="41.90223167" lon="12.496245">
        <ele>60.046</ele>
        <time>1970-01-01T01:00:00Z</time>
      </trkpt>
      <trkpt lat="41.90223167" lon="12.49626833">
        <ele>60.046</ele>
        <time>1970-01-01T01:00:00Z</time>
      </trkpt>
      <trkpt lat="41.90223167" lon="12.496295">
        <ele>60.046</ele>
        <time>1970-01-01T01:00:00Z</time>
      </trkpt>
      <trkpt lat="41.90223167" lon="12.49632">
        <ele>60.046</ele>
        <time>1970-01-01T01:00:00Z</time>
      </trkpt>
      <trkpt lat="41.90223333" lon="12.49635">
        <ele>60.046</ele>
        <time>1970-01-01T01:00:00Z</time>
      </trkpt>
      <trkpt lat="41.902235" lon="12.49637667">
        <ele>60.046</ele>
        <time>1970-01-01T01:00:00Z</time>
      </trkpt>
      <trkpt lat="41.902235" lon="12.496405">
        <ele>60.046</ele>
        <time>1970-01-01T01:00:00Z</time>
      </trkpt>
      <trkpt lat="41.902235" lon="12.49643333">
        <ele>60.046</ele>
        <time>1970-01-01T01:00:00Z</time>
      </trkpt>
      <trkpt lat="41.902235" lon="12.49646333">
        <ele>60.046</ele>
        <time>1970-01-01T01:00:00Z</time>
      </trkpt>
      <trkpt lat="41.90223667" lon="12.49649333">
        <ele>60.046</ele>
        <time>1970-01-01T01:00:00Z</time>
      </trkpt>
      <trkpt lat="41.90224333" lon="12.49652">
        <ele>60.046</ele>
        <time>1970-01-01T01:00:00Z</time>
      </trkpt>
      <trkpt lat="41.90225167" lon="12.49654833">
        <ele>60.046</ele>
        <time>1970-01-01T01:00:00Z</time>
      </trkpt>
      <trkpt lat="41.90226333" lon="12.49657333">
        <ele>60.046</ele>
        <time>1970-01-01T01:00:00Z</time>
      </trkpt>
      <trkpt lat="41.90227167" lon="12.4966">
        <ele>60.046</ele>
        <time>1970-01-01T01:00:00Z</time>
      </trkpt>
      <trkpt lat="41.90227833" lon="12.496625">
        <ele>60.046</ele>
        <time>1970-01-01T01:00:00Z</time>
      </trkpt>
      <trkpt lat="41.902285" lon="12.496645">
        <ele>60.046</ele>
        <time>1970-01-01T01:00:00Z</time>
      </trkpt>
      <trkpt lat="41.90229167" lon="12.49665833">
        <ele>60.046</ele>
        <time>1970-01-01T01:00:00Z</time>
      </trkpt>
      <trkpt lat="41.90229833" lon="12.496665">
        <ele>60.046</ele>
        <time>1970-01-01T01:00:00Z</time>
      </trkpt>
      <trkpt lat="41.90230333" lon="12.49667">
        <ele>60.046</ele>
        <time>1970-01-01T01:00:00Z</time>
      </trkpt>
      <trkpt lat="41.90230833" lon="12.496675">
        <ele>60.046</ele>
        <time>1970-01-01T01:00:00Z</time>
      </trkpt>
      <trkpt lat="41.90231" lon="12.496675">
        <ele>59.132</ele>
        <time>1970-01-01T01:00:00Z</time>
      </trkpt>
      <trkpt lat="41.90231333" lon="12.49667667">
        <ele>59.132</ele>
        <time>1970-01-01T01:00:00Z</time>
      </trkpt>
      <trkpt lat="41.90231667" lon="12.49667833">
        <ele>59.132</ele>
        <time>1970-01-01T01:00:00Z</time>
      </trkpt>
      <trkpt lat="41.90232333" lon="12.496685">
        <ele>59.132</ele>
        <time>1970-01-01T01:00:00Z</time>
      </trkpt>
      <trkpt lat="41.90233167" lon="12.49669667">
        <ele>59.132</ele>
        <time>1970-01-01T01:00:00Z</time>
      </trkpt>
      <trkpt lat="41.90234" lon="12.49671">
        <ele>59.132</ele>
        <time>1970-01-01T01:00:00Z</time>
      </trkpt>
      <trkpt lat="41.90235" lon="12.49673">
        <ele>59.132</ele>
        <time>1970-01-01T01:00:00Z</time>
      </trkpt>
      <trkpt lat="41.90235833" lon="12.49675">
        <ele>59.132</ele>
        <time>1970-01-01T01:00:00Z</time>
      </trkpt>
      <trkpt lat="41.90236833" lon="12.49677167">
        <ele>59.132</ele>
        <time>1970-01-01T01:00:00Z</time>
      </trkpt>
      <trkpt lat="41.90238" lon="12.49679167">
        <ele>59.132</ele>
        <time>1970-01-01T01:00:00Z</time>
      </trkpt>
      <trkpt lat="41.90239167" lon="12.49681167">
        <ele>60.046</ele>
        <time>1970-01-01T01:00:00Z</time>
      </trkpt>
      <trkpt lat="41.902405" lon="12.49683167">
        <ele>60.046</ele>
        <time>1970-01-01T01:00:00Z</time>
      </trkpt>
      <trkpt lat="41.90241667" lon="12.49685167">
        <ele>60.046</ele>
        <time>1970-01-01T01:00:00Z</time>
      </trkpt>
      <trkpt lat="41.90242833" lon="12.49687333">
        <ele>60.046</ele>
        <time>1970-01-01T01:00:00Z</time>
      </trkpt>
      <trkpt lat="41.90243833" lon="12.49689167">
        <ele>60.046</ele>
        <time>1970-01-01T01:00:00Z</time>
      </trkpt>
      <trkpt lat="41.90245" lon="12.496905">
        <ele>60.046</ele>
        <time>1970-01-01T01:00:00Z</time>
      </trkpt>
      <trkpt lat="41.90246333" lon="12.49691333">
        <ele>61.113</ele>
        <time>1970-01-01T01:00:00Z</time>
      </trkpt>
      <trkpt lat="41.90247667" lon="12.49692167">
        <ele>61.113</ele>
        <time>1970-01-01T01:00:00Z</time>
      </trkpt>
      <trkpt lat="41.90249167" lon="12.496935">
        <ele>61.113</ele>
        <time>1970-01-01T01:00:00Z</time>
      </trkpt>
      <trkpt lat="41.902505" lon="12.496955">
        <ele>61.113</ele>
        <time>1970-01-01T01:00:00Z</time>
      </trkpt>
      <trkpt lat="41.90252167" lon="12.49697167">
        <ele>61.113</ele>
        <time>1970-01-01T01:00:00Z</time>
      </trkpt>
      <trkpt lat="41.90254167" lon="12.49699">
        <ele>61.113</ele>
        <time>1970-01-01T01:00:00Z</time>
      </trkpt>
      <trkpt lat="41.90256167" lon="12.49701333">
        <ele>61.113</ele>
        <time>1970-01-01T01:00:00Z</time>
      </trkpt>
      <trkpt lat="41.90258167" lon="12.49703667">
        <ele>61.113</ele>
        <time>1970-01-01T01:00:00Z</time>
      </trkpt>
      <trkpt lat="41.90259667" lon="12.497065">
        <ele>61.113</ele>
        <time>1970-01-01T01:00:00Z</time>
      </trkpt>
      <trkpt lat="41.90260667" lon="12.49709333">
        <ele>61.113</ele>
        <time>1970-01-01T01:00:00Z</time>
      </trkpt>
      <trkpt lat="41.90261667" lon="12.49712">
        <ele>61.113</ele>
        <time>1970-01-01T01:00:00Z</time>
      </trkpt>
      <trkpt lat="41.90262333" lon="12.49714667">
        <ele>61.113</ele>
        <time>1970-01-01T01:00:00Z</time>
      </trkpt>
      <trkpt lat="41.90262667" lon="12.49716833">
        <ele>61.113</ele>
        <time>1970-01-01T01:00:00Z</time>
      </trkpt>
      <trkpt lat="41.90262667" lon="12.497185">
        <ele>61.113</ele>
        <time>1970-01-01T01:00:00Z</time>
      </trkpt>
      <trkpt lat="41.90262667" lon="12.49720667">
        <ele>61.113</ele>
        <time>1970-01-01T01:00:00Z</time>
      </trkpt>
      <trkpt lat="41.90262333" lon="12.49722667">
        <ele>61.113</ele>
        <time>1970-01-01T01:00:00Z</time>
      </trkpt>
      <trkpt lat="41.90261833" lon="12.49724667">
        <ele>61.113</ele>
        <time>1970-01-01T01:00:00Z</time>
      </trkpt>
      <trkpt lat="41.90261333" lon="12.49726667">
        <ele>61.113</ele>
        <time>1970-01-01T01:00:00Z</time>
      </trkpt>
      <trkpt lat="41.90260833" lon="12.49728833">
        <ele>61.113</ele>
        <time>1970-01-01T01:00:00Z</time>
      </trkpt>
      <trkpt lat="41.90260333" lon="12.49731333">
        <ele>61.113</ele>
        <time>1970-01-01T01:00:00Z</time>
      </trkpt>
      <trkpt lat="41.90259667" lon="12.49733833">
        <ele>61.113</ele>
        <time>1970-01-01T01:00:00Z</time>
      </trkpt>
      <trkpt lat="41.90259" lon="12.497365">
        <ele>61.113</ele>
        <time>1970-01-01T01:00:00Z</time>
      </trkpt>
      <trkpt lat="41.90258167" lon="12.497395">
        <ele>61.113</ele>
        <time>1970-01-01T01:00:00Z</time>
      </trkpt>
      <trkpt lat="41.90257167" lon="12.497425">
        <ele>61.113</ele>
        <time>1970-01-01T01:00:00Z</time>
      </trkpt>
      <trkpt lat="41.90256167" lon="12.49745833">
        <ele>61.113</ele>
        <time>1970-01-01T01:00:00Z</time>
      </trkpt>
      <trkpt lat="41.902555" lon="12.49748833">
        <ele>61.113</ele>
        <time>1970-01-01T01:00:00Z</time>
      </trkpt>
      <trkpt lat="41.90254667" lon="12.49752333">
        <ele>61.113</ele>
        <time>1970-01-01T01:00:00Z</time>
      </trkpt>
      <trkpt lat="41.90253667" lon="12.49755667">
        <ele>61.113</ele>
        <time>1970-01-01T01:00:00Z</time>
      </trkpt>
      <trkpt lat="41.902525" lon="12.49758833">
        <ele>62.028</ele>
        <time>1970-01-01T01:00:00Z</time>
      </trkpt>
      <trkpt lat="41.902515" lon="12.49762">
        <ele>62.028</ele>
        <time>1970-01-01T01:00:00Z</time>
      </trkpt>
      <trkpt lat="41.90250667" lon="12.49764667">
        <ele>62.028</ele>
        <time>1970-01-01T01:00:00Z</time>
      </trkpt>
      <trkpt lat="41.90249833" lon="12.49767333">
        <ele>62.028</ele>
        <time>1970-01-01T01:00:00Z</time>
      </trkpt>
      <trkpt lat="41.90249" lon="12.49770333">
        <ele>62.028</ele>
        <time>1970-01-01T01:00:00Z</time>
      </trkpt>
      <trkpt lat="41.90248" lon="12.49773167">
        <ele>62.028</ele>
        <time>1970-01-01T01:00:00Z</time>
      </trkpt>
      <trkpt lat="41.90247" lon="12.49776">
        <ele>62.028</ele>
        <time>1970-01-01T01:00:00Z</time>
      </trkpt>
      <trkpt lat="41.90246" lon="12.49779">
        <ele>62.028</ele>
        <time>1970-01-01T01:00:00Z</time>
      </trkpt>
      <trkpt lat="41.90245167" lon="12.49781833">
        <ele>62.028</ele>
        <time>1970-01-01T01:00:00Z</time>
      </trkpt>
      <trkpt lat="41.902445" lon="12.49784667">
        <ele>62.028</ele>
        <time>1970-01-01T01:00:00Z</time>
      </trkpt>
      <trkpt lat="41.90244" lon="12.49787333">
        <ele>62.028</ele>
        <time>1970-01-01T01:00:00Z</time>
      </trkpt>
      <trkpt lat="41.90243333" lon="12.49789833">
        <ele>62.028</ele>
        <time>1970-01-01T01:00:00Z</time>
      </trkpt>
      <trkpt lat="41.90242667" lon="12.49792333">
        <ele>62.028</ele>
        <time>1970-01-01T01:00:00Z</time>
      </trkpt>
      <trkpt lat="41.90242167" lon="12.49795">
        <ele>62.028</ele>
        <time>1970-01-01T01:00:00Z</time>
      </trkpt>
      <trkpt lat="41.902415" lon="12.497975">
        <ele>63.094</ele>
        <time>1970-01-01T01:00:00Z</time>
      </trkpt>
      <trkpt lat="41.90240667" lon="12.49800167">
        <ele>63.094</ele>
        <time>1970-01-01T01:00:00Z</time>
      </trkpt>
      <trkpt lat="41.90239833" lon="12.49802667">
        <ele>63.094</ele>
        <time>1970-01-01T01:00:00Z</time>
      </trkpt>
      <trkpt lat="41.90239333" lon="12.498055">
        <ele>63.094</ele>
        <time>1970-01-01T01:00:00Z</time>
      </trkpt>
      <trkpt lat="41.90238833" lon="12.49808167">
        <ele>64.161</ele>
        <time>1970-01-01T01:00:00Z</time>
      </trkpt>
      <trkpt lat="41.90238333" lon="12.49810667">
        <ele>64.161</ele>
        <time>1970-01-01T01:00:00Z</time>
      </trkpt>
      <trkpt lat="41.90238" lon="12.49813">
        <ele>64.161</ele>
        <time>1970-01-01T01:00:00Z</time>
      </trkpt>
      <trkpt lat="41.90237333" lon="12.49815667">
        <ele>64.161</ele>
        <time>1970-01-01T01:00:00Z</time>
      </trkpt>
      <trkpt lat="41.90236667" lon="12.49818667">
        <ele>64.161</ele>
        <time>1970-01-01T01:00:00Z</time>
      </trkpt>
      <trkpt lat="41.90236" lon="12.498215">
        <ele>64.161</ele>
        <time>1970-01-01T01:00:00Z</time>
      </trkpt>
      <trkpt lat="41.90235333" lon="12.498245">
        <ele>64.161</ele>
        <time>1970-01-01T01:00:00Z</time>
      </trkpt>
      <trkpt lat="41.90234667" lon="12.49827333">
        <ele>64.161</ele>
        <time>1970-01-01T01:00:00Z</time>
      </trkpt>
      <trkpt lat="41.90234167" lon="12.4983">
        <ele>64.161</ele>
        <time>1970-01-01T01:00:00Z</time>
      </trkpt>
      <trkpt lat="41.90233667" lon="12.498325">
        <ele>64.161</ele>
        <time>1970-01-01T01:00:00Z</time>
      </trkpt>
      <trkpt lat="41.90232833" lon="12.49835167">
        <ele>64.161</ele>
        <time>1970-01-01T01:00:00Z</time>
      </trkpt>
      <trkpt lat="41.90232167" lon="12.498375">
        <ele>64.161</ele>
        <time>1970-01-01T01:00:00Z</time>
      </trkpt>
      <trkpt lat="41.902315" lon="12.4984">
        <ele>64.161</ele>
        <time>1970-01-01T01:00:00Z</time>
      </trkpt>
      <trkpt lat="41.90231" lon="12.498425">
        <ele>64.161</ele>
        <time>1970-01-01T01:00:00Z</time>
      </trkpt>
      <trkpt lat="41.90230667" lon="12.49844833">
        <ele>65.076</ele>
        <time>1970-01-01T01:00:00Z</time>
      </trkpt>
      <trkpt lat="41.902305" lon="12.49846833">
        <ele>65.076</ele>
        <time>1970-01-01T01:00:00Z</time>
      </trkpt>
      <trkpt lat="41.90230333" lon="12.49849333">
        <ele>65.076</ele>
        <time>1970-01-01T01:00:00Z</time>
      </trkpt>
      <trkpt lat="41.90230167" lon="12.49851667">
        <ele>65.076</ele>
        <time>1970-01-01T01:00:00Z</time>
      </trkpt>
      <trkpt lat="41.9023" lon="12.49854167">
        <ele>65.076</ele>
        <time>1970-01-01T01:00:00Z</time>
      </trkpt>
      <trkpt lat="41.9023" lon="12.498565">
        <ele>65.076</ele>
        <time>1970-01-01T01:00:00Z</time>
      </trkpt>
      <trkpt lat="41.90230167" lon="12.49858833">
        <ele>65.076</ele>
        <time>1970-01-01T01:00:00Z</time>
      </trkpt>
      <trkpt lat="41.90230667" lon="12.49861">
        <ele>65.076</ele>
        <time>1970-01-01T01:00:00Z</time>
      </trkpt>
      <trkpt lat="41.902315" lon="12.498635">
        <ele>66.142</ele>
        <time>1970-01-01T01:00:00Z</time>
      </trkpt>
      <trkpt lat="41.90232833" lon="12.49866">
        <ele>66.142</ele>
        <time>1970-01-01T01:00:00Z</time>
      </trkpt>
      <trkpt lat="41.90234333" lon="12.49868333">
        <ele>66.142</ele>
        <time>1970-01-01T01:00:00Z</time>
      </trkpt>
      <trkpt lat="41.90235833" lon="12.49870333">
        <ele>66.142</ele>
        <time>1970-01-01T01:00:00Z</time>
      </trkpt>
      <trkpt lat="41.90237167" lon="12.49872333">
        <ele>67.057</ele>
        <time>1970-01-01T01:00:00Z</time>
      </trkpt>
      <trkpt lat="41.902385" lon="12.49874167">
        <ele>67.057</ele>
        <time>1970-01-01T01:00:00Z</time>
      </trkpt>
      <trkpt lat="41.90239667" lon="12.498755">
        <ele>67.057</ele>
        <time>1970-01-01T01:00:00Z</time>
      </trkpt>
      <trkpt lat="41.90240667" lon="12.49876167">
        <ele>67.057</ele>
        <time>1970-01-01T01:00:00Z</time>
      </trkpt>
      <trkpt lat="41.902415" lon="12.49876833">
        <ele>67.057</ele>
        <time>1970-01-01T01:00:00Z</time>
      </trkpt>
      <trkpt lat="41.90237667" lon="12.49879">
        <ele>71.019</ele>
        <time>1970-01-01T01:00:00Z</time>
      </trkpt>
      <trkpt lat="41.902385" lon="12.49880333">
        <ele>73.153</ele>
        <time>1970-01-01T01:00:00Z</time>
      </trkpt>
      <trkpt lat="41.902395" lon="12.49881833">
        <ele>73.153</ele>
        <time>1970-01-01T01:00:00Z</time>
      </trkpt>
      <trkpt lat="41.90240833" lon="12.49883667">
        <ele>73.153</ele>
        <time>1970-01-01T01:00:00Z</time>
      </trkpt>
      <trkpt lat="41.90242333" lon="12.49885833">
        <ele>73.153</ele>
        <time>1970-01-01T01:00:00Z</time>
      </trkpt>
      <trkpt lat="41.90244" lon="12.49887667">
        <ele>74.067</ele>
        <time>1970-01-01T01:00:00Z</time>
      </trkpt>
      <trkpt lat="41.90245667" lon="12.49889833">
        <ele>74.067</ele>
        <time>1970-01-01T01:00:00Z</time>
      </trkpt>
      <trkpt lat="41.902475" lon="12.49892167">
        <ele>74.067</ele>
        <time>1970-01-01T01:00:00Z</time>
      </trkpt>
      <trkpt lat="41.902495" lon="12.498945">
        <ele>74.067</ele>
        <time>1970-01-01T01:00:00Z</time>
      </trkpt>
      <trkpt lat="41.90251333" lon="12.49896833">
        <ele>74.067</ele>
        <time>1970-01-01T01:00:00Z</time>
      </trkpt>
      <trkpt lat="41.90253333" lon="12.49899">
        <ele>74.067</ele>
        <time>1970-01-01T01:00:00Z</time>
      </trkpt>
      <trkpt lat="41.90255" lon="12.499015">
        <ele>75.134</ele>
        <time>1970-01-01T01:00:00Z</time>
      </trkpt>
      <trkpt lat="41.902565" lon="12.49903833">
        <ele>75.134</ele>
        <time>1970-01-01T01:00:00Z</time>
      </trkpt>
      <trkpt lat="41.90257667" lon="12.49906">
        <ele>75.134</ele>
        <time>1970-01-01T01:00:00Z</time>
      </trkpt>
      <trkpt lat="41.90258833" lon="12.49908">
        <ele>75.134</ele>
        <time>1970-01-01T01:00:00Z</time>
      </trkpt>
      <trkpt lat="41.90260167" lon="12.49909833">
        <ele>76.049</ele>
        <time>1970-01-01T01:00:00Z</time>
      </trkpt>
      <trkpt lat="41.902615" lon="12.49911833">
        <ele>76.049</ele>
        <time>1970-01-01T01:00:00Z</time>
      </trkpt>
      <trkpt lat="41.90263" lon="12.49914">
        <ele>76.049</ele>
        <time>1970-01-01T01:00:00Z</time>
      </trkpt>
      <trkpt lat="41.90264333" lon="12.49916167">
        <ele>76.049</ele>
        <time>1970-01-01T01:00:00Z</time>
      </trkpt>
      <trkpt lat="41.90266" lon="12.499185">
        <ele>76.049</ele>
        <time>1970-01-01T01:00:00Z</time>
      </trkpt>
      <trkpt lat="41.902675" lon="12.49920667">
        <ele>76.049</ele>
        <time>1970-01-01T01:00:00Z</time>
      </trkpt>
      <trkpt lat="41.90269167" lon="12.49922833">
        <ele>76.049</ele>
        <time>1970-01-01T01:00:00Z</time>
      </trkpt>
      <trkpt lat="41.90271" lon="12.49925333">
        <ele>76.049</ele>
        <time>1970-01-01T01:00:00Z</time>
      </trkpt>
      <trkpt lat="41.90272333" lon="12.499275">
        <ele>76.049</ele>
        <time>1970-01-01T01:00:00Z</time>
      </trkpt>
      <trkpt lat="41.90273667" lon="12.499295">
        <ele>76.049</ele>
        <time>1970-01-01T01:00:00Z</time>
      </trkpt>
      <trkpt lat="41.90275167" lon="12.49931333">
        <ele>76.049</ele>
        <time>1970-01-01T01:00:00Z</time>
      </trkpt>
      <trkpt lat="41.90277" lon="12.49933333">
        <ele>76.049</ele>
        <time>1970-01-01T01:00:00Z</time>
      </trkpt>
      <trkpt lat="41.902785" lon="12.49935167">
        <ele>76.049</ele>
        <time>1970-01-01T01:00:00Z</time>
      </trkpt>
      <trkpt lat="41.9028" lon="12.49936833">
        <ele>76.049</ele>
        <time>1970-01-01T01:00:00Z</time>
      </trkpt>
      <trkpt lat="41.90281667" lon="12.49938667">
        <ele>76.049</ele>
        <time>1970-01-01T01:00:00Z</time>
      </trkpt>
      <trkpt lat="41.90283167" lon="12.49940667">
        <ele>76.049</ele>
        <time>1970-01-01T01:00:00Z</time>
      </trkpt>
      <trkpt lat="41.90284667" lon="12.49942667">
        <ele>76.049</ele>
        <time>1970-01-01T01:00:00Z</time>
      </trkpt>
      <trkpt lat="41.90286167" lon="12.49944667">
        <ele>76.049</ele>
        <time>1970-01-01T01:00:00Z</time>
      </trkpt>
      <trkpt lat="41.902875" lon="12.49946667">
        <ele>76.049</ele>
        <time>1970-01-01T01:00:00Z</time>
      </trkpt>
      <trkpt lat="41.90289" lon="12.49949">
        <ele>76.049</ele>
        <time>1970-01-01T01:00:00Z</time>
      </trkpt>
      <trkpt lat="41.90290667" lon="12.49951333">
        <ele>74.067</ele>
        <time>1970-01-01T01:00:00Z</time>
      </trkpt>
      <trkpt lat="41.90292167" lon="12.499535">
        <ele>74.067</ele>
        <time>1970-01-01T01:00:00Z</time>
      </trkpt>
      <trkpt lat="41.90293833" lon="12.49956">
        <ele>74.067</ele>
        <time>1970-01-01T01:00:00Z</time>
      </trkpt>
      <trkpt lat="41.902955" lon="12.49958333">
        <ele>74.067</ele>
        <time>1970-01-01T01:00:00Z</time>
      </trkpt>
      <trkpt lat="41.90297" lon="12.49960833">
        <ele>74.067</ele>
        <time>1970-01-01T01:00:00Z</time>
      </trkpt>
      <trkpt lat="41.902985" lon="12.49963">
        <ele>74.067</ele>
        <time>1970-01-01T01:00:00Z</time>
      </trkpt>
      <trkpt lat="41.90299833" lon="12.49965167">
        <ele>74.067</ele>
        <time>1970-01-01T01:00:00Z</time>
      </trkpt>
      <trkpt lat="41.90301167" lon="12.49967333">
        <ele>74.067</ele>
        <time>1970-01-01T01:00:00Z</time>
      </trkpt>
      <trkpt lat="41.90302667" lon="12.49969833">
        <ele>74.067</ele>
        <time>1970-01-01T01:00:00Z</time>
      </trkpt>
      <trkpt lat="41.90304167" lon="12.49972167">
        <ele>74.067</ele>
        <time>1970-01-01T01:00:00Z</time>
      </trkpt>
      <trkpt lat="41.90305667" lon="12.499745">
        <ele>74.067</ele>
        <time>1970-01-01T01:00:00Z</time>
      </trkpt>
      <trkpt lat="41.90307" lon="12.49977167">
        <ele>74.067</ele>
        <time>1970-01-01T01:00:00Z</time>
      </trkpt>
      <trkpt lat="41.90308167" lon="12.49979667">
        <ele>74.067</ele>
        <time>1970-01-01T01:00:00Z</time>
      </trkpt>
      <trkpt lat="41.90309" lon="12.49982">
        <ele>74.067</ele>
        <time>1970-01-01T01:00:00Z</time>
      </trkpt>
      <trkpt lat="41.90309833" lon="12.49984167">
        <ele>74.067</ele>
        <time>1970-01-01T01:00:00Z</time>
      </trkpt>
      <trkpt lat="41.90310667" lon="12.49986333">
        <ele>74.067</ele>
        <time>1970-01-01T01:00:00Z</time>
      </trkpt>
      <trkpt lat="41.903115" lon="12.49988833">
        <ele>74.067</ele>
        <time>1970-01-01T01:00:00Z</time>
      </trkpt>
      <trkpt lat="41.903125" lon="12.49991333">
        <ele>74.067</ele>
        <time>1970-01-01T01:00:00Z</time>
      </trkpt>
      <trkpt lat="41.90313833" lon="12.49993667">
        <ele>74.067</ele>
        <time>1970-01-01T01:00:00Z</time>
      </trkpt>
      <trkpt lat="41.90315167" lon="12.49996">
        <ele>74.067</ele>
        <time>1970-01-01T01:00:00Z</time>
      </trkpt>
      <trkpt lat="41.90316833" lon="12.499985">
        <ele>74.067</ele>
        <time>1970-01-01T01:00:00Z</time>
      </trkpt>
      <trkpt lat="41.90318667" lon="12.50001167">
        <ele>74.067</ele>
        <time>1970-01-01T01:00:00Z</time>
      </trkpt>
      <trkpt lat="41.9032" lon="12.50003833">
        <ele>76.049</ele>
        <time>1970-01-01T01:00:00Z</time>
      </trkpt>
      <trkpt lat="41.90321167" lon="12.50006">
        <ele>76.049</ele>
        <time>1970-01-01T01:00:00Z</time>
      </trkpt>
      <trkpt lat="41.90322167" lon="12.50008667">
        <ele>76.049</ele>
        <time>1970-01-01T01:00:00Z</time>
      </trkpt>
      <trkpt lat="41.90323333" lon="12.500115">
        <ele>76.049</ele>
        <time>1970-01-01T01:00:00Z</time>
      </trkpt>
      <trkpt lat="41.90324333" lon="12.50014167">
        <ele>76.049</ele>
        <time>1970-01-01T01:00:00Z</time>
      </trkpt>
      <trkpt lat="41.903255" lon="12.50017">
        <ele>76.049</ele>
        <time>1970-01-01T01:00:00Z</time>
      </trkpt>
      <trkpt lat="41.903265" lon="12.5002">
        <ele>76.049</ele>
        <time>1970-01-01T01:00:00Z</time>
      </trkpt>
      <trkpt lat="41.90327833" lon="12.50022833">
        <ele>76.049</ele>
        <time>1970-01-01T01:00:00Z</time>
      </trkpt>
      <trkpt lat="41.90329167" lon="12.500255">
        <ele>76.049</ele>
        <time>1970-01-01T01:00:00Z</time>
      </trkpt>
      <trkpt lat="41.903305" lon="12.50027833">
        <ele>76.049</ele>
        <time>1970-01-01T01:00:00Z</time>
      </trkpt>
      <trkpt lat="41.90331667" lon="12.50030333">
        <ele>76.049</ele>
        <time>1970-01-01T01:00:00Z</time>
      </trkpt>
      <trkpt lat="41.90333167" lon="12.50032667">
        <ele>76.049</ele>
        <time>1970-01-01T01:00:00Z</time>
      </trkpt>
      <trkpt lat="41.903345" lon="12.50035">
        <ele>76.049</ele>
        <time>1970-01-01T01:00:00Z</time>
      </trkpt>
      <trkpt lat="41.90336" lon="12.500375">
        <ele>76.049</ele>
        <time>1970-01-01T01:00:00Z</time>
      </trkpt>
      <trkpt lat="41.90337333" lon="12.5004">
        <ele>76.049</ele>
        <time>1970-01-01T01:00:00Z</time>
      </trkpt>
      <trkpt lat="41.90338667" lon="12.500425">
        <ele>76.049</ele>
        <time>1970-01-01T01:00:00Z</time>
      </trkpt>
      <trkpt lat="41.90339833" lon="12.50045">
        <ele>76.049</ele>
        <time>1970-01-01T01:00:00Z</time>
      </trkpt>
      <trkpt lat="41.90341" lon="12.50047167">
        <ele>76.049</ele>
        <time>1970-01-01T01:00:00Z</time>
      </trkpt>
      <trkpt lat="41.90342167" lon="12.50049667">
        <ele>76.049</ele>
        <time>1970-01-01T01:00:00Z</time>
      </trkpt>
      <trkpt lat="41.90343667" lon="12.50051833">
        <ele>76.049</ele>
        <time>1970-01-01T01:00:00Z</time>
      </trkpt>
      <trkpt lat="41.90345" lon="12.50054">
        <ele>76.049</ele>
        <time>1970-01-01T01:00:00Z</time>
      </trkpt>
      <trkpt lat="41.90346167" lon="12.500565">
        <ele>76.049</ele>
        <time>1970-01-01T01:00:00Z</time>
      </trkpt>
      <trkpt lat="41.90347667" lon="12.50059">
        <ele>76.049</ele>
        <time>1970-01-01T01:00:00Z</time>
      </trkpt>
      <trkpt lat="41.90349333" lon="12.50061667">
        <ele>76.049</ele>
        <time>1970-01-01T01:00:00Z</time>
      </trkpt>
      <trkpt lat="41.903515" lon="12.50064167">
        <ele>76.049</ele>
        <time>1970-01-01T01:00:00Z</time>
      </trkpt>
      <trkpt lat="41.903535" lon="12.500665">
        <ele>76.049</ele>
        <time>1970-01-01T01:00:00Z</time>
      </trkpt>
      <trkpt lat="41.903555" lon="12.500685">
        <ele>76.049</ele>
        <time>1970-01-01T01:00:00Z</time>
      </trkpt>
      <trkpt lat="41.90357333" lon="12.50070667">
        <ele>76.049</ele>
        <time>1970-01-01T01:00:00Z</time>
      </trkpt>
      <trkpt lat="41.90359167" lon="12.50072833">
        <ele>76.049</ele>
        <time>1970-01-01T01:00:00Z</time>
      </trkpt>
      <trkpt lat="41.90360667" lon="12.50075167">
        <ele>76.049</ele>
        <time>1970-01-01T01:00:00Z</time>
      </trkpt>
      <trkpt lat="41.90362" lon="12.50077667">
        <ele>76.049</ele>
        <time>1970-01-01T01:00:00Z</time>
      </trkpt>
      <trkpt lat="41.90362833" lon="12.50080333">
        <ele>76.049</ele>
        <time>1970-01-01T01:00:00Z</time>
      </trkpt>
      <trkpt lat="41.90363167" lon="12.500835">
        <ele>76.049</ele>
        <time>1970-01-01T01:00:00Z</time>
      </trkpt>
      <trkpt lat="41.90363333" lon="12.500865">
        <ele>76.049</ele>
        <time>1970-01-01T01:00:00Z</time>
      </trkpt>
      <trkpt lat="41.903635" lon="12.500895">
        <ele>76.049</ele>
        <time>1970-01-01T01:00:00Z</time>
      </trkpt>
      <trkpt lat="41.90363333" lon="12.50092333">
        <ele>76.049</ele>
        <time>1970-01-01T01:00:00Z</time>
      </trkpt>
      <trkpt lat="41.90363333" lon="12.500955">
        <ele>76.049</ele>
        <time>1970-01-01T01:00:00Z</time>
      </trkpt>
      <trkpt lat="41.90363" lon="12.50098667">
        <ele>76.049</ele>
        <time>1970-01-01T01:00:00Z</time>
      </trkpt>
      <trkpt lat="41.90363" lon="12.50101667">
        <ele>76.049</ele>
        <time>1970-01-01T01:00:00Z</time>
      </trkpt>
      <trkpt lat="41.90363" lon="12.50104333">
        <ele>76.049</ele>
        <time>1970-01-01T01:00:00Z</time>
      </trkpt>
      <trkpt lat="41.90363167" lon="12.50106833">
        <ele>76.049</ele>
        <time>1970-01-01T01:00:00Z</time>
      </trkpt>
      <trkpt lat="41.90363667" lon="12.50109333">
        <ele>76.049</ele>
        <time>1970-01-01T01:00:00Z</time>
      </trkpt>
      <trkpt lat="41.90364167" lon="12.50112333">
        <ele>76.049</ele>
        <time>1970-01-01T01:00:00Z</time>
      </trkpt>
      <trkpt lat="41.90365" lon="12.501155">
        <ele>76.049</ele>
        <time>1970-01-01T01:00:00Z</time>
      </trkpt>
      <trkpt lat="41.90366" lon="12.50118333">
        <ele>76.049</ele>
        <time>1970-01-01T01:00:00Z</time>
      </trkpt>
      <trkpt lat="41.90366833" lon="12.50121">
        <ele>76.049</ele>
        <time>1970-01-01T01:00:00Z</time>
      </trkpt>
      <trkpt lat="41.90367667" lon="12.501235">
        <ele>76.049</ele>
        <time>1970-01-01T01:00:00Z</time>
      </trkpt>
      <trkpt lat="41.903685" lon="12.50126333">
        <ele>76.049</ele>
        <time>1970-01-01T01:00:00Z</time>
      </trkpt>
      <trkpt lat="41.90369667" lon="12.50129">
        <ele>76.049</ele>
        <time>1970-01-01T01:00:00Z</time>
      </trkpt>
      <trkpt lat="41.90371" lon="12.50131833">
        <ele>76.049</ele>
        <time>1970-01-01T01:00:00Z</time>
      </trkpt>
      <trkpt lat="41.90372333" lon="12.50134333">
        <ele>76.049</ele>
        <time>1970-01-01T01:00:00Z</time>
      </trkpt>
      <trkpt lat="41.90374" lon="12.50137167">
        <ele>76.049</ele>
        <time>1970-01-01T01:00:00Z</time>
      </trkpt>
      <trkpt lat="41.90375833" lon="12.501395">
        <ele>74.067</ele>
        <time>1970-01-01T01:00:00Z</time>
      </trkpt>
      <trkpt lat="41.90377667" lon="12.50141833">
        <ele>74.067</ele>
        <time>1970-01-01T01:00:00Z</time>
      </trkpt>
      <trkpt lat="41.90379333" lon="12.50144">
        <ele>74.067</ele>
        <time>1970-01-01T01:00:00Z</time>
      </trkpt>
      <trkpt lat="41.90381333" lon="12.50146167">
        <ele>74.067</ele>
        <time>1970-01-01T01:00:00Z</time>
      </trkpt>
      <trkpt lat="41.90383333" lon="12.50148667">
        <ele>74.067</ele>
        <time>1970-01-01T01:00:00Z</time>
      </trkpt>
      <trkpt lat="41.90385333" lon="12.50151">
        <ele>74.067</ele>
        <time>1970-01-01T01:00:00Z</time>
      </trkpt>
      <trkpt lat="41.90387167" lon="12.501535">
        <ele>74.067</ele>
        <time>1970-01-01T01:00:00Z</time>
      </trkpt>
      <trkpt lat="41.90389" lon="12.50155667">
        <ele>74.067</ele>
        <time>1970-01-01T01:00:00Z</time>
      </trkpt>
      <trkpt lat="41.90391" lon="12.50158167">
        <ele>73.153</ele>
        <time>1970-01-01T01:00:00Z</time>
      </trkpt>
      <trkpt lat="41.90392667" lon="12.501605">
        <ele>73.153</ele>
        <time>1970-01-01T01:00:00Z</time>
      </trkpt>
      <trkpt lat="41.90394333" lon="12.50162667">
        <ele>73.153</ele>
        <time>1970-01-01T01:00:00Z</time>
      </trkpt>
      <trkpt lat="41.90395667" lon="12.50164833">
        <ele>73.153</ele>
        <time>1970-01-01T01:00:00Z</time>
      </trkpt>
      <trkpt lat="41.90396833" lon="12.50167">
        <ele>73.153</ele>
        <time>1970-01-01T01:00:00Z</time>
      </trkpt>
      <trkpt lat="41.90398" lon="12.50169167">
        <ele>73.153</ele>
        <time>1970-01-01T01:00:00Z</time>
      </trkpt>
      <trkpt lat="41.90398833" lon="12.50171167">
        <ele>73.153</ele>
        <time>1970-01-01T01:00:00Z</time>
      </trkpt>
      <trkpt lat="41.90399333" lon="12.50172833">
        <ele>73.153</ele>
        <time>1970-01-01T01:00:00Z</time>
      </trkpt>
      <trkpt lat="41.903995" lon="12.50174333">
        <ele>72.086</ele>
        <time>1970-01-01T01:00:00Z</time>
      </trkpt>
      <trkpt lat="41.90399667" lon="12.50175833">
        <ele>72.086</ele>
        <time>1970-01-01T01:00:00Z</time>
      </trkpt>
      <trkpt lat="41.903995" lon="12.50177833">
        <ele>72.086</ele>
        <time>1970-01-01T01:00:00Z</time>
      </trkpt>
      <trkpt lat="41.90399333" lon="12.50180333">
        <ele>72.086</ele>
        <time>1970-01-01T01:00:00Z</time>
      </trkpt>
      <trkpt lat="41.90398833" lon="12.50183">
        <ele>72.086</ele>
        <time>1970-01-01T01:00:00Z</time>
      </trkpt>
      <trkpt lat="41.90398333" lon="12.50185833">
        <ele>72.086</ele>
        <time>1970-01-01T01:00:00Z</time>
      </trkpt>
      <trkpt lat="41.90397833" lon="12.501885">
        <ele>72.086</ele>
        <time>1970-01-01T01:00:00Z</time>
      </trkpt>
      <trkpt lat="41.903975" lon="12.50190833">
        <ele>72.086</ele>
        <time>1970-01-01T01:00:00Z</time>
      </trkpt>
      <trkpt lat="41.903975" lon="12.50193">
        <ele>72.086</ele>
        <time>1970-01-01T01:00:00Z</time>
      </trkpt>
      <trkpt lat="41.90397333" lon="12.50195167">
        <ele>72.086</ele>
        <time>1970-01-01T01:00:00Z</time>
      </trkpt>
      <trkpt lat="41.90396833" lon="12.50197">
        <ele>72.086</ele>
        <time>1970-01-01T01:00:00Z</time>
      </trkpt>
      <trkpt lat="41.903965" lon="12.50199">
        <ele>72.086</ele>
        <time>1970-01-01T01:00:00Z</time>
      </trkpt>
      <trkpt lat="41.90395667" lon="12.50201333">
        <ele>72.086</ele>
        <time>1970-01-01T01:00:00Z</time>
      </trkpt>
      <trkpt lat="41.90394" lon="12.50203667">
        <ele>72.086</ele>
        <time>1970-01-01T01:00:00Z</time>
      </trkpt>
      <trkpt lat="41.90392333" lon="12.50206">
        <ele>72.086</ele>
        <time>1970-01-01T01:00:00Z</time>
      </trkpt>
      <trkpt lat="41.90390833" lon="12.50208333">
        <ele>72.086</ele>
        <time>1970-01-01T01:00:00Z</time>
      </trkpt>
      <trkpt lat="41.903895" lon="12.50210667">
        <ele>72.086</ele>
        <time>1970-01-01T01:00:00Z</time>
      </trkpt>
      <trkpt lat="41.90387833" lon="12.50213167">
        <ele>72.086</ele>
        <time>1970-01-01T01:00:00Z</time>
      </trkpt>
      <trkpt lat="41.90386333" lon="12.50215667">
        <ele>72.086</ele>
        <time>1970-01-01T01:00:00Z</time>
      </trkpt>
      <trkpt lat="41.90385167" lon="12.50218333">
        <ele>72.086</ele>
        <time>1970-01-01T01:00:00Z</time>
      </trkpt>
      <trkpt lat="41.90383833" lon="12.50220833">
        <ele>72.086</ele>
        <time>1970-01-01T01:00:00Z</time>
      </trkpt>
      <trkpt lat="41.90382667" lon="12.50223167">
        <ele>72.086</ele>
        <time>1970-01-01T01:00:00Z</time>
      </trkpt>
      <trkpt lat="41.90381333" lon="12.502255">
        <ele>72.086</ele>
        <time>1970-01-01T01:00:00Z</time>
      </trkpt>
      <trkpt lat="41.90380167" lon="12.50227333">
        <ele>72.086</ele>
        <time>1970-01-01T01:00:00Z</time>
      </trkpt>
      <trkpt lat="41.90379" lon="12.50228833">
        <ele>72.086</ele>
        <time>1970-01-01T01:00:00Z</time>
      </trkpt>
      <trkpt lat="41.90378" lon="12.5023">
        <ele>72.086</ele>
        <time>1970-01-01T01:00:00Z</time>
      </trkpt>
      <trkpt lat="41.90376667" lon="12.50231">
        <ele>72.086</ele>
        <time>1970-01-01T01:00:00Z</time>
      </trkpt>
      <trkpt lat="41.90375667" lon="12.50231833">
        <ele>72.086</ele>
        <time>1970-01-01T01:00:00Z</time>
      </trkpt>
      <trkpt lat="41.903745" lon="12.50232667">
        <ele>72.086</ele>
        <time>1970-01-01T01:00:00Z</time>
      </trkpt>
      <trkpt lat="41.90373667" lon="12.50233333">
        <ele>72.086</ele>
        <time>1970-01-01T01:00:00Z</time>
      </trkpt>
      <trkpt lat="41.90372667" lon="12.502345">
        <ele>72.086</ele>
        <time>1970-01-01T01:00:00Z</time>
      </trkpt>
      <trkpt lat="41.90371833" lon="12.50236">
        <ele>72.086</ele>
        <time>1970-01-01T01:00:00Z</time>
      </trkpt>
      <trkpt lat="41.90370833" lon="12.50237333">
        <ele>72.086</ele>
        <time>1970-01-01T01:00:00Z</time>
      </trkpt>
      <trkpt lat="41.9037" lon="12.50238667">
        <ele>72.086</ele>
        <time>1970-01-01T01:00:00Z</time>
      </trkpt>
      <trkpt lat="41.90369" lon="12.5024">
        <ele>73.153</ele>
        <time>1970-01-01T01:00:00Z</time>
      </trkpt>
      <trkpt lat="41.90368" lon="12.50241333">
        <ele>73.153</ele>
        <time>1970-01-01T01:00:00Z</time>
      </trkpt>
      <trkpt lat="41.90367" lon="12.50243333">
        <ele>73.153</ele>
        <time>1970-01-01T01:00:00Z</time>
      </trkpt>
      <trkpt lat="41.90365833" lon="12.50245167">
        <ele>73.153</ele>
        <time>1970-01-01T01:00:00Z</time>
      </trkpt>
      <trkpt lat="41.90364333" lon="12.50246833">
        <ele>73.153</ele>
        <time>1970-01-01T01:00:00Z</time>
      </trkpt>
      <trkpt lat="41.90363" lon="12.50248167">
        <ele>73.153</ele>
        <time>1970-01-01T01:00:00Z</time>
      </trkpt>
      <trkpt lat="41.90361667" lon="12.50249667">
        <ele>73.153</ele>
        <time>1970-01-01T01:00:00Z</time>
      </trkpt>
      <trkpt lat="41.9036" lon="12.50251">
        <ele>73.153</ele>
        <time>1970-01-01T01:00:00Z</time>
      </trkpt>
      <trkpt lat="41.90358333" lon="12.50252167">
        <ele>73.153</ele>
        <time>1970-01-01T01:00:00Z</time>
      </trkpt>
      <trkpt lat="41.90356333" lon="12.502535">
        <ele>73.153</ele>
        <time>1970-01-01T01:00:00Z</time>
      </trkpt>
      <trkpt lat="41.903545" lon="12.50254667">
        <ele>73.153</ele>
        <time>1970-01-01T01:00:00Z</time>
      </trkpt>
    </trkseg>
  </trk>
</gpx>